[[{"header":{"parameterUnit":"m.s-1","parameterCategory":1,"la1":30.6,"la2":28.766,"lo1":-90.7593,"lo2":-88.6598,"dy":0.0162,"dx":0.0183,"nx":116,"ny":114,"refTime":"2023-07-02T12:00:00:Z","depth":0,"parameterNumber":2,"parameterNumberName":"U-component_of_WINDS"},"data":[0.0,0.0,0.0,0.0,0.0,0.0,0.0,0.0,0.0,0.0,0.0,0.0,0.0,0.0,0.0,0.0,0.0,0.0,0.0,0.0,0.0,0.0,0.0,0.0,0.0,0.0,0.0,0.0,0.0,0.0,0.0,0.0,0.0,0.0,0.0,0.0,0.0,0.0,0.0,0.0,0.0,0.0,0.0,0.0,0.0,0.0,0.0,0.0,0.0,0.0,0.0,0.0,0.0,0.0,0.0,0.0,0.0,0.0,0.0,0.0,0.0,0.0,0.0,0.0,0.0,0.0,0.0,0.0,0.0,0.0,0.0,0.0,0.0,0.0,0.0,0.0,0.0,0.0,0.0,0.0,0.0,0.0,0.0,0.0,0.0,0.0,0.0,0.0,0.0,0.0,0.0,0.0,0.0,0.0,0.0,0.0,0.0,0.0,0.0,0.0,0.0,0.0,0.0,0.0,0.0,0.0,0.0,0.0,0.0,0.0,0.0,0.0,0.0,0.0,0.0,0.0,0.0,0.0,0.0,0.0,0.0,0.0,0.0,0.0,0.0,0.0,0.0,0.0,0.0,0.0,0.0,0.0,0.0,0.0,0.0,0.0,0.0,0.0,0.0,0.0,0.0,0.0,0.0,0.0,0.0,0.0,0.0,0.0,0.0,0.0,0.0,0.0,0.0,0.0,0.0,0.0,0.0,0.0,0.0,0.0,0.0,0.0,0.0,0.0,0.0,0.0,0.0,0.0,0.0,0.0,0.0,0.0,0.0,0.0,0.0,0.0,0.0,0.0,0.0,0.0,0.0,0.0,0.0,0.0,0.0,0.0,0.0,0.0,0.0,0.0,0.0,0.0,0.0,0.0,0.0,0.0,0.0,0.0,0.0,0.0,0.0,0.0,0.0,0.0,0.0,0.0,0.0,0.0,0.0,0.0,0.0,0.0,0.0,0.0,0.0,0.0,0.0,0.0,0.0,0.0,0.0,0.0,0.0,0.0,0.0,0.0,0.0,0.0,0.0,0.0,0.0,0.0,0.0,0.0,0.0,0.0,0.0,0.0,0.0,0.0,0.0,0.0,0.0,0.0,0.0,0.0,0.0,0.0,0.0,0.0,0.0,0.0,0.0,0.0,0.0,0.0,0.0,0.0,0.0,0.0,0.0,0.0,0.0,0.0,0.0,0.0,0.0,0.0,0.0,0.0,0.0,0.0,0.0,0.0,0.0,0.0,0.0,0.0,0.0,0.0,0.0,0.0,0.0,0.0,0.0,0.0,0.0,0.0,0.0,0.0,0.0,0.0,0.0,0.0,0.0,0.0,0.0,0.0,0.0,0.0,0.0,0.0,0.0,0.0,0.0,0.0,0.0,0.0,0.0,0.0,0.0,0.0,0.0,0.0,0.0,0.0,0.0,0.0,0.0,0.0,0.0,0.0,0.0,0.0,0.0,0.0,0.0,0.0,0.0,0.0,0.0,0.0,0.0,0.0,0.0,0.0,0.0,0.0,0.0,0.0,0.0,0.0,0.0,0.0,0.0,0.0,0.0,0.0,0.0,0.0,0.0,0.0,0.0,0.0,0.0,0.0,0.0,0.0,0.0,0.0,0.0,0.0,0.0,0.0,0.0,0.0,0.0,0.0,0.0,0.0,0.0,0.0,0.0,0.0,0.0,0.0,0.0,0.0,0.0,0.0,0.0,0.0,0.0,0.0,0.0,0.0,0.0,0.0,0.0,0.0,0.0,0.0,0.0,0.0,0.0,0.0,0.0,0.0,0.0,0.0,0.0,0.0,0.0,0.0,0.0,0.0,0.0,0.0,0.0,0.0,0.0,0.0,0.0,0.0,0.0,0.0,0.0,0.0,0.0,0.0,0.0,0.0,0.0,0.0,0.0,0.0,0.0,0.0,0.0,0.0,0.0,0.0,0.0,0.0,0.0,0.0,0.0,0.0,0.0,0.0,0.0,0.0,0.0,0.0,0.0,0.0,0.0,0.0,0.0,0.0,0.0,0.0,0.0,0.0,0.0,0.0,0.0,0.0,0.0,0.0,0.0,0.0,0.0,0.0,0.0,0.0,0.0,0.0,0.0,0.0,0.0,0.0,0.0,0.0,0.0,0.0,0.0,0.0,0.0,0.0,0.0,0.0,0.0,0.0,0.0,0.0,0.0,0.0,0.0,0.0,0.0,0.0,0.0,0.0,0.0,0.0,0.0,0.0,0.0,0.0,0.0,0.0,0.0,0.0,0.0,0.0,0.0,0.0,0.0,0.0,0.0,0.0,0.0,0.0,0.0,0.0,0.0,0.0,0.0,0.0,0.0,0.0,0.0,0.0,0.0,0.0,0.0,0.0,0.0,0.0,0.0,0.0,0.0,0.0,0.0,0.0,0.0,0.0,0.0,0.0,0.0,0.0,0.0,0.0,0.0,0.0,0.0,0.0,0.0,0.0,0.0,0.0,0.0,0.0,0.0,0.0,0.0,0.0,0.0,0.0,0.0,0.0,0.0,0.0,0.0,0.0,0.0,0.0,0.0,0.0,0.0,0.0,0.0,0.0,0.0,0.0,0.0,0.0,0.0,0.0,0.0,0.0,0.0,0.0,0.0,0.0,0.0,0.0,0.0,0.0,0.0,0.0,0.0,0.0,0.0,0.0,0.0,0.0,0.0,0.0,0.0,0.0,0.0,0.0,0.0,0.0,0.0,0.0,0.0,0.0,0.0,0.0,0.0,0.0,0.0,0.0,0.0,0.0,0.0,0.0,0.0,0.0,0.0,0.0,0.0,0.0,0.0,0.0,0.0,0.0,0.0,0.0,0.0,0.0,0.0,0.0,0.0,0.0,0.0,0.0,0.0,0.0,0.0,0.0,0.0,0.0,0.0,0.0,0.0,0.0,0.0,0.0,0.0,0.0,0.0,0.0,0.0,0.0,0.0,0.0,0.0,0.0,0.0,0.0,0.0,0.0,0.0,0.0,0.0,0.0,0.0,0.0,0.0,0.0,0.0,0.0,0.0,0.0,0.0,0.0,0.0,0.0,0.0,0.0,0.0,0.0,0.0,0.0,0.0,0.0,0.0,0.0,0.0,0.0,0.0,0.0,0.0,0.0,0.0,0.0,0.0,0.0,0.0,0.0,0.0,0.0,0.0,0.0,0.0,0.0,0.0,0.0,0.0,0.0,0.0,0.0,0.0,0.0,0.0,0.0,0.0,0.0,0.0,0.0,0.0,0.0,0.0,0.0,0.0,0.0,0.0,0.0,0.0,0.0,0.0,0.0,0.0,0.0,0.0,0.0,0.0,0.0,0.0,0.0,0.0,0.0,0.0,0.0,0.0,0.0,0.0,0.0,0.0,0.0,0.0,0.0,0.0,0.0,0.0,0.0,0.0,0.0,0.0,0.0,0.0,0.0,0.0,0.0,0.0,0.0,0.0,0.0,0.0,0.0,0.0,0.0,0.0,0.0,0.0,0.0,0.0,0.0,0.0,0.0,0.0,0.0,0.0,0.0,0.0,0.0,0.0,0.0,0.0,0.0,0.0,0.0,0.0,0.0,0.0,0.0,0.0,0.0,0.0,0.0,0.0,0.0,0.0,0.0,0.0,0.0,0.0,0.0,0.0,0.0,0.0,0.0,0.0,0.0,0.0,0.0,0.0,0.0,0.0,0.0,0.0,0.0,0.0,0.0,0.0,0.0,0.0,0.0,0.0,0.0,0.0,0.0,0.0,0.0,0.0,0.0,0.0,0.0,0.0,0.0,0.0,0.0,0.0,0.0,0.0,0.0,0.0,0.0,0.0,0.0,0.0,0.0,0.0,0.0,0.0,0.0,0.0,0.0,0.0,0.0,0.0,0.0,0.0,0.0,0.0,0.0,0.0,0.0,0.0,0.0,0.0,0.0,0.0,0.0,0.0,0.0,0.0,0.0,0.0,0.0,0.0,0.0,0.0,0.0,0.0,0.0,0.0,0.0,0.0,0.0,0.0,0.0,0.0,0.0,0.0,0.0,0.0,0.0,0.0,0.0,0.0,0.0,0.0,0.0,0.0,0.0,0.0,0.0,0.0,0.0,0.0,0.0,0.0,0.0,0.0,0.0,0.0,0.0,0.0,0.0,0.0,0.0,0.0,0.0,0.0,0.0,0.0,0.0,0.0,0.0,0.0,0.0,0.0,0.0,0.0,0.0,0.0,0.0,0.0,0.0,0.0,0.0,0.0,0.0,0.0,0.0,0.0,0.0,0.0,0.0,0.0,0.0,0.0,0.0,0.0,0.0,0.0,0.0,0.0,0.0,0.0,0.0,0.0,0.0,0.0,0.0,0.0,0.0,0.0,0.0,0.0,0.0,0.0,0.0,0.0,0.0,0.0,0.0,0.0,0.0,0.0,0.0,0.0,0.0,0.0,0.0,0.0,0.0,0.0,0.0,0.0,0.0,0.0,0.0,0.0,0.0,0.0,0.0,0.0,0.0,0.0,0.0,0.0,0.0,0.0,0.0,0.0,0.0,0.0,0.0,0.0,0.0,0.0,0.0,0.0,0.0,0.0,0.0,0.0,0.0,0.0,0.0,0.0,0.0,0.0,0.0,0.0,0.0,0.0,0.0,0.0,0.0,0.0,0.0,0.0,0.0,0.0,0.0,0.0,0.0,0.0,0.0,0.0,0.0,0.0,0.0,0.0,0.0,0.0,0.0,0.0,0.0,0.0,0.0,0.0,0.0,0.0,0.0,0.0,0.0,0.0,0.0,0.0,0.0,0.0,0.0,0.0,0.0,0.0,0.0,0.0,0.0,0.0,0.0,0.0,0.0,0.0,0.0,0.0,0.0,0.0,0.0,0.0,0.0,0.0,0.0,0.0,0.0,0.0,0.0,0.0,0.0,0.0,0.0,0.0,0.0,0.0,0.0,0.0,0.0,0.0,0.0,0.0,0.0,0.0,0.0,0.0,0.0,0.0,0.0,0.0,0.0,0.0,0.0,0.0,0.0,0.0,0.0,0.0,0.0,0.0,0.0,0.0,0.0,0.0,0.0,0.0,0.0,0.0,0.0,0.0,0.0,0.0,0.0,0.0,0.0,0.0,0.0,0.0,0.0,0.0,0.0,0.0,0.0,0.0,0.0,0.0,0.0,0.0,0.0,0.0,0.0,0.0,0.0,0.0,0.0,0.0,0.0,0.0,0.0,0.0,0.0,0.0,0.0,0.0,0.0,0.0,0.0,0.0,0.0,0.0,0.0,0.0,0.0,0.0,0.0,0.0,0.0,0.0,0.0,0.0,0.0,0.0,0.0,0.0,0.0,0.0,0.0,0.0,0.0,0.0,0.0,0.0,0.0,0.0,0.0,0.0,0.0,0.0,0.0,0.0,0.0,0.0,0.0,0.0,0.0,0.0,0.0,0.0,0.0,0.0,0.0,0.0,0.0,0.0,0.0,0.0,0.0,0.0,0.0,0.0,0.0,0.0,0.0,0.0,0.0,0.0,0.0,0.0,0.0,0.0,0.0,0.0,0.0,0.0,0.0,0.0,0.0,0.0,0.0,0.0,0.0,0.0,0.0,0.0,0.0,0.0,0.0,0.0,0.0,0.0,0.0,0.0,0.0,0.0,0.0,0.0,0.0,0.0,0.0,0.0,0.0,0.0,0.0,0.0,0.0,0.0,0.0,0.0,0.0,0.0,0.0,0.0,0.0,0.0,0.0,0.0,0.0,0.0,0.0,0.0,0.0,0.0,0.0,0.0,0.0,0.0,0.0,0.0,0.0,0.0,0.0,0.0,0.0,0.0,0.0,0.0,0.0,0.0,0.0,0.0,0.0,0.0,0.0,0.0,0.0,0.0,0.0,0.0,0.0,0.0,0.0,0.0,0.0,0.0,0.0,0.0,0.0,0.0,0.0,0.0,0.0,0.0,0.0,0.0,0.0,0.0,0.0,0.0,0.0,0.0,0.0,0.0,0.0,0.0,0.0,0.0,0.0,0.0,0.0,0.0,0.0,0.0,0.0,0.0,0.0,0.0,0.0,0.0,0.0,0.0,0.0,0.0,0.0,0.0,0.0,0.0,0.0,0.0,0.0,0.0,0.0,0.0,0.0,0.0,0.0,0.0,0.0,0.0,0.0,0.0,0.0,0.0,0.0,0.0,0.0,-1.2373,-1.2412,0.0,0.0,0.0,0.0,0.0,0.0,0.0,0.0,0.0,0.0,0.0,0.0,0.0,0.0,0.0,0.0,0.0,0.0,0.0,0.0,0.0,0.0,0.0,0.0,0.0,0.0,0.0,0.0,0.0,0.0,0.0,0.0,0.0,0.0,0.0,0.0,0.0,0.0,0.0,0.0,0.0,0.0,0.0,0.0,0.0,0.0,0.0,0.0,0.0,0.0,0.0,0.0,0.0,0.0,0.0,0.0,0.0,0.0,0.0,0.0,0.0,0.0,0.0,0.0,0.0,0.0,0.0,0.0,0.0,0.0,0.0,0.0,0.0,0.0,0.0,0.0,0.0,0.0,0.0,0.0,0.0,0.0,0.0,0.0,0.0,0.0,0.0,0.0,0.0,0.0,0.0,0.0,0.0,0.0,0.0,0.0,0.0,0.0,0.0,0.0,0.0,0.0,0.0,0.0,0.0,0.0,0.0,0.0,0.0,0.0,0.0,0.0,0.0,0.0,-1.4368,-1.3894,0.0,0.0,0.0,0.0,0.0,0.0,0.0,0.0,0.0,0.0,0.0,0.0,0.0,0.0,0.0,0.0,0.0,0.0,0.0,0.0,0.0,0.0,0.0,0.0,0.0,0.0,0.0,0.0,0.0,0.0,0.0,0.0,0.0,0.0,0.0,0.0,0.0,0.0,0.0,0.0,0.0,0.0,0.0,0.0,0.0,0.0,0.0,0.0,0.0,0.0,0.0,0.0,0.0,0.0,0.0,0.0,0.0,0.0,0.0,0.0,0.0,0.0,0.0,0.0,0.0,0.0,0.0,0.0,0.0,0.0,0.0,0.0,0.0,0.0,0.0,0.0,0.0,0.0,0.0,0.0,0.0,0.0,0.0,0.0,0.0,0.0,0.0,0.0,0.0,0.0,0.0,0.0,0.0,0.0,0.0,0.0,0.0,0.0,0.0,0.0,0.0,0.0,0.0,0.0,0.0,0.0,0.0,0.0,-1.7693,-1.8204,-1.8277,-1.8758,-1.8786,-1.8391,-1.6996,-1.6232,-1.6059,-1.7073,0.0,0.0,0.0,0.0,0.0,0.0,0.0,0.0,0.0,0.0,0.0,0.0,0.0,0.0,0.0,0.0,0.0,0.0,0.0,0.0,0.0,-0.8008,-0.7695,-0.756,-0.7286,-0.7122,0.0,0.0,0.0,0.0,0.0,0.0,0.0,0.0,0.0,0.0,0.0,0.0,-1.2011,-1.2568,-1.3047,-1.3364,-1.1589,0.0,0.0,0.0,0.0,0.0,0.0,0.0,0.0,0.0,0.0,0.0,0.0,0.0,0.0,0.0,0.0,0.0,0.0,0.0,0.0,0.0,0.0,0.0,0.0,0.0,0.0,0.0,0.0,0.0,0.0,0.0,0.0,0.0,0.0,0.0,0.0,0.0,0.0,0.0,0.0,0.0,0.0,0.0,-0.7278,-1.081,0.0,0.0,0.0,0.0,0.0,0.0,0.0,0.0,0.0,0.0,0.0,0.0,0.0,-1.6205,-1.6874,-1.7523,-1.8068,-1.8546,-1.8435,-1.8568,-1.8955,-1.8634,-1.8739,-1.9167,-1.9404,0.0,-1.7951,-1.8113,0.0,0.0,0.0,0.0,0.0,0.0,0.0,0.0,0.0,0.0,0.0,0.0,0.0,0.0,0.0,0.0,0.0,0.0,0.0,0.0,0.0,-0.8119,-0.7767,-0.7717,-0.827,-0.8259,-0.743,0.0,0.0,0.0,0.0,0.0,0.0,0.0,0.0,0.0,-1.0157,-1.1387,-1.2413,-1.3312,-1.4172,-1.4951,-1.3662,-1.3129,-1.324,-1.3625,0.0,0.0,0.0,0.0,0.0,0.0,0.0,0.0,0.0,0.0,0.0,0.0,0.0,0.0,0.0,0.0,0.0,0.0,0.0,0.0,0.0,0.0,0.0,0.0,0.0,0.0,0.0,0.0,0.0,0.0,0.0,0.0,0.0,0.0,0.0,0.0,0.0,0.0,0.0,-0.8012,-0.9947,-1.2958,-1.3173,-1.349,0.0,0.0,0.0,0.0,0.0,0.0,0.0,0.0,0.0,-1.6028,-1.6977,-1.776,-1.8297,-1.899,-1.9493,-1.991,-2.0143,-2.0357,-2.0577,-2.0739,-2.0965,-2.1251,-2.2207,-2.2127,-2.1181,-2.0093,-1.952,-1.935,0.0,0.0,0.0,0.0,-2.0258,-2.0318,0.0,0.0,0.0,0.0,0.0,0.0,0.0,0.0,0.0,0.0,0.0,0.0,-0.8718,-0.8464,-0.829,-0.8247,-0.9109,-0.9189,-0.808,-0.9195,0.0,0.0,0.0,0.0,0.0,0.0,0.0,-1.0148,-1.1661,-1.2831,-1.3687,-1.4655,-1.5548,-1.6308,-1.5992,-1.5463,-1.484,-1.5277,-1.5105,0.0,0.0,0.0,0.0,0.0,0.0,0.0,0.0,0.0,0.0,0.0,0.0,0.0,0.0,0.0,0.0,0.0,0.0,0.0,0.0,0.0,0.0,0.0,0.0,0.0,0.0,0.0,0.0,0.0,0.0,0.0,0.0,0.0,0.0,0.0,0.0,0.0,0.0,-1.0303,-1.2834,-1.4845,-1.4559,-1.4592,0.0,0.0,0.0,0.0,0.0,0.0,-1.6241,-1.7279,-1.7918,-1.7963,-1.8309,-1.883,-1.9561,-2.0357,-2.0927,-2.1231,-2.1874,-2.2278,-2.2458,-2.2793,-2.3122,-2.3496,-2.4261,-2.441,-2.3984,-2.2383,-2.1216,-2.0471,-2.0471,-2.0367,-2.0288,-2.0961,-2.1111,-2.1062,0.0,0.0,0.0,0.0,0.0,0.0,0.0,0.0,0.0,0.0,0.0,-0.8983,-0.8735,-0.93,-0.9627,-0.9432,-0.9475,-0.9475,-0.9404,-0.902,-0.8667,0.0,0.0,0.0,0.0,0.0,0.0,-1.2993,-1.4041,-1.5402,-1.7066,-1.7625,-1.7923,-1.7989,-1.8465,-1.8385,-1.7768,-1.6037,-1.6152,-1.7365,0.0,0.0,0.0,0.0,0.0,0.0,0.0,0.0,0.0,0.0,0.0,0.0,0.0,0.0,0.0,0.0,0.0,0.0,0.0,0.0,0.0,0.0,0.0,0.0,0.0,0.0,0.0,0.0,0.0,0.0,0.0,0.0,0.0,0.0,0.0,0.0,0.0,0.0,0.0,-1.4585,-1.4588,0.0,0.0,0.0,0.0,-1.6939,-1.7158,-1.751,-1.8121,-1.7635,-1.7904,-1.9182,-1.9117,-1.9624,-2.0804,-2.1987,-2.2577,-2.2613,-2.3206,-2.3849,-2.444,-2.3834,-2.4253,-2.5435,-2.4844,-2.4933,-2.545,-2.4709,-2.3684,-2.2538,-2.2538,-2.2164,-2.168,-2.2358,-2.2209,-2.1829,0.0,0.0,0.0,0.0,0.0,0.0,0.0,0.0,0.0,-0.935,-0.9179,-0.9205,-0.9496,-0.9699,-0.9956,-1.0365,-1.0824,-1.0709,-0.9763,-1.0035,-0.9755,0.0,0.0,0.0,0.0,0.0,-1.1703,-1.3589,-1.4677,-1.592,-1.7302,-1.7855,-1.8283,-1.8631,-1.9144,-1.9412,-1.944,-1.8071,-1.7223,-1.6783,-1.6721,-1.6556,0.0,0.0,0.0,0.0,0.0,0.0,0.0,0.0,0.0,0.0,0.0,0.0,0.0,0.0,0.0,0.0,0.0,0.0,0.0,0.0,0.0,0.0,0.0,0.0,0.0,0.0,0.0,0.0,0.0,0.0,0.0,0.0,0.0,0.0,0.0,0.0,0.0,-1.5391,-1.571,0.0,-1.7224,-1.7718,-1.8044,-1.8238,-1.9007,-1.9445,-1.933,-1.9851,-2.0384,-2.0961,-2.1266,-2.1821,-2.2638,-2.3061,-2.3287,-2.3266,-2.349,-2.3729,-2.3947,-2.4156,-2.45,-2.4993,-2.563,-2.6019,-2.6228,-2.5989,-2.5121,-2.3804,-2.2547,-2.2398,-2.2951,-2.3176,-2.34,-2.3678,0.0,0.0,0.0,0.0,0.0,0.0,0.0,0.0,0.0,-0.9385,-0.9457,-0.9558,-0.9626,-1.0242,-1.0632,-1.0605,-1.1278,-1.1171,-0.9952,-1.0181,-0.996,0.0,-0.9512,0.0,0.0,-1.1497,-1.2908,-1.4639,-1.5939,-1.7098,-1.8127,-1.847,-1.8836,-1.9188,-1.9636,-2.0024,-2.0266,-1.9714,-1.8733,-1.7551,-1.7634,-1.7684,-1.7617,0.0,0.0,0.0,0.0,0.0,0.0,0.0,0.0,0.0,0.0,0.0,0.0,0.0,0.0,0.0,0.0,0.0,0.0,0.0,0.0,0.0,0.0,0.0,0.0,0.0,0.0,0.0,0.0,0.0,0.0,0.0,0.0,0.0,0.0,-1.3911,-1.5065,-1.7078,-1.7464,-1.7917,-1.875,-1.9238,-1.9505,-1.9505,-2.0684,-2.1228,-2.086,-2.1589,-2.2164,-2.2453,-2.2625,-2.3002,-2.3595,-2.3595,-2.3595,-2.3595,-2.3595,-2.3729,-2.3947,-2.4395,-2.4844,-2.5307,-2.6213,-2.6746,-2.6926,-2.6701,-2.6213,-2.545,-2.3699,-2.34,-2.4021,-2.4662,-2.4912,-2.5023,0.0,0.0,0.0,0.0,0.0,0.0,0.0,-1.0037,-0.9848,-0.9454,-0.9953,-0.9999,-0.9044,-1.0917,-1.1637,-1.0153,-1.0673,-1.0758,-1.0051,-0.9309,-0.9113,0.0,0.0,0.0,-1.0516,-1.301,-1.4979,-1.6337,-1.7926,-1.9031,-1.9708,-1.9708,-1.9708,-1.9744,-2.0141,-2.0331,-2.0382,-2.0845,-2.067,-1.9991,-1.8892,-1.89,-1.9396,0.0,0.0,0.0,0.0,0.0,0.0,0.0,0.0,0.0,0.0,0.0,0.0,0.0,0.0,0.0,0.0,0.0,0.0,0.0,0.0,0.0,0.0,0.0,0.0,0.0,0.0,0.0,0.0,0.0,0.0,0.0,0.0,0.0,-1.5507,-1.6496,-1.7846,-1.9519,-1.9768,-2.0034,-2.0658,-2.0748,-2.0763,-2.0778,-2.2009,-2.2763,-2.2793,-2.2793,-2.3062,-2.364,-2.3107,-2.3077,-2.3655,-2.3655,-2.3655,-2.3655,-2.3655,-2.4014,-2.4634,-2.4649,-2.5367,-2.6587,-2.6617,-2.7001,-2.754,-2.6881,-2.6986,-2.7435,-2.6123,-2.5217,-2.4912,-2.6788,-2.6703,-2.5764,0.0,0.0,0.0,0.0,0.0,0.0,0.0,-0.9954,-0.9735,-0.9441,-0.943,-0.9512,-0.9676,-1.0261,-1.0683,-1.0791,-1.048,-1.0227,-1.0018,-0.9309,-0.928,0.0,0.0,0.0,-1.2811,-1.4051,-1.552,-1.7317,-1.8248,-1.9031,-1.9708,-1.9708,-1.9856,-2.0158,-2.0615,-2.0975,-2.1275,-2.1735,-2.1845,-2.1561,-2.0397,-1.99,-1.9769,0.0,0.0,0.0,0.0,0.0,0.0,0.0,0.0,0.0,0.0,0.0,0.0,0.0,0.0,0.0,0.0,0.0,0.0,0.0,0.0,0.0,0.0,0.0,0.0,0.0,0.0,0.0,0.0,0.0,0.0,0.0,-1.8703,-1.8562,-1.7883,-1.8915,-1.989,-2.0374,-2.1276,-2.1759,-2.1455,-2.1859,-2.2323,-2.2772,-2.3588,-2.4298,-2.4777,-2.4807,-2.4881,-2.5046,-2.4896,-2.4881,-2.5061,-2.5061,-2.5061,-2.5061,-2.5061,-2.5151,-2.5337,-2.5839,-2.6243,-2.6641,-2.7121,-2.742,-2.754,-2.6881,-2.6692,-2.6806,-2.5929,-2.6078,-2.6776,-2.6835,-2.6937,-2.7091,0.0,0.0,0.0,0.0,0.0,0.0,0.0,-0.9983,-0.9808,-0.9559,-0.959,-0.9664,-0.9697,-1.015,-1.0412,-1.0277,-1.0096,-0.9872,-0.9557,-0.954,0.0,0.0,0.0,-1.1954,-1.3752,-1.518,-1.6621,-1.8117,-1.8965,-1.9479,-1.9708,-1.9708,-1.9909,-2.0331,-2.0797,-2.1228,-2.1643,-2.2106,-2.2296,-2.2248,-2.1549,-2.1142,-2.0842,-1.9761,-1.9458,-1.9449,-1.8446,-1.8303,-1.8517,-1.7839,0.0,0.0,0.0,0.0,0.0,0.0,0.0,0.0,0.0,0.0,0.0,0.0,0.0,0.0,0.0,0.0,0.0,0.0,0.0,0.0,0.0,0.0,0.0,0.0,-2.123,-2.1566,-2.1812,-2.1842,-2.1845,-2.1909,-2.2847,-2.3236,-2.2562,-2.2853,-2.3325,-2.3984,-2.4634,-2.5187,-2.5585,-2.5869,-2.5899,-2.5615,-2.5615,-2.5615,-2.5615,-2.5863,-2.5986,-2.5986,-2.5986,-2.5986,-2.5978,-2.6417,-2.6587,-2.6632,-2.7315,-2.76,-2.757,-2.718,-2.7031,-2.6956,0.0,0.0,0.0,0.0,-2.7429,-2.7959,0.0,0.0,0.0,0.0,0.0,0.0,0.0,-1.0055,-0.9935,-0.9735,-0.9974,-0.9945,-0.9318,-1.0116,-1.0282,-0.9204,-0.9601,-0.9638,-0.897,-0.9704,0.0,-0.9282,-1.1581,-1.322,-1.396,-1.628,-1.7915,-1.8788,-1.975,-2.0052,-1.9708,-1.9708,-1.9929,-2.0399,-2.0813,-2.1244,-2.1703,-2.212,-2.2347,-2.2429,-2.233,-2.2296,-2.2144,-2.069,-2.0585,-2.1072,-2.0183,-1.9575,-1.9142,-1.8973,0.0,0.0,0.0,0.0,0.0,0.0,0.0,0.0,0.0,0.0,0.0,0.0,0.0,0.0,0.0,0.0,0.0,0.0,0.0,0.0,0.0,0.0,0.0,0.0,-2.3663,-2.4496,-2.6202,-2.5012,-2.3912,-2.3846,-2.4335,-2.447,-2.3879,-2.3759,-2.4029,-2.4769,-2.5367,-2.5749,-2.5824,-2.6452,0.0,0.0,0.0,-2.6048,-2.6048,-2.6566,-2.6836,-2.6836,-2.6836,-2.6836,-2.6829,-2.684,-2.6881,-2.6946,-2.7405,-2.769,-2.7809,-2.766,-2.76,-2.754,-2.6956,-2.6692,-2.6767,-2.7375,-2.7959,-2.8319,0.0,0.0,0.0,0.0,0.0,0.0,0.0,-1.0093,-1.0019,-0.9805,-0.9197,-0.883,-0.8953,-0.856,-0.8529,-0.9134,-0.9288,-0.9274,-0.9075,0.0,-0.9143,-1.0104,-1.2116,-1.3802,-1.5055,-1.703,-1.8455,-1.9256,-1.9626,-1.9782,-1.9708,-1.9708,-2.012,-2.0862,-2.0959,-2.1431,-2.218,-2.2268,-2.2634,-2.3139,-2.2533,-2.2296,-2.2195,-2.1312,-2.1055,-2.1021,-1.9621,-1.9807,-2.0564,-1.9329,-1.9549,-2.0187,-1.9414,0.0,0.0,0.0,0.0,0.0,0.0,0.0,0.0,0.0,0.0,0.0,0.0,0.0,0.0,0.0,0.0,0.0,0.0,0.0,0.0,-2.5563,-2.6519,-2.717,-2.7806,-2.7567,-2.682,-2.5371,-2.533,-2.5375,-2.5241,-2.4709,-2.4903,-2.6123,-2.6333,-2.6632,-2.718,-2.7844,-2.8143,-2.8023,-2.8532,-2.8843,-2.8843,-2.8893,-2.8905,-2.8905,-2.8905,0.0,-2.8905,-2.8435,-2.8502,-2.8978,-2.8004,-2.8214,-2.9142,-2.8049,-2.76,-2.7585,-2.7465,-2.7405,-2.742,-2.754,-2.766,-2.776,0.0,0.0,0.0,0.0,0.0,0.0,0.0,-1.0039,-0.9971,-0.9912,-0.9382,-0.8763,-0.816,-0.6866,-0.6519,-0.7704,-0.8628,-0.91,0.0,-0.9323,-0.9821,-1.0423,-1.2728,-1.4485,-1.5532,-1.7361,-1.8748,-1.9657,-1.994,-2.0188,-2.0345,-2.0345,-2.0682,-2.1291,-2.1291,-2.1873,-2.2835,-2.2448,-2.2733,-2.3354,-2.2743,-2.2517,-2.2487,-2.1939,-2.1752,-2.1651,-2.0889,-2.0856,-2.1072,-2.031,-2.0056,-2.0002,-1.9801,-1.9219,-1.8572,0.0,0.0,0.0,0.0,0.0,0.0,0.0,0.0,0.0,0.0,0.0,0.0,0.0,0.0,-2.189,0.0,0.0,-2.637,-2.7638,-2.8535,-2.9105,-2.9279,-2.879,-2.7829,-2.6288,-2.6093,-2.5974,-2.5621,-2.5292,-2.5525,-2.6512,-2.6587,-2.6896,-2.7555,-2.8233,-2.8607,-2.8607,-2.9235,-2.9606,-2.9606,-3.02,-3.0494,-3.0494,-3.0171,-3.0187,-3.0469,-2.9164,-2.8966,-2.9577,-2.8903,-2.8978,-2.9532,-2.8528,-2.8109,-2.8079,-2.7735,-2.76,-2.76,-2.76,-2.76,-2.76,0.0,0.0,0.0,0.0,0.0,0.0,0.0,0.0,-0.9951,-1.0027,-0.9649,-0.8842,-0.7491,-0.5986,-0.5613,-0.6914,-0.8055,0.0,0.0,-0.9796,-1.0407,-1.0551,-1.3134,-1.491,-1.5594,-1.7281,-1.8626,-1.9582,-1.9989,-2.0382,-2.0783,-2.0783,-2.1083,-2.1597,-2.1597,-2.22,-2.3139,-2.2601,-2.2799,-2.3454,-2.2985,-2.2932,-2.305,-2.264,-2.2467,-2.2419,-2.2078,-2.1487,-2.0837,-2.0776,-1.9938,-1.9063,-1.9947,-1.9553,-1.8736,-1.8708,-1.833,0.0,0.0,0.0,0.0,0.0,0.0,0.0,0.0,0.0,-2.2185,-2.2558,-2.4012,-2.5507,-2.6474,-2.8066,-2.9264,-2.9399,-3.0145,-3.0563,-3.0182,-2.9293,-2.8215,-2.6939,-2.6686,-2.6437,-2.6033,-2.5869,-2.6078,-2.6737,-2.6782,-2.7031,-2.757,-2.8378,-2.8786,-2.8786,-2.9549,-2.9968,-2.9968,-3.1105,-3.1678,-3.1678,-3.1142,-3.1158,-3.1638,-2.9802,-2.9325,-2.9968,-2.9968,-2.9846,-2.9577,-2.9146,-2.8816,-2.8547,-2.8019,-2.7794,-2.7794,-2.7794,-2.7884,-2.7989,0.0,0.0,0.0,0.0,0.0,0.0,0.0,0.0,0.0,-1.0163,-0.9208,-0.8257,-0.7557,-0.7299,-0.7734,-0.9118,0.0,0.0,-0.8991,-0.8876,-0.9365,-1.0706,-1.2944,-1.4508,-1.5249,-1.6617,-1.7715,-1.8476,-1.8818,-1.9346,-2.0018,-2.0018,-2.0585,-2.1597,-2.1597,-2.1903,-2.2426,-2.2584,-2.3114,-2.3801,-2.333,-2.3541,-2.405,-2.3363,-2.3111,-2.2899,-2.1277,-2.0223,-1.9572,-1.9267,-1.9029,-1.9159,-2.0615,-2.0685,-2.0204,-1.9911,0.0,-1.8315,-1.8647,-1.9118,-1.9566,-1.9663,-2.0647,-2.1853,0.0,0.0,-2.4438,-2.5426,-2.5812,-2.6542,-2.8342,-2.9396,-3.0192,-3.0852,-3.159,-3.1475,-2.9732,-2.9384,-2.8849,-2.763,-2.6971,-2.6806,-2.733,-2.6851,-2.6776,-2.7435,-2.748,-2.7525,-2.76,-2.8798,-2.9502,-2.9502,-3.0672,-3.1286,-3.1286,-3.2024,-3.2396,-3.2396,-3.2317,-3.2317,-3.2347,-3.0937,-3.0644,-3.1286,-3.1286,-3.0657,-2.9651,-3.0103,-2.9624,-2.8592,-2.8517,-2.8487,-2.8487,-2.8487,-2.8846,-2.9382,0.0,0.0,0.0,0.0,0.0,0.0,0.0,0.0,0.0,0.0,-0.8021,-0.7132,-0.8837,-0.8933,-0.9123,-0.9669,0.0,0.0,-0.9143,-0.8918,-0.9405,-1.0903,-1.2724,-1.4039,-1.4783,-1.5762,-1.6842,-1.8009,-1.8584,-1.9478,-2.0662,-2.1092,-2.1543,-2.2003,-2.2003,-2.2454,-2.321,-2.2855,-2.325,-2.4094,-2.3655,-2.3685,-2.3847,-2.278,-2.2082,-2.1534,-2.0905,-1.9878,0.0,0.0,-1.8426,-1.8597,-1.9568,-1.9582,-1.9234,-1.9341,-1.916,0.0,-1.963,-2.0176,-2.0667,-2.1115,-2.2635,-2.4163,-2.4692,-2.6122,-2.7602,-2.848,-2.8884,-2.9446,-3.068,-3.1176,-3.1326,0.0,-3.1819,-3.186,-3.0618,-2.9513,-2.8578,-2.7961,-2.7055,-2.679,-2.752,-2.7345,-2.73,-2.757,-2.76,-2.7764,-2.8143,-2.9097,-2.9771,-3.0103,-3.1017,-3.1726,-3.2148,-3.2415,-3.2962,-3.3722,-3.2933,-3.2766,-3.3125,-3.2175,-3.1893,-3.212,-3.1697,-3.1197,-3.0717,-3.0567,-3.0193,-2.9669,-2.931,-2.94,-2.9624,-2.8876,-2.9011,-2.9606,0.0,0.0,0.0,0.0,0.0,0.0,0.0,0.0,0.0,0.0,0.0,-0.6684,-0.7261,-0.8901,-0.9894,0.0,0.0,0.0,0.0,-0.8754,-0.9089,-1.0426,-1.1949,-1.3117,-1.3878,-1.4614,-1.5612,-1.6887,-1.7828,-1.8973,-2.0276,-2.1025,-2.1468,-2.1671,-2.1735,-2.2213,-2.2911,-2.2476,-2.2752,-2.346,-2.3256,-2.3019,-2.2694,-2.156,-2.0478,-1.9565,-1.9631,-1.8631,0.0,0.0,-1.7311,-1.7614,-1.8353,-1.8605,-1.8676,-1.9088,-1.9293,-1.9515,-2.0066,-2.083,-2.1679,-2.266,-2.4705,-2.6583,-2.6925,-2.853,-3.0153,-3.0849,-3.0945,-3.1123,-3.187,-3.1836,-3.1562,-3.1241,-3.165,-3.1675,-3.0793,-2.9478,-2.8438,-2.7919,-2.7121,-2.6786,-2.7234,-2.7457,-2.7564,-2.761,-2.76,-2.7961,-2.8843,-2.9493,-3.0159,-3.0782,-3.1642,-3.2348,-3.2893,-3.3269,-3.386,-3.4628,-3.3636,-3.3243,-3.3297,-3.2609,-3.2413,-3.2548,-3.201,-3.1869,-3.1989,-3.1345,-3.0956,-3.0717,-3.0088,-3.0118,-3.0387,-2.946,-2.9549,-3.0118,0.0,0.0,0.0,0.0,0.0,0.0,0.0,0.0,0.0,0.0,0.0,0.0,0.0,0.0,-0.9958,0.0,0.0,0.0,0.0,-0.7989,-0.7894,-0.8931,-1.0375,-1.156,-1.2348,-1.3083,-1.3845,-1.4605,-1.6062,-1.7162,-1.7918,-1.8657,-1.9384,-2.0082,-2.0333,-2.0482,-2.0529,-2.1102,-2.1352,-2.1417,-2.1735,-2.1355,-2.0513,-1.9693,-1.8465,-1.7151,-1.6849,0.0,0.0,-1.4797,-1.5375,-1.6191,-1.7436,-1.8543,0.0,-1.9849,-1.971,-1.943,-1.9497,0.0,-2.2453,-2.4044,-2.6444,-2.8747,-3.0059,-3.0882,-3.1492,-3.212,-3.1123,-3.0362,-3.1089,-3.0649,-3.0395,-3.1089,-3.1207,-3.076,-2.9439,-2.9206,-2.8682,-2.7369,-2.7201,-2.6983,-2.6483,-2.7018,-2.7446,-2.759,-2.76,-2.8182,-2.9496,-3.0229,-3.0877,-3.1548,-3.2861,-3.3578,-3.3687,-3.4972,-3.5295,-3.4701,-3.4659,-3.3937,-3.2629,-3.1879,-3.1883,-3.2512,-3.2482,-3.2841,-3.338,-3.2721,-3.2049,-3.1406,-3.0746,-3.0492,-3.0507,-3.0462,-3.0881,-3.1451,0.0,0.0,0.0,0.0,0.0,0.0,0.0,0.0,0.0,0.0,0.0,0.0,0.0,0.0,0.0,0.0,0.0,0.0,0.0,-0.7746,-0.723,-0.7877,-0.859,-0.9583,-1.088,-1.12,-1.1968,-1.3242,-1.4804,-1.5956,-1.6697,-1.798,-1.8366,-1.8042,-1.8756,-1.8843,-1.8534,-1.9352,-1.9821,-1.9946,-1.9515,-1.9199,-1.8841,-1.7541,-1.6423,-1.5576,0.0,0.0,-1.4567,-1.4543,-1.488,-1.5452,-1.6285,-1.7031,-1.792,-1.9537,-2.0292,-2.0918,-2.2421,0.0,-2.5764,-2.7243,-2.9428,-3.1462,-3.2365,-3.3244,-3.3751,-3.316,-3.1291,-2.9762,-2.9743,-2.8298,-2.7519,-2.8737,-2.9381,-2.9747,-2.9794,-2.948,-2.8841,-2.7729,-2.7006,-2.6329,-2.5625,-2.6255,-2.678,-2.6945,-2.7759,-2.8845,-3.0183,-3.1313,-3.2235,-3.2897,-3.3856,-3.4555,-3.5014,-3.5037,-3.5145,-3.5337,-3.398,-3.3302,-3.3209,-3.2048,-3.2114,-3.3123,-3.2689,-3.2886,-3.3484,-3.326,-3.2781,-3.2123,-3.1928,-3.1569,-3.1209,-3.1713,-3.1726,-3.1511,0.0,0.0,0.0,0.0,0.0,0.0,0.0,0.0,0.0,0.0,0.0,0.0,0.0,0.0,0.0,0.0,0.0,0.0,0.0,0.0,-0.7699,-0.7933,-0.8234,-0.8701,-0.9326,-0.9998,-1.1023,-1.2422,-1.3579,-1.4367,-1.4845,-1.6124,-1.6403,-1.5852,-1.6545,-1.6665,-1.6373,-1.7065,-1.7698,-1.8156,-1.726,-1.6688,-1.6256,-1.509,-1.4572,0.0,0.0,0.0,-1.4724,-1.441,-1.4796,-1.5464,-1.5719,-1.6741,-1.8166,-1.9579,-2.1126,-2.2798,-2.4762,-2.6705,-2.8593,-3.0272,-3.1995,-3.3434,-3.4024,-3.4273,-3.4027,-3.2855,-3.0422,-2.8337,-2.769,-2.6142,-2.5329,-2.6454,-2.7283,-2.8129,-2.9125,-2.8984,-2.8622,-2.8279,-2.7676,-2.6997,-2.6306,-2.677,-2.7065,-2.6927,-2.8414,-2.9899,-3.122,-3.2595,-3.3548,-3.3934,-3.5191,-3.5911,-3.6088,-3.5909,-3.5771,-3.5652,-3.3814,-3.301,-3.3185,-3.2525,-3.2678,-3.3476,-3.3307,-3.3604,-3.4203,-3.3948,-3.3455,-3.2871,-3.2871,-3.2615,-3.2329,-3.2749,-3.2637,-3.2241,0.0,0.0,0.0,0.0,0.0,0.0,0.0,0.0,0.0,0.0,0.0,0.0,0.0,0.0,0.0,0.0,0.0,0.0,0.0,0.0,0.0,-0.8828,-0.9024,-0.8704,-0.779,-0.9395,-1.0802,-1.1988,-1.2194,-1.2324,-1.2377,-1.3239,-1.3596,-1.3568,-1.3868,-1.402,-1.4071,-1.4357,-1.5083,-1.5973,-1.4929,-1.3902,-1.2945,-1.2518,0.0,0.0,0.0,0.0,0.0,-1.4351,-1.5135,-1.6265,-1.5928,-1.7766,-2.0069,-2.0187,-2.2344,-2.4982,-2.6471,-2.8569,-3.0835,-3.2933,-3.4003,-3.4644,-3.5056,-3.395,-3.2505,-3.1263,-2.8579,-2.6135,0.0,0.0,-2.3807,-2.4431,-2.5168,-2.6167,-2.7655,-2.7925,-2.8246,0.0,0.0,0.0,0.0,0.0,-2.8254,-2.7751,-2.9532,-3.1211,-3.25,-3.4001,-3.4775,-3.4632,-3.6746,-3.7544,-3.6802,-3.7362,-3.6936,-3.553,-3.4094,-3.3077,-3.2511,-3.3194,-3.3505,-3.3529,-3.425,-3.4925,-3.5459,-3.4801,-3.4174,-3.3544,-3.3499,-3.3604,-3.3737,-3.3588,-3.3631,-3.3699,0.0,0.0,0.0,0.0,0.0,0.0,0.0,0.0,0.0,0.0,0.0,0.0,0.0,0.0,0.0,0.0,0.0,0.0,0.0,0.0,0.0,0.0,0.0,0.0,0.0,0.0,0.0,-1.0304,-0.8855,-0.8933,-1.052,-1.1939,-1.2247,-1.1649,-1.2357,-1.2425,-1.2006,-1.2616,-1.2848,-1.2757,0.0,-1.1878,-1.1678,0.0,0.0,0.0,0.0,0.0,0.0,0.0,0.0,0.0,0.0,-1.9824,-2.1224,-2.2866,-2.5067,-2.7283,-2.8822,-3.1258,-3.3508,-3.4083,-3.4618,-3.4891,-3.4421,-3.3195,-3.1493,-2.9087,-2.6405,-2.4318,0.0,0.0,0.0,-2.448,-2.5749,0.0,-2.8485,-2.9634,0.0,-2.9914,0.0,-2.9051,-2.8428,-2.8925,-2.9639,-3.049,-3.1039,-3.1927,-3.3255,-3.5195,-3.5985,-3.5353,-3.6957,-3.7488,-3.6734,-3.5903,-3.5253,-3.4744,-3.2903,-3.2194,-3.2604,-3.3318,-3.3592,-3.356,-3.4805,-3.5368,-3.5489,-3.531,-3.4846,-3.4219,-3.3694,-3.3908,-3.4372,-3.3803,-3.4298,-3.5229,0.0,0.0,0.0,0.0,0.0,0.0,0.0,0.0,0.0,0.0,0.0,0.0,0.0,0.0,0.0,0.0,0.0,0.0,0.0,0.0,0.0,0.0,0.0,0.0,0.0,0.0,0.0,0.0,0.0,0.0,-0.9941,-1.0792,-1.093,-1.0473,-1.0968,-1.1001,-1.0709,-1.1118,0.0,0.0,0.0,0.0,0.0,0.0,0.0,0.0,0.0,0.0,0.0,0.0,0.0,-1.9097,-2.0548,-2.1989,-2.3494,-2.5389,0.0,-3.004,-3.1241,-3.3407,-3.5245,-3.4903,-3.4875,-3.4642,-3.3371,-3.162,-2.9587,-2.7197,-2.4953,0.0,-2.2307,-2.1563,0.0,0.0,0.0,0.0,-2.8213,-2.977,-3.0603,0.0,-3.0558,0.0,-2.9425,-3.0302,-3.1484,-3.2862,-3.2665,-3.321,-3.4908,-3.6441,-3.6909,-3.6101,-3.7511,-3.7757,-3.6679,-3.593,-3.5355,-3.4931,-3.3808,-3.336,-3.3511,-3.4197,-3.4522,-3.4502,-3.5225,-3.5707,-3.5943,-3.5636,-3.51,-3.4503,-3.4397,-3.4911,-3.5543,-3.4754,-3.5454,-3.6662,0.0,0.0,0.0,0.0,0.0,0.0,0.0,0.0,0.0,0.0,0.0,0.0,0.0,0.0,0.0,0.0,0.0,0.0,0.0,0.0,0.0,0.0,0.0,0.0,0.0,0.0,0.0,0.0,0.0,0.0,0.0,0.0,0.0,0.0,0.0,0.0,0.0,0.0,0.0,0.0,0.0,0.0,0.0,0.0,0.0,0.0,0.0,0.0,0.0,0.0,-1.8735,-2.0233,-2.2078,-2.4179,-2.6283,-2.7807,-3.0176,-3.2479,-3.3322,-3.4949,-3.6222,-3.5402,-3.4839,-3.3966,-3.2017,-2.9629,-2.7278,-2.5322,0.0,-2.23,-2.1077,-2.1387,-2.2001,-2.2467,0.0,-2.5406,-2.7638,-2.9176,-3.0146,-3.03,-3.1506,-3.1874,-3.0624,-3.1866,-3.3286,-3.4606,-3.4288,-3.4897,-3.6844,-3.755,-3.7569,-3.6862,-3.7894,-3.7812,-3.6476,-3.6326,-3.5962,-3.5388,-3.5268,-3.4926,-3.4494,-3.5254,-3.5642,-3.5715,-3.5765,-3.6175,-3.6707,-3.5943,-3.5386,-3.4983,-3.5369,-3.6029,-3.6705,-3.5925,-3.6637,-3.781,0.0,0.0,0.0,0.0,0.0,0.0,0.0,0.0,0.0,0.0,0.0,0.0,0.0,0.0,0.0,0.0,0.0,0.0,0.0,0.0,0.0,0.0,0.0,0.0,0.0,0.0,0.0,-0.885,-0.9431,0.0,0.0,0.0,0.0,0.0,0.0,0.0,0.0,0.0,0.0,0.0,0.0,0.0,0.0,0.0,0.0,0.0,0.0,0.0,0.0,0.0,-1.9804,-2.3262,-2.423,-2.6139,-2.8334,-3.0104,-3.1413,-3.2598,-3.3931,-3.5322,-3.6222,-3.5402,-3.4287,-3.2768,-3.0445,-2.784,0.0,0.0,-2.1639,-2.0871,-2.0603,-2.0813,-2.1649,-2.3557,0.0,0.0,0.0,-2.955,-3.0172,0.0,-3.1118,-3.1284,-3.0585,-3.2342,-3.3826,-3.4654,-3.5659,-3.668,-3.7655,-3.7838,-3.7802,-3.7626,-3.6615,-3.5952,-3.5674,-3.4607,-3.4289,-3.4748,-3.3633,-3.3345,-3.3816,-3.5101,-3.5694,-3.5769,-3.6913,-3.7487,-3.7544,-3.6753,-3.6736,-3.7117,-3.6009,-3.607,-3.6713,-3.5955,-3.6682,-3.7945,0.0,0.0,0.0,0.0,0.0,0.0,0.0,0.0,0.0,0.0,0.0,0.0,0.0,0.0,0.0,0.0,0.0,0.0,0.0,0.0,0.0,0.0,0.0,0.0,0.0,-0.9437,-0.9625,-0.9639,0.0,-0.9889,-1.0058,-1.0052,-1.0072,-1.0096,-1.0107,-1.0135,0.0,0.0,0.0,-1.0187,-1.0111,-1.0043,0.0,0.0,0.0,0.0,0.0,0.0,0.0,0.0,-1.8915,-2.2239,-2.4599,-2.6908,-2.9122,-3.1219,-3.2638,-3.3783,-3.4926,-3.6173,-3.6891,-3.5668,-3.4098,-3.2088,-2.9257,0.0,0.0,0.0,-2.0786,-2.047,-2.0316,0.0,0.0,0.0,0.0,0.0,0.0,0.0,0.0,-3.025,-3.1332,-3.1926,-3.1617,-3.316,-3.4472,-3.5168,-3.6199,-3.7297,-3.8406,-3.8439,-3.8233,-3.7819,-3.7101,-3.6491,-3.6074,-3.5459,-3.5338,-3.5685,-3.5089,-3.4963,-3.5291,-3.637,-3.7037,-3.7428,-3.7679,-3.7791,-3.7764,-3.7397,-3.7219,-3.7142,-3.6841,-3.6978,-3.7279,-3.6908,-3.7491,-3.8464,0.0,0.0,0.0,0.0,0.0,0.0,0.0,0.0,0.0,0.0,0.0,0.0,0.0,0.0,0.0,0.0,0.0,0.0,0.0,0.0,0.0,0.0,0.0,0.0,0.0,0.0,0.0,-0.965,-0.9622,0.0,0.0,0.0,0.0,0.0,-1.0182,-1.0196,-1.0207,-1.0205,0.0,0.0,0.0,-0.9901,0.0,0.0,0.0,0.0,0.0,0.0,0.0,0.0,-1.7221,-1.9741,-2.3344,-2.6248,-2.8691,-3.076,-3.2718,-3.4412,-3.5383,-3.6756,-3.7514,-3.5894,-3.392,-3.1513,-2.8282,-2.5052,0.0,0.0,-2.0236,-2.0162,-1.9903,0.0,-2.1216,0.0,-2.2501,0.0,0.0,0.0,0.0,0.0,-3.1625,0.0,-3.26,-3.3958,-3.5078,-3.5671,-3.6678,-3.7794,-3.8937,-3.8933,-3.8635,-3.8064,-3.7892,-3.7494,-3.6849,-3.6777,-3.6636,-3.6494,-3.6692,-3.6727,-3.6585,-3.7503,-3.8311,-3.8963,-3.8152,-3.7902,-3.8035,-3.7867,-3.7537,-3.716,-3.7626,-3.771,-3.7603,-3.7758,-3.8066,-3.8514,0.0,0.0,0.0,0.0,0.0,0.0,0.0,0.0,0.0,0.0,0.0,0.0,0.0,0.0,0.0,0.0,0.0,0.0,0.0,0.0,0.0,0.0,0.0,0.0,0.0,0.0,0.0,-0.9788,-0.9066,0.0,0.0,0.0,0.0,0.0,0.0,-1.021,-1.0195,-1.0193,0.0,0.0,0.0,0.0,0.0,0.0,0.0,0.0,0.0,0.0,0.0,0.0,0.0,-1.7005,-1.9687,-2.3219,-2.6579,-2.7723,0.0,0.0,-3.4412,-3.6327,-3.7514,-3.5894,-3.3484,-3.0668,-2.7438,0.0,0.0,-1.9756,-1.9407,-1.9355,-1.9135,-2.0042,-2.099,-2.1515,0.0,-2.4086,0.0,0.0,0.0,0.0,0.0,0.0,-3.2577,-3.4415,-3.5638,-3.5704,-3.7617,-3.8853,-3.8988,-3.8933,-3.8881,-3.8799,-3.8149,-3.7758,-3.7687,-3.709,-3.6443,-3.5795,-3.6472,-3.6447,-3.5836,-3.7254,-3.8311,-3.8954,-3.8205,-3.8274,-3.8832,-3.81,-3.8195,-3.8706,-3.8047,-3.7434,-3.6954,-3.7578,-3.747,-3.7176,0.0,0.0,0.0,0.0,0.0,0.0,0.0,0.0,0.0,0.0,0.0,0.0,0.0,0.0,0.0,0.0,0.0,0.0,0.0,0.0,0.0,0.0,0.0,0.0,0.0,0.0,-0.8906,-0.9267,-0.9351,0.0,0.0,0.0,0.0,0.0,0.0,-0.9679,-1.0152,-0.9593,0.0,0.0,0.0,0.0,0.0,0.0,0.0,0.0,0.0,0.0,0.0,0.0,0.0,0.0,-1.6429,-1.9112,0.0,0.0,-2.8623,-3.1422,-3.3008,-3.5151,-3.6526,-3.4903,-3.219,-2.9237,-2.6502,0.0,-2.0684,-1.9536,-1.9297,-1.9366,-1.9623,-1.9927,-2.0451,-2.1342,0.0,0.0,-2.4391,0.0,0.0,0.0,-3.0763,0.0,0.0,-3.5152,-3.5844,-3.6336,-3.7576,-3.8531,-3.8971,-3.9396,-3.9211,-3.8255,-3.8431,-3.8084,-3.7143,-3.691,-3.6638,-3.637,-3.7107,-3.7308,-3.7056,-3.8089,-3.8954,-3.958,-3.7936,-3.7894,-3.8892,-3.82,-3.8318,-3.8916,-3.8592,-3.829,-3.8084,-3.8372,-3.8291,-3.8237,0.0,0.0,0.0,0.0,0.0,0.0,0.0,0.0,0.0,0.0,0.0,0.0,0.0,0.0,0.0,0.0,0.0,0.0,0.0,0.0,0.0,0.0,0.0,0.0,0.0,0.0,-0.8957,-0.9253,-0.9503,-0.9766,0.0,0.0,-0.9943,-0.9949,0.0,0.0,0.0,0.0,0.0,0.0,0.0,0.0,0.0,0.0,0.0,0.0,0.0,0.0,0.0,0.0,0.0,0.0,0.0,0.0,0.0,0.0,-2.6321,-2.9494,-3.1097,-3.333,-3.4871,-3.344,-3.0852,-2.8007,0.0,0.0,-2.0288,-1.9531,-1.9335,-1.9481,-2.0073,-2.0092,-2.0367,-2.1366,0.0,-2.1316,-2.3139,0.0,0.0,0.0,0.0,-3.1471,-3.4648,-3.5549,-3.618,-3.6761,-3.7686,-3.8447,-3.8954,-3.9706,-3.9598,-3.8489,-3.8824,-3.8479,-3.7393,-3.7194,-3.7134,-3.7134,-3.7652,-3.8024,-3.8244,-3.8751,-3.9276,-3.9681,-3.7903,-3.7693,-3.8539,-3.7893,-3.8142,-3.892,-3.8665,-3.87,-3.8908,-3.8908,-3.8908,-3.9032,0.0,0.0,0.0,0.0,0.0,0.0,0.0,0.0,0.0,0.0,0.0,0.0,0.0,0.0,0.0,0.0,0.0,0.0,0.0,0.0,0.0,0.0,0.0,0.0,0.0,0.0,-0.9214,-1.0096,-0.9355,-0.9309,-0.9898,-1.0105,-1.0087,-0.9917,0.0,0.0,0.0,0.0,0.0,0.0,0.0,0.0,0.0,0.0,0.0,0.0,0.0,0.0,0.0,0.0,0.0,0.0,0.0,0.0,0.0,0.0,-2.2929,-2.6987,-2.8601,-3.0803,-3.2436,-3.1635,-2.9597,-2.7181,0.0,-2.229,-2.0328,-1.9715,-1.9449,-1.9517,-2.027,-2.0612,-2.0965,-2.1508,-2.1981,0.0,-2.3291,-2.4646,0.0,0.0,0.0,-3.0968,-3.322,-3.5453,-3.6795,-3.6795,-3.8166,-3.8988,-3.8988,-3.9706,-4.0096,-4.0096,-3.9377,-3.8988,-3.8988,-3.8261,-3.7889,-3.7889,-3.7905,-3.8278,-3.8988,-3.8988,-3.8988,-3.8954,-3.8227,-3.7898,-3.7848,-3.711,-3.7669,-3.8914,-3.8122,-3.8272,-3.8908,-3.8908,-3.8908,-3.9032,0.0,0.0,0.0,0.0,0.0,0.0,0.0,0.0,0.0,0.0,0.0,0.0,0.0,0.0,0.0,0.0,0.0,0.0,0.0,0.0,0.0,0.0,0.0,0.0,0.0,0.0,-0.8971,-0.9339,-0.9487,-0.9649,-0.9831,-0.9657,-0.9625,-0.9663,-0.9046,-0.9158,0.0,0.0,0.0,0.0,0.0,0.0,0.0,0.0,0.0,0.0,0.0,0.0,0.0,0.0,0.0,0.0,0.0,0.0,0.0,0.0,0.0,0.0,-2.5459,-2.709,-2.8319,-2.7504,-2.5897,-2.419,-2.2859,-2.1078,-1.9625,-1.9427,-1.9342,-1.9481,-2.0082,-2.0529,-2.096,-2.1448,-2.1958,0.0,0.0,0.0,0.0,-2.8315,-3.1732,-3.4129,-3.4839,-3.5571,-3.5994,-3.5994,-3.7398,-3.8024,-3.7523,-3.8667,-3.9106,-3.8616,-3.8379,-3.7736,-3.6681,-3.6428,-3.6326,-3.6326,-3.6891,-3.7533,-3.8227,-3.7719,-3.779,-3.8184,-3.5932,-3.5786,-3.7062,-3.5867,-3.6812,-3.8939,-3.8105,-3.8579,-3.9662,-3.9113,-3.9262,-3.9756,0.0,0.0,0.0,0.0,0.0,0.0,0.0,0.0,0.0,0.0,0.0,0.0,0.0,0.0,0.0,0.0,0.0,0.0,0.0,0.0,0.0,0.0,0.0,0.0,0.0,-0.8771,-0.9191,-0.9219,-0.9667,-0.983,-0.9713,-0.9481,-0.9363,-0.9318,-0.8863,-0.9017,0.0,0.0,0.0,0.0,0.0,0.0,-0.8604,0.0,0.0,0.0,0.0,0.0,0.0,0.0,0.0,0.0,0.0,0.0,0.0,0.0,-1.9014,-2.1708,0.0,-2.4321,-2.5197,-2.469,-2.3584,0.0,0.0,-2.027,-1.932,-1.9405,-1.935,-1.9531,-2.0228,-2.0608,-2.0993,-2.158,-2.2121,0.0,0.0,0.0,0.0,-2.9061,0.0,-3.4771,-3.4771,-3.5261,-3.56,-3.56,-3.6772,-3.728,-3.6829,-3.7922,-3.8244,-3.7499,-3.7483,-3.7026,-3.6062,-3.5752,-3.5752,-3.6062,-3.6248,-3.6891,-3.7872,-3.7151,-3.7074,-3.7436,-3.5322,-3.5316,0.0,-3.5558,-3.6645,-3.8963,-3.8446,-3.9,-4.0045,-3.9558,-3.9662,-4.0096,0.0,0.0,0.0,0.0,0.0,0.0,0.0,0.0,0.0,0.0,0.0,0.0,0.0,0.0,0.0,0.0,0.0,0.0,0.0,0.0,0.0,0.0,0.0,0.0,0.0,-0.9382,-0.9724,-0.9626,-0.9858,-0.985,-0.9617,-0.9525,-0.9287,-0.8962,-0.9367,-0.9469,-0.9265,-0.8183,-0.7866,-0.8028,-0.7341,-0.7606,0.0,0.0,0.0,0.0,0.0,0.0,0.0,0.0,0.0,0.0,0.0,0.0,0.0,0.0,0.0,0.0,0.0,-2.2287,0.0,0.0,0.0,0.0,-2.0649,-1.9871,0.0,-1.9562,-1.9456,-1.963,-2.06,-2.0798,-2.107,-2.191,-2.2408,0.0,0.0,-2.4709,0.0,0.0,-3.2154,-3.3508,-3.338,-3.4726,-3.56,-3.56,-3.6349,-3.6778,-3.6728,-3.7415,-3.7483,-3.6745,-3.6711,-3.6711,-3.6711,-3.5977,-3.5994,-3.6711,-3.596,-3.6377,-3.7804,-3.7043,-3.6721,-3.6686,-3.5941,-3.6046,-3.6662,-3.5983,-3.6995,-3.8988,-3.8988,-3.9445,-4.0096,-4.0096,-4.0096,-4.0096,0.0,0.0,0.0,0.0,0.0,0.0,0.0,0.0,0.0,0.0,0.0,0.0,0.0,0.0,0.0,0.0,0.0,0.0,0.0,0.0,0.0,0.0,0.0,0.0,0.0,-0.9625,-0.9709,-0.9838,-0.9782,-0.9782,-0.9824,-0.9452,-0.9323,-0.9419,-0.9181,-0.8912,-0.86,-0.8194,-0.7991,-0.7948,-0.7867,-0.8073,0.0,0.0,0.0,0.0,-0.9839,-1.0001,0.0,0.0,0.0,0.0,0.0,0.0,0.0,0.0,-1.6839,-1.7831,-1.9012,0.0,-1.9302,-1.9302,-1.927,-1.9347,0.0,0.0,-1.967,0.0,0.0,0.0,-2.0433,-2.0704,-2.1146,-2.221,0.0,0.0,-2.3443,0.0,0.0,-3.0311,-3.3165,-3.4529,-3.3083,-3.4538,-3.56,-3.56,-3.6349,-3.6518,-3.5904,-3.662,-3.6688,-3.591,-3.5893,-3.5893,-3.5893,-3.5684,-3.5684,-3.5893,-3.5684,-3.6113,-3.7032,-3.6248,-3.591,-3.5925,-3.5184,-3.529,-3.5958,-3.5754,-3.6995,-3.8988,-3.8988,-3.9445,-4.0096,-4.0096,-4.0096,-4.0096,0.0,0.0,0.0,0.0,0.0,0.0,0.0,0.0,0.0,0.0,0.0,0.0,0.0,0.0,0.0,0.0,0.0,0.0,0.0,0.0,0.0,0.0,0.0,-0.8773,-0.9237,-0.9566,-0.9744,-0.9757,-0.9807,-0.9898,-0.9977,-0.9666,-0.9508,-0.9447,-0.9009,-0.8712,-0.8507,-0.7957,-0.7832,-0.7973,-0.7706,0.0,0.0,0.0,0.0,0.0,-0.9903,-1.0072,0.0,-1.0713,-1.1585,-1.2603,0.0,0.0,0.0,0.0,-1.6214,-1.6796,-1.6763,-1.7806,-1.8874,-1.8804,-1.8859,-1.9062,-1.9503,0.0,0.0,0.0,0.0,0.0,0.0,0.0,0.0,0.0,-2.2923,0.0,0.0,0.0,-2.9206,-3.0922,-3.3185,-3.4542,-3.4453,-3.5138,-3.56,-3.56,-3.6011,-3.6062,-3.5616,-3.569,-3.569,-3.56,-3.5261,-3.5267,-3.56,-3.56,-3.56,-3.56,-3.56,-3.5842,-3.6231,-3.5785,-3.562,-3.5595,-3.4918,-3.4991,-3.5661,-3.5695,-3.6811,-3.8531,-3.887,-3.9445,-4.0096,-4.0096,-4.0096,-4.0096,0.0,0.0,0.0,0.0,0.0,0.0,0.0,0.0,0.0,0.0,0.0,0.0,0.0,0.0,0.0,0.0,0.0,0.0,0.0,0.0,0.0,0.0,0.0,-0.8679,-0.8709,-0.9459,-0.9779,-0.9644,-0.9896,-1.0056,-1.0108,-0.9933,-0.9639,-0.9224,-0.8907,-0.8753,-0.8638,-0.7812,-0.7736,-0.8098,-0.749,0.0,0.0,0.0,0.0,0.0,0.0,0.0,0.0,-1.0197,-1.1052,-1.2292,-1.3261,0.0,0.0,0.0,0.0,0.0,-1.5485,-1.7412,-1.9536,-1.9267,-1.9296,-1.9447,-1.957,0.0,0.0,0.0,0.0,0.0,0.0,0.0,0.0,0.0,0.0,0.0,-2.6565,-2.7213,-2.8629,-3.153,-3.2969,-3.4295,-3.5707,-3.5693,-3.56,-3.56,-3.56,-3.5549,-3.543,-3.4844,-3.4726,-3.5245,-3.4658,-3.4692,-3.5414,-3.5532,-3.56,-3.56,-3.56,-3.56,-3.56,-3.56,-3.56,-3.5577,-3.4988,-3.5142,-3.5797,-3.5854,-3.6668,-3.7973,-3.87,-3.9377,-3.996,-4.0062,-4.0096,-4.0096,0.0,0.0,0.0,0.0,0.0,0.0,0.0,0.0,0.0,0.0,0.0,0.0,0.0,0.0,0.0,0.0,0.0,0.0,0.0,0.0,0.0,0.0,-0.8378,-0.8892,-0.9663,-0.9662,-0.9715,-0.985,-1.0001,-1.0128,-1.0175,-0.9811,-0.9411,-0.8967,-0.9081,-0.8964,-0.8671,-0.8373,-0.8278,-0.8351,-0.8406,0.0,0.0,0.0,0.0,0.0,0.0,0.0,0.0,-1.018,-1.1295,-1.2713,-1.2871,0.0,0.0,0.0,0.0,0.0,-1.7869,-1.8438,-1.8474,-1.755,-1.7954,-1.8758,-1.9447,0.0,0.0,0.0,0.0,0.0,0.0,-2.1988,-2.265,0.0,0.0,-2.7084,0.0,-3.0761,-3.1499,-3.171,-3.3805,-3.4759,-3.3481,-3.4725,-3.56,-3.56,-3.56,-3.5329,-3.4692,-3.4556,-3.4269,-3.3761,-3.3643,-3.3931,-3.4658,-3.5301,-3.56,-3.56,-3.56,-3.56,-3.56,-3.56,-3.56,-3.56,-3.5492,-3.5886,-3.6603,-3.6629,-3.7141,-3.7973,-3.87,-3.9056,-3.9225,-3.9876,-4.0096,-4.0096,0.0,0.0,0.0,0.0,0.0,0.0,0.0,0.0,0.0,0.0,0.0,0.0,0.0,0.0,0.0,0.0,0.0,0.0,0.0,0.0,0.0,-0.6191,-0.7367,-0.8599,-0.9982,-0.9956,-0.9935,-0.9961,-1.0094,-1.0193,-1.0232,-0.9812,-0.8824,-0.7489,-0.8595,-0.8989,-0.88,-0.8589,-0.8532,-0.8561,0.0,0.0,0.0,0.0,0.0,0.0,0.0,0.0,0.0,0.0,-1.1111,-1.2424,-1.3079,0.0,0.0,0.0,0.0,0.0,-1.7381,-1.7695,-1.7826,-1.7262,-1.8012,-1.9133,-2.0034,0.0,0.0,0.0,0.0,0.0,0.0,0.0,-2.3804,-2.5811,0.0,-2.7219,-2.8818,-2.9525,-3.0211,-3.1113,-3.2744,-3.3747,-3.3561,-3.4448,-3.4844,-3.4433,-3.4399,-3.4269,-3.3931,-3.3525,-3.3339,-3.3406,-3.3,-3.3152,-3.3897,-3.4641,-3.5216,-3.56,-3.56,-3.56,-3.56,-3.56,-3.56,-3.56,-3.56,-3.5825,-3.6146,-3.6146,-3.6603,-3.7381,-3.8108,-3.865,-3.9039,-3.9377,-3.952,-3.952,0.0,0.0,0.0,0.0,0.0,0.0,0.0,0.0,0.0,0.0,0.0,0.0,0.0,0.0,0.0,0.0,0.0,0.0,0.0,0.0,-0.3706,-0.5034,-0.6797,-0.8492,-1.0084,-1.0138,-1.0124,-1.0041,-0.9353,-0.9022,-0.9082,-0.9477,-0.8705,-0.701,-0.8452,-0.9054,-0.899,-0.8796,-0.8767,-0.8818,0.0,0.0,0.0,0.0,0.0,0.0,0.0,0.0,0.0,0.0,0.0,0.0,0.0,0.0,0.0,-1.6891,-1.7136,-1.7397,-1.7267,-1.7214,-1.7259,-1.7572,-1.8354,-1.9376,-2.0522,-2.0565,0.0,0.0,0.0,0.0,0.0,-2.3425,0.0,-2.7144,-2.7197,-2.7333,-2.8451,-2.8601,-2.9308,-3.118,-3.2076,-3.2931,-3.3916,-3.4154,-3.4015,-3.344,-3.3406,-3.3322,-3.3152,-3.2615,-3.2479,-3.2882,-3.2324,-3.2412,-3.3136,-3.3694,-3.4438,-3.5329,-3.5515,-3.56,-3.56,-3.56,-3.56,-3.56,-3.56,-3.5701,-3.5893,-3.5893,-3.6231,-3.688,-3.7618,-3.8261,-3.8734,-3.8734,-3.8853,-3.8988,0.0,0.0,0.0,0.0,0.0,0.0,0.0,0.0,0.0,0.0,0.0,0.0,0.0,0.0,0.0,0.0,0.0,0.0,0.0,0.0,-0.4966,-0.5088,-0.724,-0.8975,-1.0161,-1.0083,-1.0064,-1.0191,-0.7027,-0.5461,-0.5547,-0.8502,-0.9616,-0.918,-0.931,-0.9345,-0.9252,-0.9119,-0.9134,-0.9237,-0.9104,0.0,0.0,0.0,0.0,0.0,0.0,0.0,0.0,0.0,0.0,0.0,0.0,0.0,-1.6765,-1.7508,-1.7178,-1.7099,-1.9396,-1.8143,-1.6607,-1.826,-1.8525,0.0,-2.0431,-2.0636,0.0,-2.1602,0.0,0.0,0.0,-2.4234,-2.559,-2.6525,-2.7281,-2.8483,-3.0662,-3.0954,-3.1532,-3.3025,-3.3275,-3.3359,-3.3452,-3.3478,-3.3457,-3.3406,-3.3406,-3.3102,-3.2412,-3.2327,-3.2005,-3.1376,-3.1309,-3.1613,-3.2378,-3.2429,-3.3173,-3.459,-3.5261,-3.56,-3.56,-3.56,-3.56,-3.56,-3.56,-3.6028,-3.6711,-3.6711,-3.6745,-3.688,-3.7618,-3.7939,-3.799,-3.799,-3.8413,-3.8988,0.0,0.0,0.0,0.0,0.0,0.0,0.0,0.0,0.0,0.0,0.0,0.0,0.0,0.0,0.0,0.0,0.0,0.0,0.0,0.0,-0.6038,-0.8115,-0.5996,-0.5469,-0.6998,-0.9064,-1.0133,-1.0145,-0.462,-0.4134,-0.832,-0.7369,-0.79,-0.965,-0.97,-0.9602,-0.9417,-0.9415,-0.9385,-0.9345,-0.9266,-0.9345,0.0,0.0,0.0,0.0,0.0,0.0,0.0,0.0,-1.2275,-1.3625,-1.3915,-1.5193,-1.6658,-1.6967,-1.715,-1.7468,-1.8427,-1.7915,-1.7386,-1.8612,-1.8678,0.0,0.0,-2.0876,-2.1379,-2.2705,-2.384,0.0,0.0,0.0,-2.6639,-2.725,-2.8414,-2.9444,-3.0056,-3.0352,-3.0629,-3.0946,-3.1817,-3.1961,-3.0789,-3.1478,-3.1647,-3.0717,-3.0649,-3.055,-3.0262,-3.0245,-3.033,-3.0514,-3.0057,-3.0415,-3.1616,-3.1633,-3.2141,-3.3156,-3.4336,-3.4912,-3.4928,-3.538,-3.56,-3.56,-3.56,-3.5769,-3.6062,-3.6062,-3.6062,-3.6129,-3.6907,-3.7235,-3.7263,-3.7736,-3.8091,-3.8328,0.0,0.0,0.0,0.0,0.0,0.0,0.0,0.0,0.0,0.0,0.0,0.0,0.0,0.0,0.0,0.0,0.0,0.0,0.0,-0.2193,-0.5462,-0.9902,-0.6753,-0.5456,-0.6655,-0.9021,-0.9673,-0.8524,-0.2803,-0.351,-1.02,-0.783,-0.7866,-0.9862,-0.9901,-0.9827,-0.9653,-0.9664,-0.962,-0.9555,-0.9478,-0.9558,0.0,0.0,0.0,0.0,0.0,0.0,0.0,0.0,-1.2664,-1.407,-1.4338,-1.5428,-1.6601,-1.6567,-1.7076,-1.7711,-1.8012,-1.7845,-1.7788,-1.8705,0.0,0.0,-2.0354,-2.1291,-2.2285,-2.3902,-2.4931,-2.5601,-2.5832,0.0,-2.6969,-2.7051,-2.846,-2.9468,-2.9191,-2.95,-2.9683,-2.9504,-3.0543,-3.068,-2.9149,-3.0002,-3.019,-2.9077,-2.8993,-2.8993,-2.8993,-2.8993,-2.923,-2.9736,-2.9482,-2.982,-3.0835,-3.1072,-3.1444,-3.1972,-3.3224,-3.3914,-3.4184,-3.4928,-3.5245,-3.5261,-3.5498,-3.5735,-3.5994,-3.5994,-3.5994,-3.6011,-3.6299,-3.6417,-3.6468,-3.6992,-3.733,-3.755,0.0,0.0,0.0,0.0,0.0,0.0,0.0,0.0,0.0,0.0,0.0,0.0,0.0,0.0,0.0,0.0,0.0,0.0,0.0,-0.0055,-0.3092,-0.9804,-1.0092,-1.0092,-1.0094,-1.0235,-0.8574,-0.5059,-0.1719,-0.3519,-1.0062,-1.0219,-1.0193,-0.9999,-0.9996,-0.9998,-0.9994,-0.9862,-0.9837,-0.9892,-0.9828,-0.9881,-0.9997,0.0,0.0,0.0,0.0,0.0,0.0,0.0,-1.3067,-1.4052,-1.4994,-1.5895,-1.6576,-1.651,-1.6955,-1.7719,-1.8716,-1.8162,-1.7567,0.0,0.0,0.0,-2.0351,-2.1896,-2.3456,-2.5081,-2.5411,-2.5411,-2.5411,-2.6062,-2.6369,-2.563,-2.712,-2.8389,-2.8405,-2.8726,-2.9114,-2.9451,-2.985,-2.9803,-2.9049,-2.9299,-2.9351,-2.9012,-2.8976,-2.8976,-2.8976,-2.8976,-2.8976,-2.8993,-2.9685,-3.0074,-3.0091,-3.0801,-3.1157,-3.119,-3.1938,-3.2662,-3.3423,-3.415,-3.4472,-3.4523,-3.5261,-3.6045,-3.6778,-3.6778,-3.6778,-3.6711,-3.5904,-3.56,-3.56,-3.56,-3.6129,-3.6795,0.0,0.0,0.0,0.0,0.0,0.0,0.0,0.0,0.0,0.0,0.0,0.0,0.0,0.0,0.0,0.0,0.0,0.0,0.0,-0.4281,-0.7712,-0.9731,-0.9828,-0.9891,-1.0033,-1.0216,-0.7422,-0.1504,-0.5264,-0.6919,-0.6639,-0.909,-1.0195,-1.0146,-1.0131,-1.0132,-1.0126,-1.0051,-1.0015,-1.0028,-0.9913,-0.9955,-1.0066,0.0,0.0,0.0,0.0,0.0,0.0,0.0,0.0,0.0,-1.5015,-1.5488,-1.5679,-1.5668,-1.6198,-1.6982,-1.7843,-1.8212,0.0,-1.9426,0.0,0.0,0.0,-2.1902,0.0,0.0,-2.6245,-2.641,-2.699,-2.6814,-2.6629,-2.6698,-2.694,-2.7434,-2.8286,-2.8255,-2.8308,-2.8673,-2.9322,-2.9351,-2.8327,-2.8074,-2.7915,-2.7819,-2.7061,-2.6826,-2.7351,-2.7368,-2.7621,-2.8128,-2.7858,-2.823,-2.9331,-2.8991,-2.9093,-2.967,-3.0395,-3.141,-3.2666,-3.3389,-3.3728,-3.3778,-3.4506,-3.4675,-3.4455,-3.4962,-3.5487,-3.5943,-3.5684,-3.56,-3.5667,-3.6231,-3.6609,-3.6795,0.0,0.0,0.0,0.0,0.0,0.0,0.0,0.0,0.0,0.0,0.0,0.0,0.0,0.0,0.0,0.0,0.0,0.0,0.0,-0.3675,-0.7001,-0.9592,-0.9702,-0.984,-1.0114,-1.0247,-0.7578,-0.2031,-0.7441,-0.908,-0.7172,-0.9235,-1.02,-1.0193,-1.0234,-1.0248,-1.0278,-1.0679,-1.0572,-1.0168,-1.0422,-1.0382,-1.0147,0.0,0.0,0.0,0.0,0.0,0.0,0.0,0.0,0.0,-1.5021,0.0,-1.5391,-1.5712,-1.6346,-1.7138,-1.8011,-1.8766,0.0,-2.0313,-2.0933,-2.154,-2.2245,0.0,0.0,0.0,-2.6355,-2.6264,-2.677,-2.6458,-2.614,-2.623,-2.6461,-2.6805,-2.738,-2.7383,-2.7364,-2.744,-2.802,-2.8016,-2.7044,-2.6848,-2.6675,-2.6417,-2.5747,-2.5632,-2.6234,-2.6251,-2.6607,-2.7334,-2.7232,-2.7588,-2.8518,-2.8366,-2.8518,-2.901,-2.9753,-3.0565,-3.1464,-3.2493,-3.2949,-3.3,-3.3744,-3.3812,-3.344,-3.388,-3.4506,-3.5165,-3.5165,-3.5329,-3.565,-3.6146,-3.6315,-3.6315,0.0,0.0,0.0,0.0,0.0,0.0,0.0,0.0,0.0,0.0,0.0,0.0,0.0,0.0,0.0,0.0,0.0,0.0,0.0,0.0,-0.2646,-0.8563,-0.939,-0.9736,-0.9802,-1.0137,-0.875,-0.5566,-0.8609,-1.0138,-1.021,-1.0206,-1.0205,-1.0193,-1.015,-1.0156,-1.0234,-1.1523,-1.1444,-1.0501,-1.1302,-1.1157,-1.0456,-1.0432,0.0,0.0,0.0,0.0,0.0,0.0,0.0,0.0,-1.5036,-1.5351,-1.5548,-1.6288,-1.7033,-1.7828,-1.8734,0.0,0.0,-2.1,-2.1693,0.0,-2.2994,-2.4246,-2.5503,-2.6227,0.0,-2.5503,-2.5503,-2.5448,-2.5301,-2.5014,-2.575,-2.6304,-2.6085,-2.6301,-2.6377,-2.6091,-2.6373,-2.6329,-2.5669,-2.578,-2.5658,-2.5129,-2.4964,-2.5087,-2.552,-2.5523,-2.5845,-2.6573,-2.7249,-2.7638,-2.7705,-2.8416,-2.879,-2.8807,-2.955,-2.9886,-2.9937,-3.1478,-3.2242,-3.2327,-3.2933,-3.3288,-3.3406,-3.3339,-3.3728,-3.4404,-3.4472,-3.4878,-3.5414,-3.5481,-3.5447,-3.5397,0.0,0.0,0.0,0.0,0.0,0.0,0.0,0.0,0.0,0.0,0.0,0.0,0.0,0.0,0.0,0.0,0.0,0.0,0.0,0.0,-0.0625,-0.2021,-0.6983,-0.8542,-0.6041,-0.8815,-0.9901,-0.9109,-0.9828,-1.0192,-1.0208,-1.0205,-1.0206,-1.0151,-0.9333,-0.8965,-0.9121,-1.1641,-1.2559,-1.2324,-1.2477,-1.2437,-1.2302,-1.2264,-1.2244,0.0,0.0,0.0,0.0,0.0,0.0,0.0,-1.5034,-1.5348,-1.5432,-1.5604,-1.6682,-1.7883,0.0,-1.9103,0.0,0.0,-2.1214,-2.2427,-2.3849,-2.4321,-2.4502,-2.4685,-2.5585,-2.6337,-2.6337,-2.5833,-2.5574,-2.6114,-2.5369,-2.5142,-2.6315,-2.6002,-2.5858,-2.6406,-2.6551,-2.6541,-2.6381,-2.5624,-2.5319,-2.5743,-2.4761,-2.4441,-2.5082,-2.4882,-2.5067,-2.5812,-2.5981,-2.6353,-2.6928,-2.7097,-2.7182,-2.7199,-2.7942,-2.8297,-2.8365,-3.048,-3.1752,-3.2276,-3.187,-3.2324,-3.3372,-3.2784,-3.2966,-3.3694,-3.4269,-3.4235,-3.3926,-3.4523,-3.437,-3.3858,0.0,0.0,0.0,0.0,0.0,0.0,0.0,0.0,0.0,0.0,0.0,0.0,0.0,0.0,0.0,0.0,0.0,0.0,0.0,0.0,0.0,0.0,-0.3251,-0.5021,-0.4949,-0.6828,-0.8592,-1.0203,-1.0622,-1.0801,-1.0785,-1.0918,-1.0373,-0.9302,-0.851,-0.9217,-1.1125,-1.3202,-1.3477,-1.2519,-1.3163,-1.3378,-1.3242,-1.2964,-1.2838,-1.2786,-1.2687,0.0,0.0,0.0,0.0,0.0,0.0,0.0,-1.5483,-1.5905,-1.6613,-1.7455,0.0,0.0,0.0,-2.0453,0.0,-2.354,-2.3926,-2.4199,-2.4339,-2.4339,-2.4938,-2.5456,-2.5456,-2.5107,-2.497,-2.5383,-2.474,-2.4483,-2.5328,-2.5089,-2.4989,-2.5401,-2.5456,-2.5456,-2.5456,-2.4902,-2.4592,-2.4658,-2.3982,-2.3763,-2.4224,-2.4071,-2.4321,-2.505,-2.5067,-2.5253,-2.5642,-2.5659,-2.5812,-2.6184,-2.6928,-2.7672,-2.8433,-2.9973,-3.0683,-3.0719,-3.0683,-3.1106,-3.1799,-3.141,-3.1884,-3.2899,-3.3309,-3.3423,-3.3457,-3.3829,-3.3728,-3.3406,0.0,0.0,0.0,0.0,0.0,0.0,0.0,0.0,0.0,0.0,0.0,0.0,0.0,0.0,0.0,0.0,0.0,0.0,0.0,0.0,0.0,-0.1616,-0.1727,-0.2804,-0.5059,-0.5683,-0.746,-1.0492,-1.1172,-1.1676,0.0,-1.2067,-1.1096,-0.9275,-0.9306,-1.1138,-1.427,-1.521,-1.4531,-1.2891,-1.3926,-1.4199,-1.3945,-1.3496,-1.3299,-1.3233,-1.3181,-1.3191,-1.332,-1.3938,0.0,0.0,0.0,0.0,-1.5547,-1.6263,-1.655,-1.6937,0.0,0.0,0.0,-2.0881,-2.292,0.0,-2.37,-2.4046,-2.4503,-2.4503,-2.433,-2.419,-2.419,-2.419,-2.419,-2.419,-2.419,-2.419,-2.419,-2.419,-2.419,-2.419,-2.419,-2.419,-2.419,-2.419,-2.3976,-2.3414,-2.3323,-2.3307,-2.3369,-2.3303,-2.3602,-2.4288,-2.4305,-2.4423,-2.4694,-2.4694,-2.5,-2.5609,-2.6218,-2.725,-2.8637,-2.9364,-2.9448,-2.9027,-2.9651,-2.9922,-2.9922,-3.0057,-3.0818,-3.1955,-3.2209,-3.2615,-3.3034,-3.3169,-3.3136,-3.3034,0.0,0.0,0.0,0.0,0.0,0.0,0.0,0.0,0.0,0.0,0.0,0.0,0.0,0.0,0.0,0.0,0.0,0.0,-0.655,0.0,0.0,-0.8159,-0.8618,-0.7601,-0.5156,-0.8001,-1.0234,-1.1679,-1.1561,0.0,0.0,0.0,0.0,-1.2909,-1.4872,-1.6085,-1.6617,-1.6484,-1.6301,-1.6016,-1.5449,-1.5195,-1.5176,-1.5098,-1.5056,-1.5044,-1.5042,-1.5009,-1.4986,-1.5081,-1.5161,0.0,0.0,0.0,-1.543,-1.5547,-1.6093,-1.6738,0.0,0.0,0.0,0.0,-2.2153,-2.2993,0.0,0.0,-2.4503,-2.4503,-2.433,-2.419,-2.419,-2.419,-2.419,-2.419,-2.419,-2.419,-2.419,-2.419,-2.419,-2.419,-2.419,-2.419,-2.419,-2.419,-2.4161,-2.4074,-2.3795,-2.3513,-2.324,-2.2941,-2.3017,-2.3526,-2.3545,-2.4154,-2.5439,-2.5456,-2.5507,-2.5592,-2.571,-2.6184,-2.7029,-2.7756,-2.8433,-2.901,-2.9111,-2.9145,-2.9213,-2.9837,-3.0226,-3.0531,-3.1802,-3.1972,-3.1562,-3.2209,-3.2056,-3.1478,0.0,0.0,0.0,0.0,0.0,0.0,0.0,0.0,0.0,0.0,0.0,0.0,0.0,0.0,0.0,0.0,-0.2266,-0.3629,-0.3479,-0.1289,-0.2903,-0.9426,-1.1796,-1.1364,-0.7977,-1.0656,-1.1951,-1.1688,0.0,0.0,0.0,-1.5698,-1.5921,0.0,0.0,-1.6741,-1.6758,-1.6642,-1.6368,-1.6016,-1.6546,-1.6559,-1.6334,-1.6671,-1.6792,-1.6796,-1.6796,-1.6816,-1.6809,-1.6776,-1.6796,-1.6853,-1.6853,0.0,0.0,0.0,-1.6055,0.0,-1.7124,0.0,0.0,0.0,-2.1817,-2.2701,-2.2586,-2.3283,-2.3945,-2.3945,-2.4178,-2.4192,-2.363,-2.3896,-2.4043,-2.3602,-2.3914,-2.419,-2.419,-2.3804,-2.3694,-2.4153,-2.3804,-2.3694,-2.4153,-2.419,-2.4113,-2.3927,-2.3785,-2.3555,-2.3212,-2.2885,-2.2786,-2.3004,-2.2864,-2.3105,-2.3733,-2.375,-2.3968,-2.4374,-2.522,-2.5778,-2.6116,-2.686,-2.7385,-2.7723,-2.8146,-2.8332,-2.8399,-2.9161,-2.9736,-3.0226,-3.1258,-3.1478,-3.1263,-3.1827,-3.1819,-3.1545,0.0,0.0,0.0,0.0,0.0,0.0,0.0,0.0,0.0,0.0,0.0,0.0,0.0,0.0,0.0,0.0,-0.4249,-0.5933,-0.3554,-0.3404,-0.566,-1.07,-1.3208,-1.3305,-1.0778,-1.2321,-1.2793,-1.2024,0.0,0.0,-1.5371,-1.7159,-1.8007,0.0,-1.7373,-1.7084,0.0,0.0,-1.6881,-1.6436,-1.7401,-1.7563,-1.7253,-1.7695,-1.8011,-1.8185,-1.7952,-1.8046,-1.8233,-1.7961,-1.7915,-1.7948,-1.7713,-1.7363,0.0,0.0,0.0,0.0,0.0,0.0,-2.0192,-2.0363,-2.1517,-2.242,0.0,0.0,-2.3329,-2.3523,-2.3941,-2.4008,-2.3223,-2.3786,-2.4062,-2.3188,-2.3741,-2.4266,-2.4199,-2.3676,-2.3529,-2.4135,-2.3676,-2.3547,-2.4135,-2.419,-2.4094,-2.3855,-2.3827,-2.3682,-2.3346,-2.3009,-2.2797,-2.2708,-2.244,-2.2381,-2.2581,-2.2581,-2.2953,-2.3695,-2.4611,-2.5135,-2.5355,-2.6082,-2.642,-2.6454,-2.7198,-2.7621,-2.7858,-2.8671,-2.9313,-2.9905,-3.0835,-3.1152,-3.1136,-3.1627,-3.1879,-3.1951,0.0,0.0,0.0,0.0,0.0,0.0,0.0,0.0,0.0,0.0,0.0,0.0,-0.1586,-0.0687,0.0,0.0,-0.4806,-0.9217,-1.2493,-1.2702,-1.3171,-1.4214,-1.3163,0.0,-1.2373,-1.2111,-1.2483,0.0,0.0,0.0,-1.626,-1.7452,-1.8534,-1.948,-1.8918,-1.8684,-1.8691,0.0,0.0,0.0,0.0,-1.7781,-1.7764,-1.7785,-1.8327,-1.8926,-1.8094,-1.8349,-1.891,-1.8077,-1.7859,-1.7753,-1.6932,-1.726,-1.7617,0.0,0.0,0.0,0.0,-1.8529,0.0,-2.0198,0.0,0.0,0.0,0.0,-2.2858,-2.3631,-2.3657,-2.349,-2.3316,-2.4103,-2.4418,-2.3353,-2.3921,-2.4428,-2.4228,-2.4153,-2.4153,-2.419,-2.4153,-2.4153,-2.419,-2.419,-2.419,-2.417,-2.417,-2.4026,-2.3692,-2.3357,-2.3033,-2.2708,-2.244,-2.2649,-2.3342,-2.3342,-2.3712,-2.444,-2.3799,-2.3866,-2.4575,-2.5321,-2.5659,-2.571,-2.6437,-2.7165,-2.7858,-2.8671,-2.9027,-2.9196,-3.0632,-3.1005,-3.082,-3.153,-3.2074,-3.2401,0.0,0.0,0.0,0.0,0.0,0.0,0.0,0.0,0.0,0.0,0.0,0.0,0.0,-0.0955,-0.1724,-0.315,-0.828,-1.2184,-1.3995,-1.4107,-1.4295,-1.4737,-1.4266,-1.3557,-1.2581,-1.3421,-1.3795,0.0,0.0,-1.5569,-1.6645,-1.8135,-1.9032,-1.9379,-1.8843,-1.8678,-1.8805,-1.8873,0.0,0.0,-1.9097,-1.9103,-1.8755,-1.9826,-2.043,-2.0737,-2.0989,-2.0941,-2.0718,-2.0368,-1.9914,-1.9461,-1.9191,-1.895,-1.853,0.0,0.0,0.0,0.0,0.0,0.0,-1.9622,-2.0328,-2.0776,-2.0193,-2.0933,-2.1856,-2.2144,-2.2547,-2.2829,-2.2798,-2.3361,-2.3676,-2.3158,-2.3334,-2.3685,-2.4135,-2.3768,-2.3621,-2.4135,-2.3749,-2.3639,-2.4153,-2.419,-2.419,-2.419,-2.419,-2.4151,-2.4026,-2.3703,-2.3369,-2.3033,-2.273,-2.2597,-2.2699,-2.2699,-2.2835,-2.3088,-2.3291,-2.3528,-2.3848,-2.505,-2.5592,-2.5642,-2.6387,-2.6843,-2.7165,-2.7926,-2.823,-2.8418,-3.0189,-3.0817,-3.0855,-3.2199,-3.2809,-3.2872,0.0,0.0,0.0,0.0,0.0,0.0,0.0,0.0,0.0,-0.0604,0.0,0.0,0.0,0.0,-0.4739,-0.7137,-1.1062,-1.3606,-1.4101,-1.5584,-1.6536,-1.67,-1.638,-1.5433,-1.3873,-1.4609,-1.4625,0.0,0.0,0.0,0.0,-1.8562,-1.9297,-1.9268,-1.8572,-1.8581,0.0,0.0,-1.8654,-1.8633,-1.9697,-2.0005,-1.9969,-2.1082,-2.1879,-2.2488,-2.2759,-2.2717,-2.2446,-2.2119,-2.1545,-2.0919,-2.0575,-1.9703,-1.8745,0.0,0.0,0.0,-1.9074,0.0,0.0,0.0,0.0,-2.038,-1.9766,-2.0355,-2.1104,-2.1348,-2.182,-2.2264,-2.2457,-2.2559,-2.267,-2.2818,-2.3295,-2.3719,-2.386,-2.3657,-2.3676,-2.4144,-2.3731,-2.3621,-2.4153,-2.419,-2.419,-2.419,-2.419,-2.419,-2.419,-2.3886,-2.3482,-2.3045,-2.2822,-2.256,-2.231,-2.2296,-2.2296,-2.2296,-2.2801,-2.3156,-2.3427,-2.4408,-2.5135,-2.5642,-2.6116,-2.6607,-2.7114,-2.7604,-2.7877,-2.8152,-2.9696,-3.0487,-3.0901,-3.1981,-3.2658,-3.2882,0.0,0.0,0.0,0.0,0.0,0.0,0.0,0.0,0.0,-0.1898,0.0,0.0,0.0,0.0,0.0,-1.1564,-1.2743,-1.3379,-1.3464,-1.769,-2.0196,-2.0184,-1.9231,-1.7944,-1.6321,-1.5468,-1.4818,0.0,0.0,0.0,0.0,0.0,-1.9289,-1.9208,-1.8198,-1.8473,-1.9665,0.0,-1.9127,-1.9955,-1.9871,-2.0416,-2.1304,-2.1343,-2.2503,-2.3995,-2.3163,-2.3394,-2.3975,-2.3124,-2.2493,-2.1892,-2.0767,-1.9345,-1.8281,0.0,0.0,0.0,0.0,0.0,0.0,0.0,0.0,0.0,-2.0494,-2.0488,-2.0703,-2.1424,-2.1565,-2.1755,-2.2361,-2.1833,-2.1552,-2.2332,-2.383,-2.4499,-2.3401,-2.3946,-2.4408,-2.4237,-2.4199,-2.4199,-2.419,-2.419,-2.419,-2.419,-2.419,-2.419,-2.419,-2.3886,-2.3392,-2.2733,-2.2708,-2.256,-2.231,-2.2296,-2.2296,-2.2296,-2.2296,-2.2682,-2.3359,-2.341,-2.4205,-2.5541,-2.5592,-2.6421,-2.7739,-2.7756,-2.7998,-2.8433,-2.9193,-3.0055,-3.0866,-3.0824,-3.1565,-3.2344,0.0,0.0,0.0,0.0,0.0,0.0,0.0,0.0,-0.4183,0.0,0.0,0.0,-0.5937,-0.8822,-1.0961,-1.1736,-1.2061,-1.3017,-1.4864,-1.6777,-1.7701,-1.7416,-1.8095,-1.7798,-1.6337,-1.5872,-1.5184,-1.4264,-1.5782,-1.6589,-1.6681,-1.8323,-1.8766,0.0,-1.7165,-1.6995,-1.7522,-1.8016,-1.8527,-1.9092,-2.0217,-2.0916,-2.1438,-2.2653,-2.3513,-2.4149,-2.4485,-2.4389,-2.4052,-2.3821,-2.2823,-2.1524,-2.0665,-2.0581,0.0,0.0,0.0,0.0,-2.0226,0.0,0.0,0.0,0.0,0.0,-1.9784,-2.0089,-2.0536,-2.069,-2.0695,-2.0891,-2.1647,-2.1587,-2.1515,-2.1736,-2.1959,-2.2634,-2.4159,-2.4016,-2.3941,-2.4371,-2.4428,-2.4357,-2.4209,-2.419,-2.419,-2.419,-2.419,-2.419,-2.419,-2.3886,-2.3493,-2.3081,-2.2835,-2.256,-2.231,-2.2296,-2.2296,-2.2296,-2.2296,-2.2398,-2.2634,-2.3712,-2.4135,-2.4103,-2.5693,-2.6319,-2.6252,-2.6776,-2.723,-2.77,-2.8792,-2.9525,-3.0062,-3.0917,-3.1455,-3.1706,0.0,0.0,0.0,0.0,0.0,0.0,0.0,-0.5637,-0.5994,0.0,0.0,0.0,-0.8515,-1.0879,-1.2388,-1.2388,-1.3045,-1.3854,-1.4787,-1.6563,-1.7516,-1.7384,-1.8482,-1.8367,-1.6788,-1.6556,-1.5795,-1.449,-1.5575,-1.6307,-1.673,-1.7893,-1.8337,0.0,0.0,0.0,0.0,-1.7619,-1.8249,-1.8996,-2.027,-2.1361,-2.2315,-2.3303,-2.4052,-2.4659,-2.5135,-2.5019,-2.4634,-2.46,-2.3709,-2.2495,-2.2052,-2.2107,-2.2249,-2.1692,0.0,0.0,0.0,0.0,0.0,-1.992,0.0,0.0,-2.0465,-2.0737,-2.1063,-2.0994,-2.1241,-2.1493,-2.1572,-2.1888,-2.2243,-2.2607,-2.2207,-2.2302,-2.3657,-2.4004,-2.4219,-2.4462,-2.4503,-2.4428,-2.4218,-2.419,-2.419,-2.419,-2.419,-2.419,-2.419,-2.4016,-2.3746,-2.3414,-2.3081,-2.2764,-2.2477,-2.2363,-2.2296,-2.2296,-2.2296,-2.2448,-2.2784,-2.3325,-2.3678,-2.3915,-2.4898,-2.5534,-2.5878,-2.6306,-2.6918,-2.7677,-2.8842,-2.9737,-3.0436,-3.1138,-3.1604,-3.1865,0.0,0.0,0.0,0.0,0.0,0.0,0.0,-0.7901,-0.8003,0.0,-0.8283,-0.9905,-0.9905,-1.1874,-1.3198,-1.3198,-1.4627,-1.5018,-1.3887,-1.6584,-1.8398,-1.8751,-1.9622,-1.9286,-1.7563,-1.7363,-1.6577,-1.5084,-1.5454,-1.6158,-1.719,-1.7637,-1.8064,-1.8435,0.0,0.0,0.0,-1.7555,-1.8292,-1.9512,-2.0347,-2.1812,-2.3542,-2.3636,-2.4357,-2.5308,-2.5303,-2.5357,-2.5387,-2.5247,-2.4706,-2.4085,-2.3932,-2.3549,-2.3139,-2.3098,-2.2553,0.0,0.0,0.0,0.0,-2.0845,-2.123,0.0,-2.1913,-2.1986,-2.1991,-2.1822,-2.2423,-2.2669,-2.1731,-2.2193,-2.2954,-2.3748,-2.3381,-2.2965,-2.2838,-2.4033,-2.4816,-2.4556,-2.4537,-2.4462,-2.4218,-2.419,-2.419,-2.419,-2.419,-2.419,-2.419,-2.419,-2.4026,-2.366,-2.3357,-2.3045,-2.2708,-2.2422,-2.2307,-2.2349,-2.2307,-2.2634,-2.3257,-2.2725,-2.3129,-2.4281,-2.3833,-2.4582,-2.6129,-2.6275,-2.7016,-2.8187,-2.9251,-3.0383,-3.1458,-3.1476,-3.1937,-3.2439,-0.4745,0.0,0.0,0.0,0.0,0.0,0.0,-1.1441,-1.2876,-1.1917,-1.0688,-0.9905,-0.9905,-1.1874,-1.3198,-1.3198,-1.3514,-1.3728,-1.3795,-1.5494,-1.6924,-1.789,-1.9336,-1.9567,-1.8386,-1.8018,-1.7325,-1.6268,-1.6822,-1.7287,-1.7691,-1.8408,-1.8385,-1.7711,0.0,0.0,0.0,-1.7509,-1.8904,-2.0429,-2.1343,-2.2522,-2.3805,-2.4454,-2.496,-2.5303,-2.5367,-2.5391,-2.53,-2.4699,-2.4386,-2.4131,-2.3423,-2.3587,-2.3899,-2.3154,-2.3311,-2.3541,-2.2782,-2.2116,-2.1742,-2.2281,-2.2063,0.0,-2.2664,-2.285,-2.2658,-2.1955,-2.1934,-2.1769,-2.083,-2.0782,-2.0957,-2.1132,-2.2202,-2.3434,-2.4664,-2.4555,-2.4457,-2.471,-2.4746,-2.4591,-2.4237,-2.419,-2.419,-2.419,-2.419,-2.419,-2.419,-2.419,-2.3917,-2.3323,-2.3224,-2.3045,-2.2708,-2.2422,-2.2398,-2.2625,-2.2398,-2.2381,-2.253,-2.3264,-2.3388,-2.3122,-2.4505,-2.531,-2.5712,-2.6626,-2.7905,-2.9318,-2.9801,-3.0706,-3.1756,-3.1962,-3.2135,-3.2445,-0.6495,0.0,0.0,0.0,0.0,0.0,0.0,0.0,-1.4622,-1.4028,-1.3301,-1.2829,-1.2829,-1.3829,-1.4501,-1.4501,-1.4501,-1.4407,-1.4156,-1.5255,-1.6481,-1.7782,-1.9134,-1.9735,-1.9502,-1.8616,-1.7818,-1.7145,-1.7178,-1.7549,-1.8207,-1.8293,-1.8242,-1.8047,0.0,0.0,0.0,-1.9037,-2.0422,-2.2046,-2.2126,-2.305,-2.445,-2.4858,-2.5116,-2.5303,-2.5372,-2.5421,-2.5396,-2.5098,-2.4948,-2.4833,-2.4465,-2.4578,-2.4756,-2.4316,-2.4173,-2.4053,-2.3585,-2.3144,-2.2852,-2.2852,-2.2894,0.0,0.0,-2.3727,-2.3627,-2.3199,-2.3433,-2.347,-2.2563,-2.2756,-2.3049,-2.3049,-2.3789,-2.4615,-2.5398,-2.5095,-2.4823,-2.4892,-2.4897,-2.4788,-2.4537,-2.441,-2.4312,-2.4199,-2.419,-2.419,-2.419,-2.419,-2.4054,-2.3703,-2.3533,-2.3369,-2.32,-2.2895,-2.273,-2.2708,-2.2546,-2.244,-2.231,-2.2989,-2.3076,-2.2755,-2.3877,-2.4905,-2.5846,-2.6558,-2.8132,-3.016,-3.0727,-3.1379,-3.2123,-3.309,-3.3695,-3.4168,-0.8976,0.0,0.0,0.0,0.0,0.0,0.0,0.0,-1.5274,-1.5414,-1.6045,-1.647,-1.647,-1.7035,-1.7083,-1.6263,-1.6725,-1.6855,-1.6395,-1.6795,-1.7409,-1.8226,-1.9199,-2.0023,-2.0659,-1.9573,-1.889,-1.8614,-1.8087,-1.8239,-1.9013,-1.8672,-1.8668,0.0,0.0,0.0,0.0,0.0,-2.2028,-2.3492,-2.2887,-2.3624,-2.5071,-2.5071,-2.5157,-2.5308,-2.5395,-2.5451,-2.5543,-2.566,-2.5633,-2.5554,-2.5635,-2.5551,-2.5418,-2.5456,-2.4923,-2.4336,-2.4336,-2.4225,-2.3975,-2.3413,-2.3746,-2.4265,0.0,0.0,0.0,-2.4434,-2.4961,-2.5176,-2.4316,-2.4746,-2.5156,-2.5,-2.5234,-2.537,-2.5156,-2.5296,-2.5321,-2.5053,-2.5009,-2.4943,-2.4818,-2.4654,-2.4469,-2.4266,-2.4266,-2.4247,-2.4199,-2.419,-2.417,-2.4103,-2.3837,-2.3703,-2.3703,-2.3369,-2.3093,-2.2898,-2.2835,-2.2678,-2.248,-2.2751,-2.288,-2.291,-2.3253,-2.4379,-2.6056,-2.6415,-2.805,-3.0386,-3.1532,-3.2185,-3.2693,-3.43,-3.5372,-3.6083,-1.2902,-1.2009,0.0,0.0,0.0,0.0,0.0,0.0,-1.6182,-1.8465,-1.884,-1.8899,-1.8899,-2.1505,-2.1714,-1.7906,-2.0023,-2.2005,-2.3022,-2.2125,-2.0852,-1.9216,-1.9846,-2.0671,-2.162,-2.1596,-2.1675,-2.1861,-2.139,-2.0939,-2.057,-2.1198,-2.0978,0.0,-2.1347,0.0,0.0,0.0,-2.2909,-2.3776,-2.385,-2.4457,-2.5264,-2.5264,-2.5274,-2.5317,-2.5447,-2.5539,-2.5602,-2.5662,-2.5683,-2.566,-2.5556,-2.5517,-2.5474,-2.535,-2.5255,-2.5154,-2.5154,-2.4639,-2.424,-2.4865,-2.4605,-2.4403,-2.5187,0.0,-2.5261,-2.455,0.0,-2.4277,-2.3418,0.0,0.0,-2.2461,-2.3574,-2.4276,-2.3494,-2.4656,-2.5457,-2.5129,-2.5034,-2.4943,-2.4818,-2.4782,-2.4685,-2.4478,-2.4461,-2.4393,-2.4209,-2.419,-2.4064,-2.3774,-2.3714,-2.3703,-2.3703,-2.3369,-2.3335,-2.3577,-2.3288,-2.3117,-2.3111,-2.3444,-2.3577,-2.3617,-2.3937,-2.4725,-2.5811,-2.6544,-2.7749,-2.9327,-3.168,-3.3022,-3.3759,-3.5027,-3.5965,-3.673,-1.4019,-1.3676,0.0,0.0,0.0,0.0,0.0,0.0,-1.8815,-1.9917,-2.006,-2.006,-2.006,-2.1293,-2.211,-2.2141,-2.2241,-2.2846,-2.4122,-2.4091,-2.2797,-1.9998,-2.2011,-2.3392,-2.3816,-2.3237,-2.2987,-2.3108,-2.2547,-2.2067,-2.1668,-2.2026,-2.1842,0.0,-2.1983,0.0,-2.2651,-2.3114,-2.3751,-2.4519,-2.4725,-2.5,-2.5308,-2.5308,-2.5317,-2.5371,-2.5415,-2.5517,-2.5603,-2.5633,-2.5636,-2.5633,-2.5588,-2.5496,-2.5431,-2.5364,-2.5326,-2.5308,-2.5308,-2.5058,-2.4889,-2.5212,-2.5124,-2.5049,-2.5428,-2.5573,-2.5564,-2.5215,0.0,0.0,0.0,0.0,0.0,0.0,-2.4707,-2.5039,-2.4664,-2.5147,-2.5481,-2.535,-2.5262,-2.5147,-2.4949,-2.4499,-2.4344,-2.4648,-2.4105,-2.3933,-2.4356,-2.4257,-2.4141,-2.3996,-2.3996,-2.3996,-2.3996,-2.3847,-2.3746,-2.3692,-2.3555,-2.3392,-2.32,-2.3544,-2.3703,-2.3714,-2.4046,-2.4774,-2.5744,-2.6189,-2.7367,-2.9085,-3.0843,-3.2009,-3.2884,-3.4393,-3.5432,-3.6195,-1.435,0.0,0.0,0.0,0.0,0.0,0.0,-1.8965,-2.0605,-2.0605,-2.0605,-2.0957,-2.1894,-2.1992,-2.2913,-2.5205,-2.3824,-2.3294,-2.4432,-2.4993,-2.3808,-2.0442,-2.352,-2.5308,-2.5308,-2.4566,-2.4166,-2.4119,-2.361,-2.3156,-2.2743,-2.2912,-2.2775,0.0,0.0,-2.3306,-2.3791,0.0,-2.4547,-2.5094,-2.5229,-2.5442,-2.5635,-2.5385,-2.533,-2.5372,-2.5395,-2.5468,-2.5551,-2.5563,-2.5567,-2.5566,-2.5552,-2.5488,-2.5402,-2.5387,-2.5339,-2.5308,-2.5308,-2.5308,-2.5308,-2.5308,-2.5406,-2.5491,-2.5491,-2.5603,-2.5683,-2.5682,-2.5662,0.0,0.0,0.0,-2.5604,-2.5371,0.0,-2.5584,-2.535,-2.5411,-2.5517,-2.5533,-2.5453,-2.5331,-2.5091,-2.4547,-2.4388,-2.4812,-2.4095,-2.3884,-2.4466,-2.4312,-2.419,-2.419,-2.419,-2.419,-2.419,-2.419,-2.4026,-2.3703,-2.3795,-2.366,-2.3357,-2.3682,-2.3837,-2.3847,-2.4094,-2.4681,-2.5475,-2.5849,-2.6925,-2.8463,-2.9813,-3.0711,-3.1527,-3.3713,-3.4987,-3.572,-1.435,-1.4493,0.0,0.0,0.0,0.0,-1.9922,-2.0527,-2.0605,-2.0605,-2.0605,-2.1855,-2.5176,-2.5547,-2.5586,-2.5683,-2.4739,-2.4458,-2.5228,-2.5298,-2.3808,-2.0442,-2.352,-2.5308,-2.5308,-2.5517,-2.5574,-2.5447,-2.5162,-2.4615,-2.385,-2.4442,-2.4275,0.0,-2.4474,-2.4922,-2.4966,-2.517,-2.5259,-2.5284,-2.5303,-2.5808,-2.6467,-2.5615,-2.5308,-2.5313,-2.5372,-2.5397,-2.5415,-2.5473,-2.5493,-2.5484,-2.5428,-2.539,-2.5399,-2.5327,-2.5308,-2.5308,-2.5308,-2.5308,-2.5308,-2.5308,-2.5406,-2.5491,-2.5491,-2.5603,-2.5683,-2.5628,-2.5603,-2.5603,-2.5603,-2.5603,-2.5357,-2.457,-2.509,0.0,0.0,-2.5019,-2.5513,-2.5595,-2.5485,-2.5375,-2.5293,-2.5259,-2.517,-2.501,-2.4838,-2.4689,-2.4512,-2.4312,-2.419,-2.419,-2.419,-2.419,-2.419,-2.419,-2.4026,-2.3703,-2.4026,-2.4006,-2.3692,-2.4026,-2.418,-2.418,-2.4208,-2.4436,-2.4884,-2.5691,-2.6329,-2.7031,-2.8763,-2.9531,-3.0077,-3.3374,-3.5026,-3.572,0.0,0.0,0.0,0.0,0.0,-1.9037,-2.0223,-2.0501,-2.0605,-2.0605,-2.2413,-2.4154,-2.5315,-2.5431,-2.5513,-2.5683,-2.5383,-2.5299,-2.5556,-2.5398,-2.4788,-2.3654,-2.4706,-2.5308,-2.5308,-2.5482,-2.5595,-2.5633,-2.545,-2.5178,0.0,0.0,0.0,0.0,0.0,-2.5004,0.0,0.0,-2.5206,-2.5425,-2.5985,-2.6743,-2.7501,-2.7156,-2.6659,-2.6164,-2.6188,-2.585,-2.5397,-2.5421,-2.5431,-2.5425,-2.5413,-2.5375,-2.5321,-2.5317,-2.5308,-2.5308,-2.5308,-2.5308,-2.5308,-2.5308,-2.5371,-2.5431,-2.5438,-2.5493,-2.5559,-2.5543,-2.552,-2.552,-2.552,-2.552,-2.5448,-2.5171,-2.5356,-2.5422,0.0,-2.5327,-2.5485,-2.5417,-2.5441,-2.5418,-2.5308,-2.4812,-2.4702,-2.517,-2.4423,-2.4169,-2.4663,-2.4384,-2.419,-2.419,-2.419,-2.419,-2.419,-2.419,-2.4151,-2.4026,-2.4151,-2.4151,-2.4044,-2.4711,-2.4695,-2.4226,-2.4768,-2.4919,-2.4823,-2.5087,-2.5841,-2.6921,-2.8072,-2.8972,-2.9941,-3.2771,-3.3913,-3.4348,-1.7017,0.0,0.0,-1.7079,-1.9653,-2.2087,-2.2076,-2.2261,-2.2402,-2.2402,-2.4094,-2.5308,-2.5308,-2.5308,-2.5375,-2.5545,-2.5556,-2.5599,-2.5683,-2.5541,-2.5441,-2.5441,-2.5436,-2.5441,-2.5441,-2.5533,-2.5597,-2.5633,-2.5577,-2.5488,0.0,0.0,0.0,0.0,0.0,-2.5075,-2.5142,-2.5147,-2.5421,-2.5997,-2.7121,-2.7879,-2.8338,-2.8555,-2.7748,-2.6488,-2.6477,-2.6133,-2.572,-2.5794,-2.6039,-2.629,-2.629,-2.6048,-2.5769,-2.5769,-2.5538,-2.5308,-2.5308,-2.5538,-2.5769,-2.5769,-2.6056,-2.625,-2.5929,-2.6152,-2.6332,-2.5998,-2.5934,-2.6012,-2.632,-2.5876,-2.5577,-2.5909,-2.5682,-2.5462,0.0,-2.5456,-2.5421,-2.5313,-2.5411,-2.545,-2.5313,-2.4854,-2.4767,-2.525,-2.4474,-2.4216,-2.4759,-2.4428,-2.419,-2.419,-2.419,-2.419,-2.419,-2.419,-2.4151,-2.4016,-2.4151,-2.4288,-2.4472,-2.5114,-2.5264,-2.5071,-2.5301,-2.5319,-2.5242,-2.5231,-2.5828,-2.6879,-2.8082,-2.8962,-2.988,-3.2441,-3.3743,-3.448,-2.0316,-2.0304,-2.0155,-1.968,-2.2763,-2.5317,-2.5288,-2.5522,-2.5683,-2.5683,-2.5459,-2.5308,-2.5308,-2.5308,-2.5308,-2.5308,-2.5308,-2.5413,-2.5661,-2.5683,-2.5703,-2.5703,-2.5703,-2.5703,-2.5703,-2.5703,-2.5635,-2.55,-2.5572,-2.5605,0.0,0.0,0.0,0.0,-2.52,0.0,-2.5398,-2.5409,-2.5977,-2.6997,-2.8539,-2.9062,-2.9033,-2.9693,-2.8472,-2.6384,-2.6339,-2.6333,-2.6384,-2.6592,-2.7222,-2.7901,-2.7895,-2.7337,-2.6669,-2.6678,-2.6077,-2.5423,-2.5423,-2.6038,-2.6659,-2.6659,-2.7344,-2.7786,-2.6954,-2.7449,-2.7851,-2.6935,-2.6761,-2.7012,-2.7845,-2.6606,-2.5749,-2.664,-2.6016,-2.5368,-2.5303,-2.5354,-2.5364,-2.5303,-2.5427,-2.5447,-2.5313,-2.5367,-2.5364,-2.5288,-2.4975,-2.4797,-2.479,-2.44,-2.419,-2.419,-2.419,-2.419,-2.419,-2.419,-2.4036,-2.3724,-2.4054,-2.4446,-2.4935,-2.5299,-2.5888,-2.6557,-2.5833,-2.5699,-2.5988,-2.5997,-2.6282,-2.6854,-2.8634,-2.9485,-2.9998,-3.2479,-3.4467,-3.5995,-2.0485,-2.039,-2.1024,-2.3346,-2.4789,-2.5535,-2.5326,-2.5354,-2.5406,-2.5406,-2.5348,-2.5308,-2.5308,-2.5308,-2.5308,-2.5308,-2.5308,-2.5321,-2.5398,-2.5594,-2.5703,-2.5703,-2.5703,-2.5703,-2.5703,-2.5703,-2.5683,-2.5658,-2.568,-2.5661,-2.5661,0.0,0.0,0.0,0.0,-2.5305,-2.5409,-2.539,-2.634,-2.787,-2.8243,-2.9009,-2.9902,-2.9501,-2.8633,-2.7672,-2.8013,-2.7731,-2.7223,-2.7476,-2.7755,-2.7969,-2.7927,-2.7774,-2.7621,-2.758,-2.7409,-2.7236,-2.7236,-2.739,-2.7563,-2.7563,-2.7743,-2.7865,-2.7634,-2.7774,-2.788,-2.7639,-2.7595,-2.7653,-2.7884,-2.7031,-2.6367,-2.6611,-2.5918,-2.5327,-2.5293,-2.5317,-2.5327,-2.5293,-2.5368,-2.5398,-2.5303,-2.5359,-2.5307,-2.508,-2.4891,-2.4738,-2.4575,-2.4348,-2.419,-2.419,-2.419,-2.419,-2.419,-2.419,-2.4161,-2.4074,-2.4161,-2.4582,-2.5291,-2.5976,-2.641,-2.662,-2.6998,-2.665,-2.5794,-2.5949,-2.6193,-2.6612,-2.7922,-3.0061,-3.2479,-3.3144,-3.4492,-3.5992,-2.2341,-2.2665,-2.3261,-2.5152,-2.5601,-2.5658,-2.5506,-2.5383,-2.5348,-2.5462,-2.5379,-2.5333,-2.5465,-2.5375,-2.5308,-2.5308,-2.5308,-2.5308,-2.5308,-2.5551,-2.5703,-2.5703,-2.5703,-2.5703,-2.5703,-2.5703,-2.5636,-2.5531,-2.5573,-2.5636,-2.5703,0.0,0.0,0.0,0.0,-2.542,-2.5473,-2.5909,-2.6692,-2.7655,-2.7978,-2.8686,0.0,-2.8823,-2.854,-2.8526,-2.8718,-2.842,-2.797,-2.8211,-2.865,-2.9072,-2.9016,-2.8777,-2.8511,-2.8438,-2.8184,-2.7895,-2.7895,-2.8165,-2.8415,-2.8415,-2.8717,-2.889,-2.8511,-2.8717,-2.8854,-2.84,-2.8286,-2.8377,-2.8643,-2.7681,-2.6766,-2.6481,-2.6107,-2.5731,-2.5346,-2.5308,-2.5308,-2.5308,-2.5363,-2.5368,-2.5317,-2.5359,-2.5335,-2.5138,-2.4929,-2.4753,-2.4631,-2.4435,-2.4294,-2.4199,-2.4625,-2.4644,-2.419,-2.4548,-2.4548,-2.419,-2.419,-2.4622,-2.5429,-2.6227,-2.6796,-2.7126,-2.7236,-2.6886,-2.6228,-2.635,-2.6604,-2.708,-2.8567,-3.0621,-3.2733,-3.2733,-3.4107,-3.5948,-2.4774,-2.5504,-2.5657,-2.5657,-2.5682,-2.5839,-2.6242,-2.5774,-2.5415,-2.5629,-2.5829,-2.5886,-2.5668,-2.5438,-2.5308,-2.5308,-2.5308,-2.5308,-2.5308,-2.5524,-2.5657,-2.5657,-2.5683,-2.5703,-2.5703,-2.5703,-2.5563,-2.5308,-2.5456,-2.5594,0.0,0.0,0.0,0.0,0.0,0.0,0.0,-2.6458,-2.6853,-2.6966,-2.7624,-2.8085,-2.8339,-2.7922,-2.8127,-2.8617,-2.8691,-2.8699,-2.8677,-2.8767,-2.9494,-3.0324,-3.0249,-2.9767,-2.922,-2.9272,-2.878,-2.8236,-2.8236,-2.8742,-2.9242,-2.9127,-2.9756,-3.0173,-2.93,-2.9775,-3.0131,-2.9152,-2.8958,-2.9109,-2.9616,-2.8416,-2.7145,-2.647,-2.6565,-2.6479,-2.5745,-2.5635,-2.5596,-2.5481,-2.5524,0.0,-2.5317,-2.5363,-2.536,-2.5274,-2.4968,-2.479,-2.476,-2.4559,-2.4384,-2.4218,-2.5051,-2.5134,-2.4365,-2.4952,-2.5007,-2.4502,-2.441,-2.4842,-2.5742,-2.6447,-2.72,-2.7915,-2.7218,-2.6948,-2.7027,-2.7056,-2.7342,-2.7943,-2.9762,-3.1045,-3.1899,-3.1899,-3.3482,-3.5639,-2.5477,-2.5494,-2.5375,-2.5375,-2.5552,-2.6582,-2.918,-2.734,-2.5563,-2.5391,-2.7783,-2.8455,-2.5672,-2.5321,-2.5308,-2.5308,-2.5308,-2.5308,-2.5308,-2.5348,-2.5375,-2.5375,-2.557,-2.5703,-2.5703,-2.5703,-2.5563,-2.5308,-2.5547,-2.5682,-2.5703,-2.5631,0.0,0.0,0.0,0.0,-2.5595,-2.5837,-2.6307,-2.688,-2.6807,-2.6939,-2.7199,-2.7166,-2.6934,-2.6771,-2.7894,-2.8816,-2.9427,-2.895,-2.9131,-2.9495,-2.9375,-2.9302,-2.9394,-3.0001,-3.0077,-2.9962,-2.9962,-3.0058,-3.0,-2.928,-2.9756,-3.0173,-2.93,-2.9775,-3.0279,-2.987,-2.9796,-2.9768,-2.971,-2.8866,-2.7981,-2.7366,-2.7312,-2.7363,-2.7432,-2.7448,-2.7178,-2.6467,-2.6391,-2.6107,-2.5365,-2.5359,-2.5303,-2.5069,-2.4903,-2.4731,-2.4551,-2.4357,-2.4237,-2.419,-2.4366,-2.4697,-2.5191,-2.4677,-2.5016,-2.6172,-2.5521,-2.5962,-2.7376,-2.7541,-2.8026,-2.8785,-2.8638,-2.8231,-2.7653,-2.7833,-2.8191,-2.8785,-2.9836,-3.092,-3.1899,-3.1899,-3.2908,-3.4268,-2.5662,-2.5471,-2.5308,-2.5308,-2.5413,-2.6605,-2.9905,-2.9111,-2.8085,-2.7955,-2.9385,-2.9769,-2.8115,-2.7942,-2.7231,-2.5442,-2.5308,-2.5308,-2.5308,-2.5308,-2.6172,-2.8114,-2.659,-2.5703,-2.5703,-2.5559,-2.5425,-2.5308,-2.5425,-2.5996,-2.6936,-2.6013,-2.6033,-2.6783,0.0,-2.6414,-2.6792,-2.6033,-2.6405,-2.7468,-2.6744,-2.696,-2.7649,-2.6925,-2.6772,-2.7,-2.7154,-2.7734,-2.8436,-2.8703,-2.9056,-2.9311,-2.9153,-2.9498,-3.0021,-3.0314,-3.0404,-3.0404,-3.0404,-3.0404,-3.0308,-2.989,-3.0096,-3.0288,-2.9871,-3.0096,-3.0317,-3.0061,-2.9924,-2.9738,-2.9407,-2.9119,-2.8856,-2.8679,-2.8726,-2.8733,-2.8547,-2.853,-2.8049,-2.6755,-2.6601,-2.625,-2.5385,-2.5321,-2.5288,-2.5168,-2.4999,-2.4823,-2.4662,-2.4551,-2.4419,-2.4199,-2.4718,-2.5115,-2.5403,-2.5419,-2.5841,-2.6612,-2.6209,-2.6429,-2.7181,-2.7603,-2.7899,-2.8076,-2.8076,-2.7857,-2.751,-2.7929,-2.8308,-2.8748,-2.9722,-3.0246,-3.0498,-3.0796,-3.1878,-3.325,-2.5703,-2.5471,-2.5308,-2.5308,-2.65,-2.8385,-3.1077,-3.1481,-3.1212,-3.05,-3.0404,-3.0404,-3.0404,-3.0404,-2.9327,-2.6615,-2.6385,-2.6102,-2.543,-2.6088,-2.7818,-3.0761,-2.8193,-2.6545,-2.6224,-2.5973,-2.6038,-2.6385,-2.6053,-2.6818,-2.8546,-2.7006,-2.6893,-2.8001,-2.7333,-2.7303,-2.7674,-2.6647,-2.6827,-2.7732,-2.698,-2.7146,-2.7744,-2.6698,-2.6567,-2.6878,-2.6521,-2.6526,-2.6866,-2.7953,-2.8545,-2.8809,-2.8627,-2.9253,-3.0058,-3.0116,-3.025,-3.0404,-3.0404,-3.0404,-3.0365,-3.0173,-3.0269,-3.0346,-3.0173,-3.0269,-3.0317,-3.0061,-2.9804,-2.9514,-2.9089,-2.916,-2.9384,-2.9607,-2.9914,-2.9928,-2.9302,-2.936,-2.8874,-2.7259,-2.6894,-2.6463,-2.5649,-2.5404,-2.5308,-2.5308,-2.5096,-2.4986,-2.5042,-2.481,-2.4678,-2.4713,-2.5143,-2.5541,-2.5907,-2.619,-2.6612,-2.7115,-2.6943,-2.6932,-2.7134,-2.7769,-2.7837,-2.7451,-2.7451,-2.7451,-2.7501,-2.8064,-2.8418,-2.8693,-2.9539,-2.9599,-2.9289,-2.9751,-3.0953,-3.2457,-2.5703,-2.5471,-2.5308,-2.5308,-3.0423,-3.4654,-3.4962,-3.5019,-3.3904,-3.0808,-3.0404,-3.0404,-3.0404,-3.0404,-3.0269,-2.9942,-2.9923,-2.872,-2.5851,-2.863,-3.0526,-3.0879,-3.0305,-2.9302,-2.7918,-2.7737,-2.8409,-2.9923,-2.8516,-2.8636,-3.0155,-2.9029,-2.8355,-2.8081,-2.7958,-2.753,-2.6945,-2.7607,-2.7478,-2.6881,-2.7383,-2.6861,-2.5823,-2.6221,-2.5439,-2.4316,-2.604,-2.5968,-2.5213,-2.6391,-2.6872,-2.6943,-2.6858,-2.7484,-2.8367,-2.903,-2.9775,-3.0404,-3.0404,-3.0404,-3.0212,-2.941,-2.9813,-3.0192,-2.939,-2.9833,-3.0317,-3.0061,-2.9696,-2.9351,-2.9044,-2.9028,-2.9123,-2.9392,-3.006,-3.0328,-2.9731,-3.0267,-3.0202,-2.8755,-2.791,-2.7166,-2.6547,-2.5769,-2.5308,-2.5308,-2.4993,-2.5132,-2.5853,-2.4844,-2.4899,-2.6337,-2.5054,-2.5376,-2.7559,-2.6201,-2.6612,-2.8767,-2.8044,-2.8062,-2.8785,-2.8858,-2.8664,-2.8281,-2.8281,-2.8281,-2.8307,-2.8735,-2.9071,-2.9312,-2.9416,-2.9523,-2.9652,-2.9702,-3.064,-3.188,-2.5498,-2.7037,-2.8365,-2.8365,-3.2327,-3.55,-3.55,-3.3769,-3.1942,-3.0577,-3.0404,-3.0404,-3.0404,-3.0404,-3.0404,-3.0404,-2.8663,-2.7925,-2.8769,-3.0137,-3.0898,-3.0898,-3.0667,-3.0234,-2.9608,-3.0442,-3.1065,-3.1418,-3.0798,-3.0817,-3.1399,-2.9946,-2.8989,-2.8472,-2.8649,-2.8822,-2.8985,-2.8369,-2.844,-2.8956,-2.8568,-2.8039,-2.7437,-2.703,-2.6441,-2.5864,-2.629,-2.6475,-2.6573,-2.7176,-2.7074,-2.6688,-2.6622,-2.7581,-2.8769,-2.903,-2.9717,-3.0404,-3.0404,-3.0404,-3.0327,-2.9967,-3.0135,-3.0308,-2.9967,-3.0154,-3.0367,-3.026,-2.988,-2.9456,-2.9078,-2.9005,-2.9248,-2.9996,-3.0383,-3.0569,-3.0488,-3.076,-3.0371,-2.8744,-2.8252,-2.7599,-2.6466,-2.6038,-2.5912,-2.6072,-2.5359,-2.5029,-2.5261,-2.5173,-2.5337,-2.5852,-2.5713,-2.6337,-2.7787,-2.7155,-2.7567,-2.9005,-2.8675,-2.8693,-2.9005,-2.9005,-2.8773,-2.8407,-2.8407,-2.8673,-2.9163,-2.9546,-2.9846,-3.0105,-3.0639,-3.0663,-3.0452,-3.0835,-3.1619,-3.2493,-2.7031,-2.875,-3.0712,-3.1712,-3.3904,-3.5154,-3.4154,-3.2027,-3.0515,-3.0408,-3.0404,-3.0433,-3.055,-3.0543,-3.0543,-3.0543,-2.8517,-2.8262,-3.0742,-3.0898,-3.0898,-3.0898,-3.1055,-3.1073,-3.0987,-3.2193,-3.2701,-3.2421,-3.2149,-3.2079,-3.2189,-3.0666,-2.9674,-2.9217,-2.9443,-2.9893,-3.039,-2.9252,-2.9283,-3.0033,-2.9534,-2.913,-2.871,-2.7952,-2.7502,-2.7187,-2.6814,-2.7077,-2.7625,-2.7827,-2.7518,-2.6998,-2.6689,-2.7788,-2.912,-2.8832,-2.9525,-3.0404,-3.0404,-3.0404,-3.0404,-3.0404,-3.0404,-3.0404,-3.0404,-3.0404,-3.0355,-3.0221,-2.992,-2.9551,-2.91,-2.9005,-2.9251,-3.0012,-3.0323,-3.0461,-3.0412,-3.0629,-3.0245,-2.8866,-2.8471,-2.7842,-2.6605,-2.6498,-2.6465,-2.6432,-2.5888,-2.5655,-2.5854,-2.5702,-2.5873,-2.6439,-2.6557,-2.7108,-2.8136,-2.7915,-2.8319,-2.9354,-2.9115,-2.9115,-2.9335,-2.8985,-2.8797,-2.8763,-2.8763,-2.9227,-3.0008,-3.0399,-3.0648,-3.0846,-3.1703,-3.176,-3.1443,-3.1875,-3.2685,-3.3488,-3.1,-3.0365,-3.1462,-3.4846,-3.5462,-3.4365,-3.0981,-3.0708,-3.0771,-3.0444,-3.0404,-3.0533,-3.0856,-3.0898,-3.0898,-3.0898,-3.0859,-3.0859,-3.0898,-3.0898,-3.0898,-3.0898,-3.1854,-3.2214,-3.1881,-3.2419,-3.2852,-3.3189,-3.2268,-3.2039,-3.2479,-3.1319,-3.064,-3.0385,-3.0385,-3.0385,-3.0404,-3.039,-2.989,-2.9184,-3.0038,-2.9749,-2.8796,-2.8789,-2.8163,-2.732,-2.752,-2.7599,-2.7625,-2.7827,-2.7895,-2.7722,-2.6871,-2.7761,-2.8934,-2.8145,-2.9083,-3.0404,-3.0404,-3.0404,-3.0404,-3.0404,-3.0404,-3.0404,-3.0404,-3.0404,-3.0273,-2.9807,-2.9705,-2.9551,-2.91,-2.9005,-2.9005,-2.9023,-2.9696,-2.9934,-2.9145,-2.9714,-3.0014,-2.9446,-2.8629,-2.7858,-2.7256,-2.7191,-2.6863,-2.6068,-2.6558,-2.7316,-2.8303,-2.6479,-2.6494,-2.8877,-2.7427,-2.7372,-2.8968,-2.8209,-2.8594,-3.0173,-2.9372,-2.9427,-3.0143,-2.8953,-2.8835,-2.9588,-2.9588,-3.0071,-3.0912,-3.1239,-3.1397,-3.147,-3.2284,-3.2596,-3.2577,-3.2596,-3.3592,-3.4747,-3.1077,-3.2288,-3.4212,-3.5308,-3.55,-3.4346,-3.0923,-3.0482,-3.0593,-3.0724,-3.0734,-3.0774,-3.0898,-3.0898,-3.0898,-3.0898,-3.0699,-3.056,-3.056,-3.077,-3.0898,-3.0898,-3.1111,-3.1451,-3.1881,-3.2331,-3.2664,-3.2858,-3.2477,-3.2079,-3.165,-3.0057,-2.9518,-2.9946,-3.0267,-3.0404,-3.0404,-3.0404,-3.0231,-3.0,-3.0288,-2.9842,-2.9006,-2.9006,-2.8803,-2.8536,-2.8604,-2.9,-2.9518,-2.9585,-2.9596,-2.9448,-2.8582,-2.8665,-2.905,-2.88,-2.9525,-3.0404,-3.0404,-3.0404,-3.0404,-3.0404,-3.0404,-3.0404,-3.0404,-3.026,-3.004,-2.9765,-3.0039,-3.0027,-2.9147,-2.9445,-2.9629,-2.9097,-2.9207,-2.9299,-2.9042,-2.9225,-2.9315,-2.916,-2.8883,-2.8482,-2.7877,-2.7935,-2.7991,-2.7906,-2.7401,-2.7179,-2.7362,-2.7159,-2.7394,-2.8154,-2.876,-2.9042,-2.9005,-2.9824,-3.0228,-3.021,-3.0503,-3.0485,-3.0179,-2.9808,-2.9759,-3.0045,-3.0593,-3.1287,-3.2109,-3.2776,-3.3036,-3.3183,-3.4578,-3.4761,-3.4307,-3.4908,-3.5459,-3.5807,-3.2731,-3.4038,-3.5369,-3.4944,-3.5231,-3.4346,-3.0923,-3.0404,-3.0528,-3.0856,-3.0898,-3.0391,-2.9082,-3.0117,-3.0371,-2.9062,-2.9837,-3.0404,-3.0404,-3.0605,-3.0768,-3.0898,-3.078,-3.1047,-3.1774,-3.2349,-3.2637,-3.2593,-3.2074,-3.1228,-3.0119,-2.9368,-2.9161,-2.9465,-2.9973,-3.0286,-3.0404,-3.0404,-3.0404,-3.0404,-3.0404,-3.0077,-2.9583,-2.9583,-2.9583,-2.9583,-2.9583,-2.9948,-3.0404,-3.0404,-3.0404,-3.0308,-2.9756,-2.9583,-2.9525,-2.9204,-2.9717,-3.0404,-3.0404,-3.0404,-3.0404,-3.0404,-3.0404,-3.0367,-3.0267,-3.0054,-2.9829,-2.9635,-2.9886,-2.9914,-2.9136,-2.9409,-2.9574,-2.9078,-2.9005,-2.8895,-2.8583,-2.8803,-2.8895,-2.8583,-2.8822,-2.8769,-2.8153,-2.8783,-2.9075,-2.8715,-2.8846,-2.8736,-2.8312,-2.826,-2.8393,-2.8686,-2.9971,-3.0411,-2.9916,-3.0889,-3.1292,-3.1109,-3.1604,-3.1274,-3.021,-3.0503,-3.0815,-3.1115,-3.1641,-3.2485,-3.3537,-3.4032,-3.4449,-3.4857,-3.5999,-3.6106,-3.5675,-3.6028,-3.6361,-3.6542,-3.55,-3.5308,-3.4885,-3.4056,-3.4803,-3.4346,-3.0923,-3.0404,-3.0515,-3.0829,-3.0877,-2.9626,-2.6384,-2.8945,-2.959,-2.6348,-2.8717,-3.0404,-3.0404,-3.0404,-3.0535,-3.0855,-3.0743,-3.0923,-3.1439,-3.2341,-3.2601,-3.2216,-3.1076,-2.9695,-2.8166,-2.9097,-2.9354,-2.9055,-2.9623,-3.0087,-3.0404,-3.0404,-3.0404,-3.0404,-3.0404,-3.0404,-3.0404,-3.0404,-3.0404,-3.0404,-3.0404,-3.0404,-3.0404,-3.0404,-3.0404,-3.0404,-3.0404,-3.0404,-3.0231,-2.9429,-2.9756,-3.0404,-3.0404,-3.0404,-3.0404,-3.0404,-3.0392,-3.0305,-3.0047,-2.9821,-2.9635,-2.9434,-2.9429,-2.9373,-2.9062,-2.906,-2.9078,-2.9005,-2.895,-2.8675,-2.797,-2.8484,-2.8656,-2.797,-2.8583,-2.8872,-2.8322,-2.9705,-3.0104,-2.8887,-3.062,-3.143,-3.0756,-2.985,-2.9647,-3.0338,-3.1201,-3.1599,-3.1476,-3.1586,-3.199,-3.2674,-3.2619,-3.1812,-3.0393,-3.1127,-3.188,-3.2601,-3.2656,-3.3537,-3.4931,-3.5041,-3.55,-3.6168,-3.6614,-3.6723,-3.6583,-3.6149,-3.6517,-3.696,-3.55,-3.3404,-3.2346,-3.4688,-3.532,-3.4346,-3.0923,-3.0404,-3.0436,-3.051,-3.0524,-3.021,-2.9379,-3.0248,-3.0566,-2.9746,-3.0113,-3.0404,-3.0404,-3.0404,-3.0447,-3.0519,-3.0586,-3.0385,-2.9868,-3.1148,-3.1317,-3.0253,-2.9222,-2.8293,-2.7524,-2.7849,-2.8522,-2.9395,-2.9643,-3.0,-3.0404,-3.0404,-3.0404,-3.0404,-3.0404,-3.0404,-3.0404,-3.0404,-3.0404,-3.0404,-3.0404,-3.0404,-3.0404,-3.0404,-3.0404,-3.0404,-3.0404,-3.0404,-3.0365,-3.0154,-3.0231,-3.0404,-3.0404,-3.0404,-3.0404,-3.0404,-3.0248,-3.004,-2.9813,-2.9626,-2.9464,-2.9412,-2.9735,-2.9796,-2.9127,-2.95,-2.9702,-2.9097,-2.8473,-2.8227,-2.8656,-2.8356,-2.8246,-2.8675,-2.9427,-2.9934,-3.0,-3.0517,-3.1052,-3.1599,-3.1315,-3.1308,-3.1798,-3.237,-3.2467,-3.2051,-3.3408,-3.3555,-3.2326,-3.3537,-3.394,-3.3513,-3.2894,-3.2399,-3.2032,-3.2228,-3.2417,-3.2619,-3.3256,-3.3733,-3.4174,-3.5459,-3.5367,-3.461,-3.6759,-3.6866,-3.5881,-3.6612,-3.7013,-3.7068,-3.55,-3.4019,-3.3327,-3.5173,-3.55,-3.4346,-3.0923,-3.0404,-3.0404,-3.0404,-3.0404,-3.0404,-3.0404,-3.0564,-3.0728,-3.0898,-3.0582,-3.0404,-3.0404,-3.0404,-2.9692,-2.8135,-2.9484,-2.9962,-2.9304,-2.9872,-2.9779,-2.8966,-2.828,-2.7907,-2.779,-2.7719,-2.82,-2.9163,-2.9532,-2.9969,-3.0404,-3.0404,-3.0404,-3.0404,-3.0404,-3.0404,-3.0404,-3.0404,-3.0404,-3.0404,-3.0404,-3.0404,-3.0404,-3.0404,-3.0404,-3.0404,-3.0404,-3.0404,-3.0404,-3.0404,-3.0404,-3.0404,-3.0404,-3.0404,-3.0367,-3.0254,-3.0032,-2.9804,-2.9616,-2.9375,-2.9232,-2.9232,-2.945,-2.9519,-2.9078,-2.9354,-2.95,-2.9078,-2.862,-2.8374,-2.8436,-2.8393,-2.851,-2.895,-2.9702,-3.0648,-3.1773,-3.2335,-3.2832,-3.3298,-3.3245,-3.3062,-3.276,-3.3765,-3.3977,-3.3183,-3.4729,-3.5169,-3.4302,-3.4766,-3.4417,-3.3256,-3.3183,-3.2949,-3.2601,-3.2968,-3.3353,-3.3702,-3.377,-3.4229,-3.5018,-3.5917,-3.5752,-3.5127,-3.6888,-3.6809,-3.5757,-3.6271,-3.646,-3.6408,-3.55,-3.55,-3.55,-3.55,-3.55,-3.4519,-3.1615,-3.1173,-3.0981,-3.0462,-3.0404,-3.0404,-3.0404,-3.0404,-3.0519,-3.0801,-3.06,-3.0441,-3.041,-3.0404,-2.8865,-2.5442,-2.8008,-2.9397,-2.9091,-2.8606,-2.8284,-2.8144,-2.7824,-2.7862,-2.8224,-2.805,-2.8247,-2.8787,-2.9439,-2.9985,-3.0404,-3.0404,-3.0404,-3.0404,-3.0404,-3.0404,-3.0404,-3.0404,-3.0404,-3.0404,-3.0404,-3.0404,-3.0404,-3.0404,-3.0404,-3.0404,-3.0404,-3.0404,-3.0404,-3.0404,-3.0404,-3.0404,-3.0404,-3.0404,-3.0343,-3.0068,-2.9853,-2.9681,-2.9593,-2.9274,-2.9078,-2.9317,-2.9262,-2.9225,-2.9335,-2.9262,-2.9225,-2.9335,-2.906,-2.8675,-2.8209,-2.8638,-2.906,-2.917,-3.0106,-3.1494,-3.342,-3.4375,-3.4802,-3.4602,-3.5293,-3.5157,-3.3853,-3.468,-3.4931,-3.4376,-3.5734,-3.6399,-3.6212,-3.5398,-3.428,-3.287,-3.3505,-3.3513,-3.2986,-3.355,-3.4247,-3.4968,-3.427,-3.4853,-3.6303,-3.6303,-3.6182,-3.6069,-3.6738,-3.6444,-3.5637,-3.56,-3.56,-3.5583,-3.55,-3.55,-3.55,-3.55,-3.55,-3.5327,-3.4788,-3.4712,-3.3673,-3.0788,-3.0404,-3.0404,-3.0404,-3.0404,-3.0425,-3.0472,-3.0698,-3.0706,-3.0419,-3.0404,-2.8865,-2.5442,-2.6893,-2.79,-2.8118,-2.7485,-2.7401,-2.7852,-2.7321,-2.7191,-2.7475,-2.7949,-2.8476,-2.9064,-2.9618,-3.0073,-3.0404,-3.0404,-3.0404,-3.0404,-3.0404,-3.0404,-3.0404,-3.0404,-3.0404,-3.0404,-3.0404,-3.0404,-3.0404,-3.0404,-3.0404,-3.0404,-3.0404,-3.0404,-3.0404,-3.0404,-3.0404,-3.0404,-3.0404,-3.0404,-3.0343,-3.0068,-2.9853,-2.9831,-3.0302,-2.968,-2.939,-3.0742,-3.0485,-3.0228,-3.0889,-3.0467,-3.0246,-3.0907,-2.931,-2.8411,-2.9659,-2.9354,-2.9244,-2.9934,-3.1916,-3.3574,-3.442,-3.5233,-3.5885,-3.6279,-3.5426,-3.5071,-3.5484,-3.5892,-3.634,-3.6905,-3.718,-3.6793,-3.5727,-3.5232,-3.4702,-3.412,-3.3894,-3.4087,-3.4619,-3.4064,-3.4247,-3.5004,-3.4876,-3.5371,-3.6303,-3.6303,-3.567,-3.4798,-3.5741,-3.5407,-3.4473,-3.5317,-3.56,-3.5498,-3.818,-3.6738,-3.55,-3.55,-3.55,-3.55,-3.55,-3.55,-3.4923,-3.3346,-3.1538,-3.0404,-3.0404,-3.0404,-3.0404,-3.0404,-3.0711,-3.0832,-3.0689,-2.8784,-2.7849,-2.8296,-2.7004,-2.6704,-2.7669,-2.7097,-2.6815,-2.6832,-2.7027,-2.7356,-2.7812,-2.8296,-2.8893,-2.9607,-2.9836,-3.0122,-3.0404,-3.0404,-3.0404,-3.0404,-3.0404,-3.0404,-3.0404,-3.0404,-3.0404,-3.0404,-3.0404,-3.0404,-3.0404,-3.0404,-3.0404,-3.0404,-3.0404,-3.0404,-3.0404,-3.0404,-3.0404,-3.0404,-3.0404,-3.0404,-3.0343,-3.0068,-2.9853,-2.9737,-2.991,-2.9791,-2.9849,-3.0595,-3.0797,-3.0962,-3.1342,-3.0742,-3.0467,-3.1268,-2.9732,-2.9017,-3.0613,-3.0155,-3.0106,-3.1335,-3.2871,-3.4383,-3.5901,-3.6772,-3.7409,-3.7793,-3.7109,-3.6591,-3.6342,-3.6305,-3.6684,-3.7474,-3.763,-3.7223,-3.6197,-3.6012,-3.5613,-3.4988,-3.4619,-3.454,-3.4662,-3.4517,-3.454,-3.4717,-3.5396,-3.5936,-3.6321,-3.6776,-3.6344,-3.5502,-3.6292,-3.5979,-3.5112,-3.5467,-3.56,-3.5549,-4.0138,-3.8233,-3.6423,-3.5635,-3.55,-3.55,-3.55,-3.55,-3.55,-3.55,-3.3212,-3.1288,-3.05,-3.0404,-3.0404,-3.0404,-3.0649,-3.0826,-3.0898,-2.813,-2.7769,-3.0662,-2.7802,-2.6581,-2.7492,-2.6971,-2.6573,-2.6298,-2.7014,-2.7699,-2.8347,-2.8775,-2.9326,-3.0006,-3.0068,-3.0209,-3.0404,-3.0404,-3.0404,-3.0404,-3.0404,-3.0404,-3.0404,-3.0404,-3.0404,-3.0404,-3.0404,-3.0404,-3.0404,-3.0404,-3.0404,-3.0404,-3.0404,-3.0404,-3.0404,-3.0404,-3.0355,-3.0317,-3.0373,-3.0558,-3.0643,-3.0456,-3.0349,-3.0282,-3.0327,-3.0402,-3.0595,-3.0962,-3.1384,-3.1733,-3.1916,-3.1292,-3.1017,-3.1825,-3.0613,-3.0051,-3.1476,-3.1311,-3.1439,-3.2472,-3.366,-3.5031,-3.6732,-3.7802,-3.8428,-3.8499,-3.8452,-3.7983,-3.7037,-3.6722,-3.6868,-3.7474,-3.7881,-3.7583,-3.6552,-3.6655,-3.6281,-3.545,-3.51,-3.4875,-3.4754,-3.4996,-3.5048,-3.5002,-3.6105,-3.6688,-3.689,-3.7327,-3.7066,-3.6459,-3.6915,-3.6536,-3.5775,-3.5972,-3.5988,-3.5893,-3.905,-3.9526,-3.9142,-3.6038,-3.55,-3.55,-3.55,-3.55,-3.55,-3.55,-3.5288,-3.3923,-3.075,-3.0404,-3.0404,-3.0404,-3.0425,-3.0572,-3.0878,-3.0348,-3.0151,-3.0414,-2.9334,-2.8336,-2.7515,-2.6971,-2.6873,-2.7192,-2.7461,-2.7977,-2.8773,-2.9231,-2.9647,-3.0013,-3.026,-3.0373,-3.0404,-3.0404,-3.0404,-3.0404,-3.0404,-3.0404,-3.0404,-3.0404,-3.0404,-3.0404,-3.0404,-3.0404,-3.0404,-3.0404,-3.0404,-3.0404,-3.0404,-3.0404,-3.0404,-3.0404,-3.0215,-3.0082,-3.0323,-3.0981,-3.1596,-3.1584,-3.1809,-3.2213,-3.2947,-3.2162,-3.1733,-3.322,-3.2999,-3.2729,-3.3495,-3.2981,-3.2693,-3.3495,-3.2265,-3.1513,-3.2381,-3.3109,-3.3311,-3.2674,-3.4688,-3.6091,-3.6012,-3.7451,-3.8182,-3.7642,-3.81,-3.8228,-3.7824,-3.7552,-3.7437,-3.7492,-3.8236,-3.7802,-3.6078,-3.6483,-3.6221,-3.5307,-3.4903,-3.5102,-3.5792,-3.5567,-3.5854,-3.6558,-3.7165,-3.7826,-3.8469,-3.7786,-3.7207,-3.6767,-3.6741,-3.6167,-3.5506,-3.6876,-3.7077,-3.6711,-3.8792,-3.7418,-3.6161,-3.5595,-3.55,-3.55,-3.55,-3.55,-3.55,-3.55,-3.55,-3.5019,-3.3692,-3.3558,-3.2712,-3.0596,-3.0404,-3.0539,-3.0878,-3.0595,-2.9251,-2.6672,-2.8133,-2.8815,-2.8425,-2.7794,-2.7581,-2.7864,-2.8188,-2.8652,-2.9231,-2.9622,-2.9961,-3.0254,-3.0355,-3.0404,-3.0404,-3.0404,-3.0404,-3.0404,-3.0404,-3.0404,-3.0404,-3.0404,-3.0404,-3.0404,-3.0404,-3.0404,-3.0404,-3.0404,-3.0404,-3.0404,-3.0404,-3.0292,-3.0129,-3.0007,-2.9896,-2.9861,-3.0102,-3.0788,-3.1492,-3.1655,-3.1951,-3.2279,-3.259,-3.2389,-3.232,-3.2926,-3.322,-3.3587,-3.4399,-3.3482,-3.3188,-3.5055,-3.355,-3.2797,-3.4633,-3.4692,-3.4435,-3.4124,-3.5404,-3.633,-3.6388,-3.7604,-3.8426,-3.8491,-3.8893,-3.8921,-3.843,-3.8305,-3.8025,-3.7529,-3.7963,-3.7463,-3.5951,-3.6332,-3.6328,-3.5983,-3.5618,-3.5484,-3.5535,-3.5686,-3.5669,-3.5613,-3.7094,-3.7833,-3.7955,-3.8157,-3.8428,-3.8636,-3.7795,-3.7631,-3.7865,-3.7596,-3.7494,-3.7483,-3.8505,-3.6046,-3.4165,-3.5304,-3.55,-3.55,-3.55,-3.55,-3.55,-3.55,-3.55,-3.55,-3.55,-3.55,-3.4558,-3.2212,-3.2,-3.1693,-3.0956,-3.1596,-3.0125,-2.5892,-2.7813,-2.9005,-2.9005,-2.8495,-2.8288,-2.8354,-2.873,-2.917,-2.9653,-2.9987,-3.0215,-3.0404,-3.0404,-3.0404,-3.0404,-3.0404,-3.0404,-3.0404,-3.0404,-3.0404,-3.0404,-3.0404,-3.0577,-3.0808,-3.0808,-3.0962,-3.1192,-3.1192,-3.1192,-3.1167,-3.1085,-3.0694,-3.0306,-3.0419,-3.0289,-3.0219,-3.0651,-3.1424,-3.2076,-3.2084,-3.2523,-3.2987,-3.2987,-3.2985,-3.3041,-3.3298,-3.3793,-3.4431,-3.5261,-3.4509,-3.4321,-3.6009,-3.4871,-3.4357,-3.6064,-3.6009,-3.5683,-3.5445,-3.6156,-3.668,-3.6708,-3.7403,-3.8001,-3.8329,-3.8777,-3.885,-3.8334,-3.8322,-3.7826,-3.6743,-3.7241,-3.6878,-3.5525,-3.61,-3.6329,-3.6161,-3.5925,-3.5662,-3.5411,-3.5843,-3.5872,-3.5633,-3.7218,-3.7891,-3.7933,-3.8469,-3.9038,-3.9428,-3.8333,-3.8276,-3.8706,-3.808,-3.7871,-3.7939,-3.8028,-3.6046,-3.4165,-3.5304,-3.55,-3.55,-3.55,-3.55,-3.55,-3.55,-3.55,-3.55,-3.55,-3.55,-3.55,-3.55,-3.5507,-3.4197,-3.1092,-3.3783,-3.3568,-2.9216,-2.9012,-2.9005,-2.9005,-2.9005,-2.8913,-2.8712,-2.8981,-2.941,-3.0006,-3.0286,-3.0404,-3.0404,-3.0404,-3.0404,-3.0404,-3.0404,-3.0404,-3.0404,-3.0404,-3.0404,-3.0404,-3.0404,-3.0942,-3.1698,-3.1718,-3.2218,-3.2891,-3.2891,-3.2891,-3.2859,-3.2577,-3.1769,-3.1073,-3.1855,-3.1581,-3.1238,-3.2249,-3.3149,-3.3658,-3.3064,-3.3811,-3.4713,-3.4694,-3.4232,-3.4045,-3.4839,-3.5023,-3.5279,-3.6156,-3.6303,-3.6303,-3.6321,-3.6303,-3.6303,-3.6321,-3.7015,-3.7217,-3.6413,-3.7015,-3.7292,-3.6749,-3.6714,-3.6714,-3.6713,-3.7446,-3.7797,-3.7522,-3.7511,-3.6743,-3.5078,-3.6118,-3.6073,-3.4712,-3.5839,-3.6139,-3.56,-3.56,-3.56,-3.5622,-3.6161,-3.6684,-3.721,-3.7685,-3.82,-3.8692,-3.8707,-3.8707,-3.8661,-3.8099,-3.7614,-3.7328,-3.8251,-3.83,-3.8024,-3.5073,-3.4468,-3.4165,-3.5304,-3.55,-3.55,-3.55,-3.55,-3.55,-3.55,-3.55,-3.55,-3.55,-3.55,-3.55,-3.55,-3.5718,-3.4347,-3.0773,-3.3708,-3.4076,-3.0699,-2.9548,-2.9005,-2.9005,-2.9316,-2.9467,-2.9392,-2.9618,-2.9924,-3.0273,-3.0361,-3.0404,-3.0404,-3.0404,-3.0404,-3.0404,-3.0404,-3.0404,-3.0404,-3.0404,-3.0404,-3.0462,-3.1077,-3.1468,-3.1775,-3.2333,-3.2699,-3.2891,-3.2891,-3.2891,-3.282,-3.2416,-3.2071,-3.1827,-3.1875,-3.2162,-3.2582,-3.3006,-3.3772,-3.4281,-3.3677,-3.4546,-3.5329,-3.4532,-3.4969,-3.5459,-3.5078,-3.5481,-3.6156,-3.6997,-3.667,-3.667,-3.7808,-3.7496,-3.7345,-3.79,-3.8193,-3.8028,-3.7235,-3.7345,-3.7445,-3.7288,-3.744,-3.7689,-3.8077,-3.832,-3.8424,-3.8355,-3.834,-3.7845,-3.678,-3.7259,-3.6896,-3.556,-3.6118,-3.6139,-3.56,-3.56,-3.56,-3.56,-3.5761,-3.6139,-3.6664,-3.7192,-3.8008,-3.8964,-3.8784,-3.9368,-4.0219,-3.855,-3.8258,-3.8724,-3.808,-3.8197,-3.87,-3.3807,-3.4165,-3.4686,-3.5383,-3.55,-3.55,-3.55,-3.55,-3.55,-3.55,-3.55,-3.55,-3.55,-3.55,-3.55,-3.55,-3.4447,-3.3195,-3.1836,-3.3081,-3.3365,-3.2266,-3.1032,-2.9953,-2.9012,-2.9465,-2.979,-2.9985,-2.9984,-3.0136,-3.0404,-3.0404,-3.0404,-3.0404,-3.0404,-3.0404,-3.0404,-3.0404,-3.0404,-3.0404,-3.0404,-3.0615,-3.0962,-3.1506,-3.2102,-3.2756,-3.3237,-3.3641,-3.3987,-3.4295,-3.4555,-3.463,-3.3895,-3.3587,-3.3529,-3.3683,-3.3964,-3.4293,-3.4737,-3.5322,-3.5666,-3.5085,-3.5348,-3.5634,-3.5267,-3.5761,-3.6229,-3.6028,-3.6413,-3.7033,-3.7841,-3.7569,-3.7569,-3.8542,-3.8285,-3.8138,-3.8634,-3.8707,-3.8524,-3.8028,-3.7955,-3.7955,-3.7955,-3.7825,-3.8015,-3.8649,-3.8414,-3.8358,-3.8689,-3.8395,-3.7845,-3.7052,-3.7489,-3.7139,-3.5914,-3.6439,-3.6354,-3.56,-3.56,-3.56,-3.56,-3.56,-3.6051,-3.6849,-3.6866,-3.7615,-3.8761,-3.8493,-3.8849,-3.9441,-3.8133,-3.7891,-3.8225,-3.7806,-3.8041,-3.865,-3.3954,-3.4803,-3.55,-3.55,-3.55,-3.55,-3.55,-3.55,-3.55,-3.55,-3.55,-3.55,-3.55,-3.55,-3.55,-3.55,-3.2365,-3.1377,-3.3647,-3.223,-3.2056,-3.3666,-3.3083,-3.1694,-2.944,-2.9746,-3.0056,-3.0355,-3.0143,-3.0214,-3.0558,-3.0442,-3.0481,-3.0615,-3.0558,-3.0558,-3.0615,-3.0615,-3.0577,-3.0519,-3.0614,-3.1062,-3.1723,-3.1894,-3.2947,-3.4321,-3.4321,-3.4924,-3.5827,-3.6481,-3.7118,-3.744,-3.6308,-3.581,-3.5822,-3.6565,-3.6472,-3.6281,-3.7006,-3.7418,-3.7543,-3.7088,-3.6446,-3.6031,-3.6545,-3.6583,-3.6688,-3.7364,-3.7566,-3.7841,-3.856,-3.8707,-3.8707,-3.8707,-3.8707,-3.8707,-3.8707,-3.8762,-3.8817,-3.8817,-3.8817,-3.8817,-3.8817,-3.8138,-3.8062,-3.8854,-3.823,-3.8138,-3.8891,-3.8153,-3.7419,-3.6743,-3.7382,-3.7255,-3.6307,-3.7032,-3.6786,-3.56,-3.5667,-3.5701,-3.5701,-3.5769,-3.6456,-3.7504,-3.6876,-3.7289,-3.8404,-3.8151,-3.7793,-3.7404,-3.7276,-3.6876,-3.6523,-3.7455,-3.7838,-3.8125,-3.5127,-3.5327,-3.55,-3.55,-3.55,-3.55,-3.55,-3.55,-3.55,-3.55,-3.55,-3.55,-3.55,-3.55,-3.55,-3.55,-3.2365,-3.1377,-3.3647,-3.2825,-3.2501,-3.3139,-3.4002,-3.3846,-3.2546,-3.1902,-3.1057,-3.0018,-3.0202,-3.079,-3.1712,-3.0827,-3.1096,-3.2333,-3.1698,-3.1775,-3.2352,-3.2352,-3.1987,-3.148,-3.2231,-3.2218,-3.1922,-3.3351,-3.4481,-3.5292,-3.5292,-3.6234,-3.7373,-3.6865,-3.7247,-3.7697,-3.6582,-3.6644,-3.7167,-3.7357,-3.7616,-3.7885,-3.8022,-3.8392,-3.8831,-3.9132,-3.9086,-3.8497,-3.6767,-3.7316,-3.8046,-3.7584,-3.7991,-3.8487,-3.867,-3.8707,-3.8707,-3.8707,-3.8707,-3.8707,-3.8707,-3.9239,-3.9643,-3.9643,-3.9643,-3.9643,-3.9643,-3.9478,-3.9698,-4.0508,-4.0416,-4.0398,-4.0563,-3.9827,-3.9588,-4.0065,-3.9625,-3.9365,-3.9355,-3.9122,-3.7853,-3.56,-3.6231,-3.6535,-3.6575,-3.7144,-3.7553,-3.7829,-3.8028,-3.8642,-3.946,-3.9196,-3.9055,-3.8885,-3.7842,-3.7002,-3.6454,-3.6882,-3.7398,-3.8125,-3.5808,-3.55,-3.55,-3.55,-3.55,-3.55,-3.55,-3.55,-3.55,-3.55,-3.55,-3.55,-3.55,-3.5015,-3.4686,-3.4686,-3.1646,-3.0881,-3.3626,-3.3372,-3.3196,-3.3361,-3.399,-3.406,-3.3471,-3.3435,-3.2893,-3.1769,-3.1661,-3.1904,-3.2462,-3.1865,-3.2064,-3.2872,-3.2468,-3.2436,-3.2725,-3.2852,-3.257,-3.2138,-3.2765,-3.2991,-3.3093,-3.4046,-3.5189,-3.6263,-3.6231,-3.725,-3.8488,-3.7603,-3.8142,-3.8996,-3.7846,-3.8079,-3.8756,-3.8611,-3.9023,-3.9496,-3.9308,-3.976,-4.0323,-4.0436,-4.0469,-4.0047,-3.8377,-3.867,-3.9038,-3.823,-3.8707,-3.9166,-3.8781,-3.9019,-3.9276,-3.9276,-3.9276,-3.9405,-3.9774,-4.0212,-4.0469,-4.0469,-4.0469,-4.0469,-4.0469,-4.0469,-4.0818,-4.1625,-4.1315,-4.126,-4.1662,-4.091,-4.0671,-4.1077,-4.0689,-4.042,-4.0294,-4.0017,-3.8947,-3.7072,-3.7256,-3.7313,-3.733,-3.7719,-3.8091,-3.842,-3.8321,-3.8699,-3.9403,-3.9116,-3.8907,-3.8695,-3.8196,-3.7659,-3.7182,-3.7668,-3.8311,-3.9056,-3.6796,-3.6346,-3.6346,-3.6346,-3.5885,-3.55,-3.55,-3.55,-3.55,-3.55,-3.55,-3.5432,-3.5239,-3.4368,-3.3807,-3.3807,-3.1353,-3.095,-3.3623,-3.3807,-3.3815,-3.3881,-3.3817,-3.3762,-3.3686,-3.4555,-3.4606,-3.3808,-3.3295,-3.316,-3.3333,-3.3045,-3.3064,-3.3333,-3.3199,-3.3074,-3.3024,-3.3248,-3.3125,-3.2821,-3.3224,-3.3768,-3.4375,-3.4686,-3.5818,-3.7222,-3.7189,-3.8088,-3.9194,-3.8464,-3.9238,-4.0311,-3.9228,-3.9489,-4.0101,-3.9786,-4.0207,-4.0735,-4.0397,-4.1002,-4.1649,-4.1376,-4.1339,-4.1162,-4.0337,-4.0127,-3.9848,-3.8928,-3.9467,-3.9863,-3.9056,-3.9551,-4.0102,-4.0102,-4.0102,-4.0341,-4.1003,-4.1224,-4.1297,-4.1297,-4.1297,-4.1297,-4.1297,-4.1297,-4.1644,-4.2433,-4.1901,-4.1809,-4.247,-4.1754,-4.137,-4.1499,-4.137,-4.1148,-4.0854,-4.0654,-4.0123,-3.9212,-3.8665,-3.8289,-3.8091,-3.8227,-3.8616,-3.914,-3.8531,-3.8616,-3.9172,-3.8957,-3.8556,-3.8139,-3.8511,-3.8345,-3.799,-3.8717,-3.9486,-4.0096,-3.9335,-3.9823,-3.9823,-3.9823,-3.743,-3.55,-3.55,-3.55,-3.55,-3.55,-3.55,-3.5119,-3.4141,-3.3889,-3.3807,-3.3807,-3.3403,-3.3348,-3.377,-3.3807,-3.3902,-3.4135,-3.4412,-3.4649,-3.4873,-3.5239,-3.4889,-3.3808,-3.3712,-3.4173,-3.5115,-3.3603,-3.3699,-3.5115,-3.4353,-3.4416,-3.51,-3.5128,-3.4686,-3.4045,-3.4962,-3.4979,-3.4643,-3.6286,-3.7442,-3.8209,-3.8207,-3.8712,-3.9365,-3.9189,-3.9746,-4.0354,-3.9496,-3.9796,-4.0389,-4.0101,-4.0404,-4.0735,-4.0397,-4.1221,-4.2187,-4.2156,-4.2304,-4.2265,-4.1378,-4.1047,-4.0559,-3.9224,-4.0025,-4.0689,-3.9882,-4.0396,-4.093,-4.093,-4.093,-4.0967,-4.1077,-4.1699,-4.2139,-4.2139,-4.2139,-4.2139,-4.2139,-4.2139,-4.247,-4.3277,-4.3239,-4.3222,-4.3331,-4.2561,-4.2451,-4.3149,-4.2506,-4.2436,-4.3061,-4.2101,-4.1516,-4.1368,-4.0791,-3.9935,-3.887,-3.952,-3.9859,-3.996,-3.9859,-3.9859,-3.9943,-3.99,-3.9493,-3.8877,-3.8916,-3.8519,-3.799,-3.8717,-3.9486,-4.0096,-4.0208,-4.0496,-4.0496,-4.0496,-3.9284,-3.7661,-3.5788,-3.55,-3.55,-3.55,-3.55,-3.5077,-3.3928,-3.3807,-3.3807,-3.3807,-3.3807,-3.3807,-3.3807,-3.4111,-3.4272,-3.42,-3.4656,-3.4981,-3.5096,-3.5361,-3.525,-3.475,-3.475,-3.5019,-3.5481,-3.4712,-3.475,-3.5481,-3.5103,-3.506,-3.5281,-3.5281,-3.5051,-3.4737,-3.523,-3.5605,-3.5999,-3.6905,-3.8076,-3.9285,-3.9624,-3.9917,-4.0099,-4.0005,-4.0208,-4.0439,-4.0073,-4.0208,-4.0414,-3.9944,-4.0605,-4.1361,-4.0885,-4.183,-4.2965,-4.2965,-4.2832,-4.2508,-4.1799,-4.1558,-4.1137,-3.9932,-4.0528,-4.112,-4.0659,-4.124,-4.1772,-4.1772,-4.1772,-4.1937,-4.2378,-4.2745,-4.2965,-4.2965,-4.2965,-4.2965,-4.2965,-4.2965,-4.3112,-4.3478,-4.3515,-4.3515,-4.3515,-4.3149,-4.313,-4.3496,-4.3149,-4.313,-4.3515,-4.2696,-4.2302,-4.2302,-4.1686,-4.0913,-4.0089,-4.0415,-4.0552,-4.0528,-4.0229,-4.0096,-4.0096,-4.0096,-3.991,-3.9622,-3.9622,-3.9436,-3.9157,-3.9503,-3.9825,-4.0096]},{"header":{"parameterUnit":"m.s-1","parameterCategory":1,"la1":30.6,"la2":28.766,"lo1":-90.7593,"lo2":-88.6598,"dy":0.0162,"dx":0.0183,"nx":116,"ny":114,"refTime":"2023-07-02T12:00:00:Z","depth":0,"parameterNumber":3,"parameterNumberName":"V-component_of_WINDS"},"data":[0.0,0.0,0.0,0.0,0.0,0.0,0.0,0.0,0.0,0.0,0.0,0.0,0.0,0.0,0.0,0.0,0.0,0.0,0.0,0.0,0.0,0.0,0.0,0.0,0.0,0.0,0.0,0.0,0.0,0.0,0.0,0.0,0.0,0.0,0.0,0.0,0.0,0.0,0.0,0.0,0.0,0.0,0.0,0.0,0.0,0.0,0.0,0.0,0.0,0.0,0.0,0.0,0.0,0.0,0.0,0.0,0.0,0.0,0.0,0.0,0.0,0.0,0.0,0.0,0.0,0.0,0.0,0.0,0.0,0.0,0.0,0.0,0.0,0.0,0.0,0.0,0.0,0.0,0.0,0.0,0.0,0.0,0.0,0.0,0.0,0.0,0.0,0.0,0.0,0.0,0.0,0.0,0.0,0.0,0.0,0.0,0.0,0.0,0.0,0.0,0.0,0.0,0.0,0.0,0.0,0.0,0.0,0.0,0.0,0.0,0.0,0.0,0.0,0.0,0.0,0.0,0.0,0.0,0.0,0.0,0.0,0.0,0.0,0.0,0.0,0.0,0.0,0.0,0.0,0.0,0.0,0.0,0.0,0.0,0.0,0.0,0.0,0.0,0.0,0.0,0.0,0.0,0.0,0.0,0.0,0.0,0.0,0.0,0.0,0.0,0.0,0.0,0.0,0.0,0.0,0.0,0.0,0.0,0.0,0.0,0.0,0.0,0.0,0.0,0.0,0.0,0.0,0.0,0.0,0.0,0.0,0.0,0.0,0.0,0.0,0.0,0.0,0.0,0.0,0.0,0.0,0.0,0.0,0.0,0.0,0.0,0.0,0.0,0.0,0.0,0.0,0.0,0.0,0.0,0.0,0.0,0.0,0.0,0.0,0.0,0.0,0.0,0.0,0.0,0.0,0.0,0.0,0.0,0.0,0.0,0.0,0.0,0.0,0.0,0.0,0.0,0.0,0.0,0.0,0.0,0.0,0.0,0.0,0.0,0.0,0.0,0.0,0.0,0.0,0.0,0.0,0.0,0.0,0.0,0.0,0.0,0.0,0.0,0.0,0.0,0.0,0.0,0.0,0.0,0.0,0.0,0.0,0.0,0.0,0.0,0.0,0.0,0.0,0.0,0.0,0.0,0.0,0.0,0.0,0.0,0.0,0.0,0.0,0.0,0.0,0.0,0.0,0.0,0.0,0.0,0.0,0.0,0.0,0.0,0.0,0.0,0.0,0.0,0.0,0.0,0.0,0.0,0.0,0.0,0.0,0.0,0.0,0.0,0.0,0.0,0.0,0.0,0.0,0.0,0.0,0.0,0.0,0.0,0.0,0.0,0.0,0.0,0.0,0.0,0.0,0.0,0.0,0.0,0.0,0.0,0.0,0.0,0.0,0.0,0.0,0.0,0.0,0.0,0.0,0.0,0.0,0.0,0.0,0.0,0.0,0.0,0.0,0.0,0.0,0.0,0.0,0.0,0.0,0.0,0.0,0.0,0.0,0.0,0.0,0.0,0.0,0.0,0.0,0.0,0.0,0.0,0.0,0.0,0.0,0.0,0.0,0.0,0.0,0.0,0.0,0.0,0.0,0.0,0.0,0.0,0.0,0.0,0.0,0.0,0.0,0.0,0.0,0.0,0.0,0.0,0.0,0.0,0.0,0.0,0.0,0.0,0.0,0.0,0.0,0.0,0.0,0.0,0.0,0.0,0.0,0.0,0.0,0.0,0.0,0.0,0.0,0.0,0.0,0.0,0.0,0.0,0.0,0.0,0.0,0.0,0.0,0.0,0.0,0.0,0.0,0.0,0.0,0.0,0.0,0.0,0.0,0.0,0.0,0.0,0.0,0.0,0.0,0.0,0.0,0.0,0.0,0.0,0.0,0.0,0.0,0.0,0.0,0.0,0.0,0.0,0.0,0.0,0.0,0.0,0.0,0.0,0.0,0.0,0.0,0.0,0.0,0.0,0.0,0.0,0.0,0.0,0.0,0.0,0.0,0.0,0.0,0.0,0.0,0.0,0.0,0.0,0.0,0.0,0.0,0.0,0.0,0.0,0.0,0.0,0.0,0.0,0.0,0.0,0.0,0.0,0.0,0.0,0.0,0.0,0.0,0.0,0.0,0.0,0.0,0.0,0.0,0.0,0.0,0.0,0.0,0.0,0.0,0.0,0.0,0.0,0.0,0.0,0.0,0.0,0.0,0.0,0.0,0.0,0.0,0.0,0.0,0.0,0.0,0.0,0.0,0.0,0.0,0.0,0.0,0.0,0.0,0.0,0.0,0.0,0.0,0.0,0.0,0.0,0.0,0.0,0.0,0.0,0.0,0.0,0.0,0.0,0.0,0.0,0.0,0.0,0.0,0.0,0.0,0.0,0.0,0.0,0.0,0.0,0.0,0.0,0.0,0.0,0.0,0.0,0.0,0.0,0.0,0.0,0.0,0.0,0.0,0.0,0.0,0.0,0.0,0.0,0.0,0.0,0.0,0.0,0.0,0.0,0.0,0.0,0.0,0.0,0.0,0.0,0.0,0.0,0.0,0.0,0.0,0.0,0.0,0.0,0.0,0.0,0.0,0.0,0.0,0.0,0.0,0.0,0.0,0.0,0.0,0.0,0.0,0.0,0.0,0.0,0.0,0.0,0.0,0.0,0.0,0.0,0.0,0.0,0.0,0.0,0.0,0.0,0.0,0.0,0.0,0.0,0.0,0.0,0.0,0.0,0.0,0.0,0.0,0.0,0.0,0.0,0.0,0.0,0.0,0.0,0.0,0.0,0.0,0.0,0.0,0.0,0.0,0.0,0.0,0.0,0.0,0.0,0.0,0.0,0.0,0.0,0.0,0.0,0.0,0.0,0.0,0.0,0.0,0.0,0.0,0.0,0.0,0.0,0.0,0.0,0.0,0.0,0.0,0.0,0.0,0.0,0.0,0.0,0.0,0.0,0.0,0.0,0.0,0.0,0.0,0.0,0.0,0.0,0.0,0.0,0.0,0.0,0.0,0.0,0.0,0.0,0.0,0.0,0.0,0.0,0.0,0.0,0.0,0.0,0.0,0.0,0.0,0.0,0.0,0.0,0.0,0.0,0.0,0.0,0.0,0.0,0.0,0.0,0.0,0.0,0.0,0.0,0.0,0.0,0.0,0.0,0.0,0.0,0.0,0.0,0.0,0.0,0.0,0.0,0.0,0.0,0.0,0.0,0.0,0.0,0.0,0.0,0.0,0.0,0.0,0.0,0.0,0.0,0.0,0.0,0.0,0.0,0.0,0.0,0.0,0.0,0.0,0.0,0.0,0.0,0.0,0.0,0.0,0.0,0.0,0.0,0.0,0.0,0.0,0.0,0.0,0.0,0.0,0.0,0.0,0.0,0.0,0.0,0.0,0.0,0.0,0.0,0.0,0.0,0.0,0.0,0.0,0.0,0.0,0.0,0.0,0.0,0.0,0.0,0.0,0.0,0.0,0.0,0.0,0.0,0.0,0.0,0.0,0.0,0.0,0.0,0.0,0.0,0.0,0.0,0.0,0.0,0.0,0.0,0.0,0.0,0.0,0.0,0.0,0.0,0.0,0.0,0.0,0.0,0.0,0.0,0.0,0.0,0.0,0.0,0.0,0.0,0.0,0.0,0.0,0.0,0.0,0.0,0.0,0.0,0.0,0.0,0.0,0.0,0.0,0.0,0.0,0.0,0.0,0.0,0.0,0.0,0.0,0.0,0.0,0.0,0.0,0.0,0.0,0.0,0.0,0.0,0.0,0.0,0.0,0.0,0.0,0.0,0.0,0.0,0.0,0.0,0.0,0.0,0.0,0.0,0.0,0.0,0.0,0.0,0.0,0.0,0.0,0.0,0.0,0.0,0.0,0.0,0.0,0.0,0.0,0.0,0.0,0.0,0.0,0.0,0.0,0.0,0.0,0.0,0.0,0.0,0.0,0.0,0.0,0.0,0.0,0.0,0.0,0.0,0.0,0.0,0.0,0.0,0.0,0.0,0.0,0.0,0.0,0.0,0.0,0.0,0.0,0.0,0.0,0.0,0.0,0.0,0.0,0.0,0.0,0.0,0.0,0.0,0.0,0.0,0.0,0.0,0.0,0.0,0.0,0.0,0.0,0.0,0.0,0.0,0.0,0.0,0.0,0.0,0.0,0.0,0.0,0.0,0.0,0.0,0.0,0.0,0.0,0.0,0.0,0.0,0.0,0.0,0.0,0.0,0.0,0.0,0.0,0.0,0.0,0.0,0.0,0.0,0.0,0.0,0.0,0.0,0.0,0.0,0.0,0.0,0.0,0.0,0.0,0.0,0.0,0.0,0.0,0.0,0.0,0.0,0.0,0.0,0.0,0.0,0.0,0.0,0.0,0.0,0.0,0.0,0.0,0.0,0.0,0.0,0.0,0.0,0.0,0.0,0.0,0.0,0.0,0.0,0.0,0.0,0.0,0.0,0.0,0.0,0.0,0.0,0.0,0.0,0.0,0.0,0.0,0.0,0.0,0.0,0.0,0.0,0.0,0.0,0.0,0.0,0.0,0.0,0.0,0.0,0.0,0.0,0.0,0.0,0.0,0.0,0.0,0.0,0.0,0.0,0.0,0.0,0.0,0.0,0.0,0.0,0.0,0.0,0.0,0.0,0.0,0.0,0.0,0.0,0.0,0.0,0.0,0.0,0.0,0.0,0.0,0.0,0.0,0.0,0.0,0.0,0.0,0.0,0.0,0.0,0.0,0.0,0.0,0.0,0.0,0.0,0.0,0.0,0.0,0.0,0.0,0.0,0.0,0.0,0.0,0.0,0.0,0.0,0.0,0.0,0.0,0.0,0.0,0.0,0.0,0.0,0.0,0.0,0.0,0.0,0.0,0.0,0.0,0.0,0.0,0.0,0.0,0.0,0.0,0.0,0.0,0.0,0.0,0.0,0.0,0.0,0.0,0.0,0.0,0.0,0.0,0.0,0.0,0.0,0.0,0.0,0.0,0.0,0.0,0.0,0.0,0.0,0.0,0.0,0.0,0.0,0.0,0.0,0.0,0.0,0.0,0.0,0.0,0.0,0.0,0.0,0.0,0.0,0.0,0.0,0.0,0.0,0.0,0.0,0.0,0.0,0.0,0.0,0.0,0.0,0.0,0.0,0.0,0.0,0.0,0.0,0.0,0.0,0.0,0.0,0.0,0.0,0.0,0.0,0.0,0.0,0.0,0.0,0.0,0.0,0.0,0.0,0.0,0.0,0.0,0.0,0.0,0.0,0.0,0.0,0.0,0.0,0.0,0.0,0.0,0.0,0.0,0.0,0.0,0.0,0.0,0.0,0.0,0.0,0.0,0.0,0.0,0.0,0.0,0.0,0.0,0.0,0.0,0.0,0.0,0.0,0.0,0.0,0.0,0.0,0.0,0.0,0.0,0.0,0.0,0.0,0.0,0.0,0.0,0.0,0.0,0.0,0.0,0.0,0.0,0.0,0.0,0.0,0.0,0.0,0.0,0.0,0.0,0.0,0.0,0.0,0.0,0.0,0.0,0.0,0.0,0.0,0.0,0.0,0.0,0.0,0.0,0.0,0.0,0.0,0.0,0.0,0.0,0.0,0.0,0.0,0.0,0.0,0.0,0.0,0.0,0.0,0.0,0.0,0.0,0.0,0.0,0.0,0.0,0.0,0.0,0.0,0.0,0.0,0.0,0.0,0.0,0.0,0.0,0.0,0.0,0.0,0.0,0.0,0.0,0.0,0.0,0.0,0.0,0.0,0.0,0.0,0.0,0.0,0.0,0.0,0.0,0.0,0.0,0.0,0.0,0.0,0.0,0.0,0.0,0.0,0.0,0.0,0.0,0.0,0.0,0.0,0.0,0.0,0.0,0.0,0.0,0.0,0.0,0.0,0.0,0.0,0.0,0.0,0.0,0.0,0.0,0.0,0.0,0.0,0.0,0.0,0.0,0.0,0.0,0.0,0.0,0.0,0.0,0.0,0.0,0.0,0.0,0.0,0.0,0.0,0.0,0.0,0.0,0.0,0.0,0.0,0.0,0.0,0.0,0.0,0.0,0.0,0.0,0.0,0.0,0.0,0.0,0.0,0.0,0.0,0.0,0.0,0.0,0.0,0.0,0.0,0.0,0.0,0.0,0.0,0.0,0.0,-1.8087,-1.806,0.0,0.0,0.0,0.0,0.0,0.0,0.0,0.0,0.0,0.0,0.0,0.0,0.0,0.0,0.0,0.0,0.0,0.0,0.0,0.0,0.0,0.0,0.0,0.0,0.0,0.0,0.0,0.0,0.0,0.0,0.0,0.0,0.0,0.0,0.0,0.0,0.0,0.0,0.0,0.0,0.0,0.0,0.0,0.0,0.0,0.0,0.0,0.0,0.0,0.0,0.0,0.0,0.0,0.0,0.0,0.0,0.0,0.0,0.0,0.0,0.0,0.0,0.0,0.0,0.0,0.0,0.0,0.0,0.0,0.0,0.0,0.0,0.0,0.0,0.0,0.0,0.0,0.0,0.0,0.0,0.0,0.0,0.0,0.0,0.0,0.0,0.0,0.0,0.0,0.0,0.0,0.0,0.0,0.0,0.0,0.0,0.0,0.0,0.0,0.0,0.0,0.0,0.0,0.0,0.0,0.0,0.0,0.0,0.0,0.0,0.0,0.0,0.0,0.0,-1.8144,-1.7945,0.0,0.0,0.0,0.0,0.0,0.0,0.0,0.0,0.0,0.0,0.0,0.0,0.0,0.0,0.0,0.0,0.0,0.0,0.0,0.0,0.0,0.0,0.0,0.0,0.0,0.0,0.0,0.0,0.0,0.0,0.0,0.0,0.0,0.0,0.0,0.0,0.0,0.0,0.0,0.0,0.0,0.0,0.0,0.0,0.0,0.0,0.0,0.0,0.0,0.0,0.0,0.0,0.0,0.0,0.0,0.0,0.0,0.0,0.0,0.0,0.0,0.0,0.0,0.0,0.0,0.0,0.0,0.0,0.0,0.0,0.0,0.0,0.0,0.0,0.0,0.0,0.0,0.0,0.0,0.0,0.0,0.0,0.0,0.0,0.0,0.0,0.0,0.0,0.0,0.0,0.0,0.0,0.0,0.0,0.0,0.0,0.0,0.0,0.0,0.0,0.0,0.0,0.0,0.0,0.0,0.0,0.0,0.0,-1.7965,-1.8007,-1.7961,-1.8474,-1.8501,-1.8152,-1.8387,-1.8027,-1.7259,-1.726,0.0,0.0,0.0,0.0,0.0,0.0,0.0,0.0,0.0,0.0,0.0,0.0,0.0,0.0,0.0,0.0,0.0,0.0,0.0,0.0,0.0,-0.6341,-0.6718,-0.6927,-0.716,-0.7295,0.0,0.0,0.0,0.0,0.0,0.0,0.0,0.0,0.0,0.0,0.0,0.0,-1.4474,-1.528,-1.5898,-1.632,-1.5988,0.0,0.0,0.0,0.0,0.0,0.0,0.0,0.0,0.0,0.0,0.0,0.0,0.0,0.0,0.0,0.0,0.0,0.0,0.0,0.0,0.0,0.0,0.0,0.0,0.0,0.0,0.0,0.0,0.0,0.0,0.0,0.0,0.0,0.0,0.0,0.0,0.0,0.0,0.0,0.0,0.0,0.0,0.0,-0.9702,-1.5511,0.0,0.0,0.0,0.0,0.0,0.0,0.0,0.0,0.0,0.0,0.0,0.0,0.0,-1.8156,-1.8658,-1.8185,-1.7755,-1.737,-1.7686,-1.7659,-1.7331,-1.776,-1.8215,-1.8671,-1.8254,0.0,-1.7873,-1.7877,0.0,0.0,0.0,0.0,0.0,0.0,0.0,0.0,0.0,0.0,0.0,0.0,0.0,0.0,0.0,0.0,0.0,0.0,0.0,0.0,0.0,-0.623,-0.6634,-0.6723,-0.7365,-0.7552,-0.7066,0.0,0.0,0.0,0.0,0.0,0.0,0.0,0.0,0.0,-1.2104,-1.357,-1.4826,-1.583,-1.6484,-1.6788,-1.6174,-1.6033,-1.6169,-1.5536,0.0,0.0,0.0,0.0,0.0,0.0,0.0,0.0,0.0,0.0,0.0,0.0,0.0,0.0,0.0,0.0,0.0,0.0,0.0,0.0,0.0,0.0,0.0,0.0,0.0,0.0,0.0,0.0,0.0,0.0,0.0,0.0,0.0,0.0,0.0,0.0,0.0,0.0,0.0,-1.3301,-1.3022,-1.5719,-1.645,-1.6921,0.0,0.0,0.0,0.0,0.0,0.0,0.0,0.0,0.0,-1.8519,-1.8165,-1.7954,-1.7941,-1.7981,-1.7784,-1.7346,-1.7821,-1.7932,-1.7769,-1.8267,-1.863,-1.8926,-1.9347,-1.932,-1.8946,-1.8052,-1.7346,-1.6858,0.0,0.0,0.0,0.0,-1.6999,-1.7049,0.0,0.0,0.0,0.0,0.0,0.0,0.0,0.0,0.0,0.0,0.0,0.0,-0.5435,-0.6094,-0.652,-0.6575,-0.7311,-0.7491,-0.684,-0.6913,0.0,0.0,0.0,0.0,0.0,0.0,0.0,-1.1623,-1.318,-1.4439,-1.5403,-1.6528,-1.7118,-1.7185,-1.6596,-1.6047,-1.5536,-1.5078,-1.4555,0.0,0.0,0.0,0.0,0.0,0.0,0.0,0.0,0.0,0.0,0.0,0.0,0.0,0.0,0.0,0.0,0.0,0.0,0.0,0.0,0.0,0.0,0.0,0.0,0.0,0.0,0.0,0.0,0.0,0.0,0.0,0.0,0.0,0.0,0.0,0.0,0.0,0.0,-1.4578,-1.592,-1.5746,-1.5958,-1.6349,0.0,0.0,0.0,0.0,0.0,0.0,-1.7302,-1.766,-1.8154,-1.8764,-1.815,-1.7752,-1.7651,-1.805,-1.8111,-1.7815,-1.8355,-1.8694,-1.8844,-1.9083,-1.9359,-1.9672,-2.0402,-2.0528,-2.0125,-1.8781,-1.7802,-1.714,-1.714,-1.7052,-1.7024,-1.7589,-1.7714,-1.7712,0.0,0.0,0.0,0.0,0.0,0.0,0.0,0.0,0.0,0.0,0.0,-0.4903,-0.5445,-0.5939,-0.6297,-0.6483,-0.6558,-0.6558,-0.6524,-0.5942,-0.5696,0.0,0.0,0.0,0.0,0.0,0.0,-1.3842,-1.4133,-1.5202,-1.6991,-1.7702,-1.804,-1.8029,-1.7484,-1.6883,-1.6139,-1.4472,-1.4196,-1.4733,0.0,0.0,0.0,0.0,0.0,0.0,0.0,0.0,0.0,0.0,0.0,0.0,0.0,0.0,0.0,0.0,0.0,0.0,0.0,0.0,0.0,0.0,0.0,0.0,0.0,0.0,0.0,0.0,0.0,0.0,0.0,0.0,0.0,0.0,0.0,0.0,0.0,0.0,0.0,-1.4333,-1.4525,0.0,0.0,0.0,0.0,-1.72,-1.712,-1.732,-1.7924,-1.7444,-1.7671,-1.8768,-1.7788,-1.7786,-1.8897,-1.8945,-1.8945,-1.8933,-1.9472,-2.0012,-2.0553,-1.9999,-2.0351,-2.1343,-2.0893,-2.0968,-2.1355,-2.0779,-1.9874,-1.887,-1.887,-1.8556,-1.8191,-1.8719,-1.8594,-1.8317,0.0,0.0,0.0,0.0,0.0,0.0,0.0,0.0,0.0,-0.4114,-0.4527,-0.4946,-0.5621,-0.6002,-0.6328,-0.6667,-0.6929,-0.6855,-0.634,-0.6165,-0.5949,0.0,0.0,0.0,0.0,0.0,-1.1857,-1.3618,-1.4518,-1.5678,-1.7114,-1.7777,-1.7927,-1.7565,-1.6975,-1.6397,-1.5812,-1.523,-1.4356,-1.335,-1.3271,-1.2848,0.0,0.0,0.0,0.0,0.0,0.0,0.0,0.0,0.0,0.0,0.0,0.0,0.0,0.0,0.0,0.0,0.0,0.0,0.0,0.0,0.0,0.0,0.0,0.0,0.0,0.0,0.0,0.0,0.0,0.0,0.0,0.0,0.0,0.0,0.0,0.0,0.0,-1.451,-1.5138,0.0,-1.6381,-1.674,-1.7048,-1.727,-1.7303,-1.7547,-1.8104,-1.7913,-1.8313,-1.9419,-1.8732,-1.8719,-1.9506,-1.9522,-1.9497,-1.9522,-1.971,-1.9911,-2.0138,-2.0314,-2.0603,-2.1018,-2.1506,-2.1832,-2.2008,-2.1807,-2.1079,-1.9974,-1.892,-1.8794,-1.9258,-1.9447,-1.9635,-1.9912,0.0,0.0,0.0,0.0,0.0,0.0,0.0,0.0,0.0,-0.3984,-0.4536,-0.4989,-0.5515,-0.6124,-0.6499,-0.6467,-0.6827,-0.6778,-0.6113,-0.5997,-0.5911,0.0,-0.6911,0.0,0.0,-1.0839,-1.2303,-1.3771,-1.4896,-1.5944,-1.6903,-1.7337,-1.7374,-1.7013,-1.6403,-1.5928,-1.5586,-1.5437,-1.444,-1.2958,-1.2812,-1.244,-1.1883,0.0,0.0,0.0,0.0,0.0,0.0,0.0,0.0,0.0,0.0,0.0,0.0,0.0,0.0,0.0,0.0,0.0,0.0,0.0,0.0,0.0,0.0,0.0,0.0,0.0,0.0,0.0,0.0,0.0,0.0,0.0,0.0,0.0,0.0,-1.5015,-1.4708,-1.5242,-1.5864,-1.6382,-1.6772,-1.7133,-1.7333,-1.7333,-1.7705,-1.809,-1.8455,-1.848,-1.8888,-1.9778,-1.9281,-1.9259,-1.9798,-1.9798,-1.9798,-1.9798,-1.9798,-1.9911,-2.0138,-2.0515,-2.0893,-2.1282,-2.1995,-2.2393,-2.2543,-2.2355,-2.1995,-2.1355,-1.9886,-1.9635,-2.0111,-2.0194,-2.0536,-2.1043,0.0,0.0,0.0,0.0,0.0,0.0,0.0,-0.1422,-0.2319,-0.3712,-0.4536,-0.5026,-0.5117,-0.6287,-0.6719,-0.5891,-0.6162,-0.6211,-0.5832,-0.5361,-0.5462,0.0,0.0,0.0,-0.9657,-1.1792,-1.3428,-1.4518,-1.531,-1.5969,-1.65,-1.65,-1.65,-1.6457,-1.5842,-1.5565,-1.5499,-1.4903,-1.4339,-1.374,-1.2328,-1.1954,-1.212,0.0,0.0,0.0,0.0,0.0,0.0,0.0,0.0,0.0,0.0,0.0,0.0,0.0,0.0,0.0,0.0,0.0,0.0,0.0,0.0,0.0,0.0,0.0,0.0,0.0,0.0,0.0,0.0,0.0,0.0,0.0,0.0,0.0,-1.5206,-1.5416,-1.5789,-1.6451,-1.655,-1.681,-1.7373,-1.7448,-1.7461,-1.7473,-1.8468,-1.9058,-1.9083,-1.9083,-1.9309,-1.9836,-1.9346,-1.9321,-1.9849,-1.9849,-1.9849,-1.9849,-1.9849,-2.015,-2.0717,-2.0729,-2.1333,-2.2309,-2.2334,-2.2606,-2.3058,-2.2506,-2.2594,-2.297,-2.192,-2.1207,-2.0811,-2.0976,-2.1241,-2.1619,0.0,0.0,0.0,0.0,0.0,0.0,0.0,-0.1577,-0.2529,-0.3743,-0.441,-0.4991,-0.5545,-0.5939,-0.6184,-0.623,-0.6066,-0.5919,-0.5813,-0.5361,-0.5715,0.0,0.0,0.0,-1.1014,-1.2028,-1.3285,-1.479,-1.5414,-1.5969,-1.65,-1.65,-1.6259,-1.582,-1.522,-1.4687,-1.4249,-1.3647,-1.3321,-1.3148,-1.2839,-1.2345,-1.1732,0.0,0.0,0.0,0.0,0.0,0.0,0.0,0.0,0.0,0.0,0.0,0.0,0.0,0.0,0.0,0.0,0.0,0.0,0.0,0.0,0.0,0.0,0.0,0.0,0.0,0.0,0.0,0.0,0.0,0.0,0.0,-1.4222,-1.4405,-1.524,-1.6227,-1.695,-1.7134,-1.7852,-1.8218,-1.8003,-1.8342,-1.8731,-1.9108,-1.9837,-2.0388,-2.079,-2.0815,-2.0878,-2.1016,-2.0891,-2.0878,-2.1029,-2.1029,-2.1029,-2.1029,-2.1029,-2.1104,-2.1307,-2.1681,-2.202,-2.2305,-2.2706,-2.2957,-2.3058,-2.2506,-2.2397,-2.2443,-2.1757,-2.1882,-2.2418,-2.2072,-2.2255,-2.2681,0.0,0.0,0.0,0.0,0.0,0.0,0.0,-0.1381,-0.24,-0.3432,-0.4295,-0.4911,-0.5143,-0.5699,-0.5951,-0.5712,-0.5756,-0.5714,-0.5518,-0.5889,0.0,0.0,0.0,-1.0031,-1.1565,-1.232,-1.352,-1.5236,-1.5529,-1.595,-1.65,-1.65,-1.6194,-1.5565,-1.4971,-1.4352,-1.3755,-1.3152,-1.2905,-1.291,-1.298,-1.2672,-1.2064,-1.1438,-1.149,-1.1773,-1.0784,-1.0835,-1.1237,-1.0429,0.0,0.0,0.0,0.0,0.0,0.0,0.0,0.0,0.0,0.0,0.0,0.0,0.0,0.0,0.0,0.0,0.0,0.0,0.0,0.0,0.0,0.0,0.0,0.0,-1.4935,-1.574,-1.6586,-1.7219,-1.7808,-1.8343,-1.9171,-1.9497,-1.8932,-1.9133,-1.9572,-2.0125,-2.0717,-2.1182,-2.1468,-2.1707,-2.1732,-2.1493,-2.1493,-2.1493,-2.1493,-2.1131,-2.0949,-2.0949,-2.0949,-2.0949,-2.099,-2.1873,-2.2309,-2.2347,-2.2869,-2.3108,-2.3083,-2.2757,-2.2631,-2.2569,0.0,0.0,0.0,0.0,-2.2611,-2.2641,0.0,0.0,0.0,0.0,0.0,0.0,0.0,-0.0924,-0.201,-0.2895,-0.4042,-0.4691,-0.4419,-0.5436,-0.5743,-0.4779,-0.5281,-0.5494,-0.5088,-0.6499,0.0,-0.7154,-0.9378,-1.0922,-1.1559,-1.2663,-1.3997,-1.5591,-1.5675,-1.5986,-1.65,-1.65,-1.6139,-1.5477,-1.4949,-1.4329,-1.3661,-1.3128,-1.2935,-1.2949,-1.2925,-1.2905,-1.2817,-1.1976,-1.1885,-1.2135,-1.1682,-1.133,-1.1024,-1.0927,0.0,0.0,0.0,0.0,0.0,0.0,0.0,0.0,0.0,0.0,0.0,0.0,0.0,0.0,0.0,0.0,0.0,0.0,0.0,0.0,0.0,0.0,0.0,0.0,-1.6225,-1.792,-1.856,-1.834,-1.8598,-1.9833,-2.0465,-2.0578,-2.0037,-1.9936,-2.0162,-2.083,-2.1333,-2.1606,-2.1669,-2.2196,0.0,0.0,0.0,-2.1857,-2.1857,-2.0943,-2.0499,-2.0499,-2.0499,-2.0499,-2.054,-2.1881,-2.2506,-2.2611,-2.2945,-2.3183,-2.3283,-2.3158,-2.3108,-2.3058,-2.2569,-2.2397,-2.246,-2.292,-2.2641,-2.2125,0.0,0.0,0.0,0.0,0.0,0.0,0.0,-0.0297,-0.1408,-0.2331,-0.3044,-0.384,-0.4836,-0.466,-0.4511,-0.4616,-0.4745,-0.4815,-0.4774,0.0,-0.6688,-0.7392,-0.9171,-1.0567,-1.15,-1.3097,-1.4257,-1.4977,-1.5893,-1.638,-1.65,-1.65,-1.5932,-1.488,-1.4744,-1.4084,-1.3065,-1.2954,-1.3101,-1.3359,-1.3042,-1.2905,-1.2846,-1.2305,-1.2125,-1.2106,-1.1328,-1.1436,-1.1843,-1.1131,-1.1258,-1.1714,-1.1868,0.0,0.0,0.0,0.0,0.0,0.0,0.0,0.0,0.0,0.0,0.0,0.0,0.0,0.0,0.0,0.0,0.0,0.0,0.0,0.0,-1.5058,-1.5895,-1.7184,-1.9334,-1.9573,-1.9936,-2.1054,-2.1255,-2.1292,-2.1179,-2.0779,-2.0943,-2.192,-2.2096,-2.2347,-2.2757,-2.3364,-2.3615,-2.3514,-2.3941,-2.4148,-2.4148,-2.288,-2.223,-2.223,-2.223,0.0,-2.223,-2.3232,-2.3916,-2.4261,-2.3446,-2.3622,-2.4399,-2.3484,-2.3108,-2.3095,-2.2995,-2.2945,-2.2957,-2.3058,-2.3005,-2.2884,0.0,0.0,0.0,0.0,0.0,0.0,0.0,0.0022,-0.0982,-0.1927,-0.2779,-0.3441,-0.3805,-0.3517,-0.3339,-0.344,-0.4185,-0.4725,0.0,-0.594,-0.6813,-0.7383,-0.9163,-1.05,-1.1285,-1.2355,-1.3404,-1.4446,-1.4688,-1.5075,-1.5611,-1.5611,-1.513,-1.426,-1.426,-1.3868,-1.3184,-1.2993,-1.3125,-1.3416,-1.2672,-1.2353,-1.2369,-1.2507,-1.2559,-1.25,-1.2061,-1.2041,-1.2135,-1.1697,-1.155,-1.1606,-1.1869,-1.1662,-1.1409,0.0,0.0,0.0,0.0,0.0,0.0,0.0,0.0,0.0,0.0,0.0,0.0,0.0,0.0,-1.5115,0.0,0.0,-1.5572,-1.5997,-1.6976,-1.8143,-1.9425,-2.0347,-2.1162,-2.1815,-2.1895,-2.1794,-2.1546,-2.127,-2.1418,-2.2246,-2.2309,-2.2518,-2.307,-2.369,-2.4004,-2.4004,-2.4531,-2.4788,-2.4788,-2.3173,-2.2359,-2.2359,-2.2072,-2.2083,-2.2392,-2.3511,-2.4305,-2.4763,-2.4199,-2.4261,-2.4725,-2.3885,-2.3534,-2.3509,-2.3221,-2.3108,-2.3108,-2.3108,-2.3108,-2.3108,0.0,0.0,0.0,0.0,0.0,0.0,0.0,0.0,-0.0445,-0.1487,-0.2395,-0.2809,-0.2479,-0.2441,-0.247,-0.2533,-0.366,0.0,0.0,-0.6106,-0.6888,-0.7234,-0.9027,-1.0271,-1.0793,-1.133,-1.227,-1.3679,-1.3325,-1.3651,-1.4586,-1.4586,-1.4288,-1.3792,-1.3792,-1.3638,-1.3359,-1.2885,-1.2932,-1.3202,-1.2061,-1.1653,-1.1808,-1.2292,-1.2486,-1.2491,-1.246,-1.2157,-1.1759,-1.1905,-1.1482,-1.1006,-1.1545,-1.1865,-1.1994,-1.1747,-1.2046,0.0,0.0,0.0,0.0,0.0,0.0,0.0,0.0,0.0,-1.687,-1.7348,-1.658,-1.5977,-1.6382,-1.6656,-1.6853,-1.6931,-1.8203,-1.9237,-1.9507,-2.0751,-2.1846,-2.2405,-2.2343,-2.2184,-2.1845,-2.1707,-2.1882,-2.2435,-2.2472,-2.2631,-2.3083,-2.376,-2.4155,-2.4155,-2.4795,-2.5146,-2.5146,-2.3174,-2.2181,-2.2181,-2.1755,-2.1766,-2.2205,-2.3652,-2.4607,-2.5146,-2.5146,-2.4988,-2.4763,-2.4456,-2.418,-2.3954,-2.3459,-2.3271,-2.3271,-2.3271,-2.3346,-2.3434,0.0,0.0,0.0,0.0,0.0,0.0,0.0,0.0,0.0,-0.0811,-0.0958,-0.117,-0.1823,-0.1888,-0.2291,-0.3274,0.0,0.0,-0.4681,-0.5439,-0.6198,-0.7003,-0.8326,-0.9287,-0.9761,-1.074,-1.1559,-1.2143,-1.2964,-1.3641,-1.418,-1.418,-1.4049,-1.3792,-1.3792,-1.3488,-1.2915,-1.223,-1.2193,-1.2522,-1.1379,-1.1165,-1.1504,-1.1175,-1.1023,-1.1014,-1.09,-1.0556,-1.0243,-1.0845,-1.0986,-1.1034,-1.1872,-1.2521,-1.2779,-1.1875,0.0,-1.2209,-1.3209,-1.4836,-1.6273,-1.6463,-1.7325,-1.8014,0.0,0.0,-1.8,-1.6789,-1.6444,-1.6384,-1.6612,-1.7014,-1.7432,-1.7812,-1.8331,-1.9099,-2.0291,-2.0623,-2.1298,-2.2827,-2.2581,-2.2443,-2.2882,-2.2481,-2.2418,-2.297,-2.3007,-2.3045,-2.3108,-2.4111,-2.47,-2.47,-2.5737,-2.6311,-2.6311,-2.3968,-2.279,-2.279,-2.2733,-2.2733,-2.286,-2.4609,-2.577,-2.6311,-2.6311,-2.5724,-2.4825,-2.5259,-2.4858,-2.3991,-2.3929,-2.3904,-2.3904,-2.3904,-2.4205,-2.46,0.0,0.0,0.0,0.0,0.0,0.0,0.0,0.0,0.0,0.0,-0.0315,-0.1034,-0.1728,-0.2114,-0.2551,-0.3107,0.0,0.0,-0.4422,-0.502,-0.5735,-0.6616,-0.7645,-0.8414,-0.8882,-0.9565,-1.027,-1.0982,-1.1613,-1.2319,-1.3005,-1.3276,-1.3364,-1.3286,-1.3286,-1.3062,-1.2635,-1.2056,-1.1846,-1.1817,-1.0687,-1.0329,-1.04,-0.9465,-0.9006,-0.9002,-0.9887,-0.9857,0.0,0.0,-1.0187,-1.0362,-1.1184,-1.1854,-1.2194,-1.1421,-1.1684,0.0,-1.3054,-1.4861,-1.6624,-1.6909,-1.7884,-1.8752,-1.8607,-1.8504,-1.8313,-1.7926,-1.757,-1.7432,-1.7758,-1.7954,-1.8086,0.0,-1.8325,-1.872,-1.9039,-1.9673,-2.0104,-2.0129,-2.076,-2.1694,-2.299,-2.2895,-2.2857,-2.3083,-2.3108,-2.3246,-2.3615,-2.4362,-2.4926,-2.5259,-2.6084,-2.6211,-2.5629,-2.4649,-2.3512,-2.2373,-2.2634,-2.2943,-2.3248,-2.3699,-2.4528,-2.5664,-2.6245,-2.6235,-2.5774,-2.5649,-2.5335,-2.4895,-2.4594,-2.4669,-2.4858,-2.423,-2.4343,-2.4788,0.0,0.0,0.0,0.0,0.0,0.0,0.0,0.0,0.0,0.0,0.0,-0.0445,-0.1223,-0.1994,-0.2616,0.0,0.0,0.0,0.0,-0.4753,-0.5234,-0.6004,-0.6881,-0.7554,-0.8033,-0.8437,-0.9014,-0.9774,-1.0293,-1.0927,-1.1677,-1.2139,-1.2426,-1.2543,-1.2391,-1.2218,-1.1991,-1.1298,-1.0913,-1.0691,-0.9693,-0.9242,-0.9054,-0.8034,-0.7352,-0.7121,-0.8536,-0.8663,0.0,0.0,-0.9253,-0.9514,-1.0437,-1.1318,-1.1869,-1.1272,-1.1765,-1.2552,-1.2814,-1.4518,-1.6374,-1.6921,-1.8197,-1.9269,-1.9161,-1.8928,-1.875,-1.8812,-1.8273,-1.7969,-1.8354,-1.8334,-1.8223,-1.8037,-1.8227,-1.838,-1.8184,-1.887,-1.9137,-1.8436,-1.939,-2.0693,-2.2201,-2.2484,-2.2722,-2.3065,-2.3108,-2.3255,-2.3566,-2.4097,-2.4641,-2.5206,-2.5509,-2.5501,-2.5182,-2.4618,-2.3764,-2.2595,-2.2956,-2.3385,-2.3916,-2.3801,-2.4425,-2.5658,-2.6387,-2.6801,-2.6901,-2.6302,-2.5975,-2.5774,-2.5247,-2.5272,-2.5498,-2.472,-2.4795,-2.5272,0.0,0.0,0.0,0.0,0.0,0.0,0.0,0.0,0.0,0.0,0.0,0.0,0.0,0.0,-0.2276,0.0,0.0,0.0,0.0,-0.4601,-0.4569,-0.5117,-0.5975,-0.6657,-0.7129,-0.7535,-0.7973,-0.8453,-0.925,-0.9884,-1.0371,-1.0771,-1.1191,-1.1623,-1.1097,-1.0862,-1.0772,-0.9506,-0.8981,-0.8926,-0.8234,-0.7799,-0.7542,-0.7168,-0.6426,-0.5676,-0.6573,0.0,0.0,-0.7398,-0.811,-0.8655,-0.9915,-1.1308,0.0,-1.175,-1.2019,-1.2468,-1.2362,0.0,-1.5503,-1.6256,-1.8005,-1.9482,-1.9012,-1.9391,-1.9631,-1.8779,-1.7969,-1.7529,-1.7949,-1.7695,-1.7549,-1.7949,-1.8018,-1.8164,-1.853,-1.8606,-1.8805,-1.9209,-1.9313,-1.9649,-2.0413,-2.0967,-2.1782,-2.2997,-2.3108,-2.2924,-2.2582,-2.3039,-2.3639,-2.4208,-2.382,-2.4228,-2.5558,-2.37,-2.3251,-2.4129,-2.4156,-2.4431,-2.4981,-2.5931,-2.6694,-2.722,-2.7256,-2.7557,-2.8009,-2.7457,-2.6952,-2.6411,-2.5799,-2.5586,-2.5598,-2.5561,-2.5912,-2.6449,0.0,0.0,0.0,0.0,0.0,0.0,0.0,0.0,0.0,0.0,0.0,0.0,0.0,0.0,0.0,0.0,0.0,0.0,0.0,-0.4316,-0.4195,-0.4559,-0.4848,-0.5312,-0.5954,-0.6018,-0.6364,-0.7004,-0.7727,-0.8306,-0.8785,-0.9409,-0.9765,-0.9873,-0.9738,-0.9395,-0.8915,-0.854,-0.8084,-0.7607,-0.7199,-0.6869,-0.6533,-0.5615,-0.5002,-0.4632,0.0,0.0,-0.5087,-0.582,-0.6722,-0.7704,-0.8728,-0.9759,-1.0714,-1.1394,-1.1923,-1.2476,-1.3273,0.0,-1.6771,-1.765,-1.9019,-2.0189,-2.0371,-1.968,-1.8998,-1.9049,-1.7434,-1.6244,-1.6999,-1.6338,-1.5928,-1.6633,-1.6963,-1.7304,-1.7725,-1.8243,-1.8197,-1.7285,-1.8045,-1.8651,-1.866,-1.9875,-2.1207,-2.246,-2.2329,-2.2435,-2.3003,-2.2959,-2.3152,-2.3737,-2.3872,-2.386,-2.3673,-2.4705,-2.4551,-2.3223,-2.4237,-2.4474,-2.4072,-2.5721,-2.6414,-2.6347,-2.7007,-2.7595,-2.8097,-2.7908,-2.7507,-2.7014,-2.6791,-2.649,-2.6129,-2.5453,-2.5748,-2.6499,0.0,0.0,0.0,0.0,0.0,0.0,0.0,0.0,0.0,0.0,0.0,0.0,0.0,0.0,0.0,0.0,0.0,0.0,0.0,0.0,-0.4279,-0.458,-0.4401,-0.4433,-0.4713,-0.4985,-0.5511,-0.6295,-0.6733,-0.6988,-0.7121,-0.793,-0.829,-0.8252,-0.8092,-0.7704,-0.7162,-0.6981,-0.6705,-0.6362,-0.5964,-0.5584,-0.5145,-0.4274,-0.3718,0.0,0.0,0.0,-0.4274,-0.5121,-0.6281,-0.7501,-0.8336,-0.9399,-1.0488,-1.1361,-1.2197,-1.3129,-1.426,-1.5888,-1.7522,-1.8596,-1.9559,-2.0238,-2.0242,-1.9145,-1.8045,-1.7792,-1.5963,-1.4595,-1.5309,-1.4678,-1.433,-1.5235,-1.5752,-1.624,-1.6858,-1.7329,-1.7325,-1.6409,-1.7589,-1.8511,-1.8548,-2.0036,-2.1193,-2.1805,-2.2099,-2.2276,-2.2321,-2.2402,-2.2842,-2.3761,-2.3514,-2.3488,-2.3717,-2.5027,-2.5222,-2.4332,-2.4964,-2.5158,-2.4894,-2.5813,-2.6403,-2.6688,-2.7517,-2.8197,-2.8699,-2.8486,-2.8072,-2.7582,-2.7582,-2.7005,-2.6121,-2.5529,-2.5671,-2.6167,0.0,0.0,0.0,0.0,0.0,0.0,0.0,0.0,0.0,0.0,0.0,0.0,0.0,0.0,0.0,0.0,0.0,0.0,0.0,0.0,0.0,-0.4982,-0.4487,-0.3978,-0.3489,-0.4393,-0.5298,-0.6157,-0.6096,-0.5829,-0.5382,-0.6315,-0.6742,-0.671,-0.6211,-0.5861,-0.5578,-0.4978,-0.4901,-0.5132,-0.4546,-0.3953,-0.3378,-0.3078,0.0,0.0,0.0,0.0,0.0,-0.517,-0.6679,-0.7999,-0.8852,-1.0283,-1.1645,-1.1714,-1.29,-1.4387,-1.5283,-1.6494,-1.7803,-1.9014,-1.9582,-1.9601,-1.8689,-1.7815,-1.6741,-1.5163,-1.367,-1.2712,0.0,0.0,-1.2926,-1.3893,-1.4494,-1.5146,-1.6007,-1.6163,-1.6349,0.0,0.0,0.0,0.0,0.0,-2.1827,-2.1102,-2.2406,-2.2468,-2.0705,-2.1401,-2.2583,-2.4194,-2.2795,-2.3176,-2.559,-2.4729,-2.5326,-2.7263,-2.628,-2.6311,-2.716,-2.6227,-2.6651,-2.8134,-2.8612,-2.9176,-2.9754,-2.9202,-2.8612,-2.8147,-2.8109,-2.7091,-2.5654,-2.5656,-2.5632,-2.551,0.0,0.0,0.0,0.0,0.0,0.0,0.0,0.0,0.0,0.0,0.0,0.0,0.0,0.0,0.0,0.0,0.0,0.0,0.0,0.0,0.0,0.0,0.0,0.0,0.0,0.0,0.0,-0.4215,-0.3366,-0.3152,-0.3584,-0.4375,-0.461,-0.437,-0.4482,-0.4522,-0.4474,-0.4023,-0.373,-0.3553,0.0,-0.2729,-0.2151,0.0,0.0,0.0,0.0,0.0,0.0,0.0,0.0,0.0,0.0,-1.1445,-1.2223,-1.3168,-1.4473,-1.5791,-1.6641,-1.8047,-1.9346,-1.9678,-1.9288,-1.8748,-1.8302,-1.628,-1.4352,-1.3874,-1.1999,-1.0637,0.0,0.0,0.0,-1.3119,-1.442,0.0,-1.6404,-1.7109,0.0,-1.8692,0.0,-2.0484,-2.1373,-2.306,-2.3418,-2.1798,-2.2038,-2.1891,-2.1084,-2.1252,-2.1944,-2.3234,-2.3487,-2.4287,-2.5721,-2.5846,-2.6205,-2.678,-2.6466,-2.607,-2.5587,-2.5623,-2.6542,-2.8098,-2.7809,-2.8513,-2.9779,-2.9628,-2.9239,-2.865,-2.8273,-2.7336,-2.6078,-2.4616,-2.4464,-2.484,0.0,0.0,0.0,0.0,0.0,0.0,0.0,0.0,0.0,0.0,0.0,0.0,0.0,0.0,0.0,0.0,0.0,0.0,0.0,0.0,0.0,0.0,0.0,0.0,0.0,0.0,0.0,0.0,0.0,0.0,-0.2433,-0.3107,-0.3329,-0.3152,-0.334,-0.3363,-0.3249,-0.3031,0.0,0.0,0.0,0.0,0.0,0.0,0.0,0.0,0.0,0.0,0.0,0.0,0.0,-0.9757,-1.1596,-1.2695,-1.3564,-1.4658,0.0,-1.7344,-1.8037,-1.8853,-1.9486,-1.9297,-1.8446,-1.7319,-1.6321,-1.4452,-1.2674,-1.1755,-1.024,0.0,-1.0254,-1.0546,0.0,0.0,0.0,0.0,-1.6289,-1.7187,-1.8161,0.0,-2.0709,0.0,-2.2579,-2.3996,-2.4323,-2.301,-2.2713,-2.219,-2.1235,-2.1412,-2.2342,-2.4122,-2.436,-2.5228,-2.6771,-2.6406,-2.6461,-2.6986,-2.5592,-2.4855,-2.4684,-2.4505,-2.5255,-2.6774,-2.7212,-2.8023,-2.9106,-2.9573,-2.9453,-2.8888,-2.8863,-2.7708,-2.5942,-2.4733,-2.431,-2.4266,0.0,0.0,0.0,0.0,0.0,0.0,0.0,0.0,0.0,0.0,0.0,0.0,0.0,0.0,0.0,0.0,0.0,0.0,0.0,0.0,0.0,0.0,0.0,0.0,0.0,0.0,0.0,0.0,0.0,0.0,0.0,0.0,0.0,0.0,0.0,0.0,0.0,0.0,0.0,0.0,0.0,0.0,0.0,0.0,0.0,0.0,0.0,0.0,0.0,0.0,-0.8049,-1.0281,-1.2301,-1.3784,-1.4984,-1.6055,-1.7422,-1.8705,-1.9238,-1.9174,-1.8906,-1.8577,-1.7275,-1.5614,-1.3797,-1.2577,-1.1264,-0.9404,0.0,-0.8505,-0.9274,-0.9916,-1.085,-1.2486,0.0,-1.4668,-1.5997,-1.6887,-1.7935,-1.9396,-2.1502,-2.3052,-2.3711,-2.4563,-2.4856,-2.4231,-2.3731,-2.2825,-2.1379,-2.168,-2.3135,-2.5811,-2.562,-2.6292,-2.7989,-2.6757,-2.6429,-2.7032,-2.4409,-2.3558,-2.4153,-2.3279,-2.3647,-2.5066,-2.6465,-2.7384,-2.7976,-2.9106,-2.917,-2.8646,-2.9221,-2.7896,-2.5523,-2.5038,-2.448,-2.3856,0.0,0.0,0.0,0.0,0.0,0.0,0.0,0.0,0.0,0.0,0.0,0.0,0.0,0.0,0.0,0.0,0.0,0.0,0.0,0.0,0.0,0.0,0.0,0.0,0.0,0.0,0.0,-0.321,-0.3019,0.0,0.0,0.0,0.0,0.0,0.0,0.0,0.0,0.0,0.0,0.0,0.0,0.0,0.0,0.0,0.0,0.0,0.0,0.0,0.0,0.0,-0.6916,-0.9576,-1.2246,-1.3825,-1.5105,-1.7075,-1.8091,-1.8773,-1.959,-1.9428,-1.8906,-1.8577,-1.64,-1.4078,-1.3002,-1.1177,0.0,0.0,-0.7876,-0.77,-0.7857,-0.905,-1.0413,-1.1713,0.0,0.0,0.0,-1.7061,-1.8309,0.0,-2.1789,-2.3097,-2.5045,-2.5382,-2.5145,-2.4265,-2.3658,-2.2864,-2.185,-2.1846,-2.3279,-2.6285,-2.8032,-2.8533,-2.7621,-2.7651,-2.6729,-2.4842,-2.4717,-2.4282,-2.3623,-2.3013,-2.3569,-2.4988,-2.4839,-2.5524,-2.6842,-2.7947,-2.7808,-2.6967,-2.7506,-2.6874,-2.5409,-2.3741,-2.3482,-2.3826,0.0,0.0,0.0,0.0,0.0,0.0,0.0,0.0,0.0,0.0,0.0,0.0,0.0,0.0,0.0,0.0,0.0,0.0,0.0,0.0,0.0,0.0,0.0,0.0,0.0,-0.3249,-0.3479,-0.3497,0.0,-0.2558,-0.2092,-0.2022,-0.1924,-0.1792,-0.1612,-0.1424,0.0,0.0,0.0,-0.0422,0.0364,0.0835,0.0,0.0,0.0,0.0,0.0,0.0,0.0,0.0,-0.5246,-0.7522,-1.1016,-1.3088,-1.4559,-1.6165,-1.7035,-1.7586,-1.8181,-1.7838,-1.7153,-1.6679,-1.4694,-1.2599,-1.1525,0.0,0.0,0.0,-0.7591,-0.7602,-0.7951,0.0,0.0,0.0,0.0,0.0,0.0,0.0,0.0,-2.0117,-2.1584,-2.2878,-2.3988,-2.3872,-2.3636,-2.3443,-2.2675,-2.2189,-2.2229,-2.2982,-2.4357,-2.6419,-2.7516,-2.8001,-2.7806,-2.6418,-2.509,-2.39,-2.328,-2.276,-2.2321,-2.2288,-2.2807,-2.373,-2.4062,-2.5072,-2.6565,-2.7046,-2.729,-2.7296,-2.7013,-2.6559,-2.5861,-2.414,-2.3885,-2.421,0.0,0.0,0.0,0.0,0.0,0.0,0.0,0.0,0.0,0.0,0.0,0.0,0.0,0.0,0.0,0.0,0.0,0.0,0.0,0.0,0.0,0.0,0.0,0.0,0.0,0.0,0.0,-0.3229,-0.2725,0.0,0.0,0.0,0.0,0.0,-0.1036,-0.0881,-0.0983,-0.0457,0.0,0.0,0.0,0.1657,0.0,0.0,0.0,0.0,0.0,0.0,0.0,0.0,-0.3523,-0.5336,-0.867,-1.1243,-1.3341,-1.4631,-1.5562,-1.6275,-1.6688,-1.6269,-1.5539,-1.496,-1.3276,-1.147,-1.0294,-0.9118,0.0,0.0,-0.739,-0.7588,-0.8244,0.0,-1.0233,0.0,-1.2505,0.0,0.0,0.0,0.0,0.0,-2.1081,0.0,-2.2668,-2.237,-2.2293,-2.267,-2.193,-2.1765,-2.248,-2.3975,-2.521,-2.6099,-2.6348,-2.6744,-2.7267,-2.504,-2.3735,-2.3305,-2.221,-2.158,-2.1551,-2.1762,-2.2119,-2.2552,-2.338,-2.4438,-2.5655,-2.5903,-2.6345,-2.6874,-2.6591,-2.6405,-2.6147,-2.4696,-2.4544,-2.4714,0.0,0.0,0.0,0.0,0.0,0.0,0.0,0.0,0.0,0.0,0.0,0.0,0.0,0.0,0.0,0.0,0.0,0.0,0.0,0.0,0.0,0.0,0.0,0.0,0.0,0.0,0.0,-0.2316,-0.1968,0.0,0.0,0.0,0.0,0.0,0.0,-0.0323,-0.01,0.02,0.0,0.0,0.0,0.0,0.0,0.0,0.0,0.0,0.0,0.0,0.0,0.0,0.0,-0.3789,-0.459,-0.7544,-1.1112,-1.3149,0.0,0.0,-1.6275,-1.6079,-1.5539,-1.496,-1.3105,-1.1162,-0.9987,0.0,0.0,-0.7166,-0.704,-0.7237,-0.7853,-0.9054,-1.0294,-1.1289,0.0,-1.3906,0.0,0.0,0.0,0.0,0.0,0.0,-2.2599,-2.2671,-2.2649,-2.2691,-2.2491,-2.2432,-2.251,-2.3975,-2.483,-2.4957,-2.5975,-2.589,-2.4591,-2.5135,-2.4523,-2.2804,-2.3012,-2.2941,-2.2556,-2.2109,-2.2119,-2.249,-2.2225,-2.2377,-2.2931,-2.3981,-2.3867,-2.3257,-2.5603,-2.6151,-2.5576,-2.4579,-2.4742,-2.5253,0.0,0.0,0.0,0.0,0.0,0.0,0.0,0.0,0.0,0.0,0.0,0.0,0.0,0.0,0.0,0.0,0.0,0.0,0.0,0.0,0.0,0.0,0.0,0.0,0.0,0.0,-0.145,-0.1416,-0.1086,0.0,0.0,0.0,0.0,0.0,0.0,0.0401,0.0277,0.0829,0.0,0.0,0.0,0.0,0.0,0.0,0.0,0.0,0.0,0.0,0.0,0.0,0.0,0.0,-0.2989,-0.4965,0.0,0.0,-1.1637,-1.2895,-1.3504,-1.3935,-1.4067,-1.3442,-1.2115,-1.0641,-0.9646,0.0,-0.7528,-0.7086,-0.7,-0.7265,-0.8103,-0.8976,-0.9975,-1.1199,0.0,0.0,-1.4082,0.0,0.0,0.0,-1.9176,0.0,0.0,-2.1436,-2.1537,-2.1779,-2.2024,-2.2246,-2.25,-2.3322,-2.397,-2.443,-2.419,-2.3971,-2.3777,-2.3232,-2.2562,-2.1799,-2.2241,-2.2361,-2.2211,-2.2269,-2.249,-2.2852,-2.2794,-2.3165,-2.3892,-2.4044,-2.4002,-2.3965,-2.5062,-2.5344,-2.5088,-2.4682,-2.4807,-2.4891,0.0,0.0,0.0,0.0,0.0,0.0,0.0,0.0,0.0,0.0,0.0,0.0,0.0,0.0,0.0,0.0,0.0,0.0,0.0,0.0,0.0,0.0,0.0,0.0,0.0,0.0,-0.109,-0.0901,-0.0405,0.0021,0.0,0.0,0.0859,0.0794,0.0,0.0,0.0,0.0,0.0,0.0,0.0,0.0,0.0,0.0,0.0,0.0,0.0,0.0,0.0,0.0,0.0,0.0,0.0,0.0,0.0,0.0,-0.9224,-1.0735,-1.1357,-1.2131,-1.2692,-1.2171,-1.1229,-1.0194,0.0,0.0,-0.7359,-0.6868,-0.6894,-0.7235,-0.8034,-0.8893,-0.9879,-1.1152,0.0,-1.2338,-1.3359,0.0,0.0,0.0,0.0,-1.9144,-2.0105,-2.0576,-2.0889,-2.1171,-2.1758,-2.2197,-2.249,-2.2867,-2.3325,-2.3876,-2.2983,-2.2723,-2.3196,-2.2018,-2.1385,-2.1385,-2.1738,-2.1953,-2.208,-2.2373,-2.2676,-2.291,-2.2887,-2.3268,-2.3907,-2.3392,-2.3545,-2.4143,-2.4514,-2.4714,-2.4787,-2.4787,-2.4787,-2.4628,0.0,0.0,0.0,0.0,0.0,0.0,0.0,0.0,0.0,0.0,0.0,0.0,0.0,0.0,0.0,0.0,0.0,0.0,0.0,0.0,0.0,0.0,0.0,0.0,0.0,0.0,-0.0897,-0.0905,-0.0031,0.0702,0.1281,0.1018,0.1183,0.1682,0.0,0.0,0.0,0.0,0.0,0.0,0.0,0.0,0.0,0.0,0.0,0.0,0.0,0.0,0.0,0.0,0.0,0.0,0.0,0.0,0.0,0.0,-0.7979,-0.9856,-1.0445,-1.1249,-1.1846,-1.1475,-1.0736,-0.9893,0.0,-0.8141,-0.7249,-0.6382,-0.6626,-0.708,-0.7353,-0.8776,-1.0169,-1.1048,-1.2153,0.0,-1.3447,-1.4265,0.0,0.0,0.0,-1.7924,-1.918,-2.0469,-2.119,-2.119,-2.198,-2.251,-2.251,-2.2867,-2.3091,-2.3091,-2.2734,-2.251,-2.251,-2.209,-2.1875,-2.1875,-2.1885,-2.21,-2.251,-2.251,-2.251,-2.249,-2.207,-2.1936,-2.1906,-2.1426,-2.1748,-2.2637,-2.3763,-2.4441,-2.4787,-2.4787,-2.4787,-2.4628,0.0,0.0,0.0,0.0,0.0,0.0,0.0,0.0,0.0,0.0,0.0,0.0,0.0,0.0,0.0,0.0,0.0,0.0,0.0,0.0,0.0,0.0,0.0,0.0,0.0,0.0,-0.0973,-0.0561,0.0684,0.1507,0.1933,0.2815,0.3116,0.2931,0.2939,0.2844,0.0,0.0,0.0,0.0,0.0,0.0,0.0,0.0,0.0,0.0,0.0,0.0,0.0,0.0,0.0,0.0,0.0,0.0,0.0,0.0,0.0,0.0,-0.9141,-0.986,-1.0307,-0.9977,-0.9426,-0.8804,-0.8292,-0.7646,-0.707,-0.6808,-0.6873,-0.7235,-0.8012,-0.9113,-1.0223,-1.1165,-1.2234,0.0,0.0,0.0,0.0,-1.6348,-1.832,-1.9754,-2.0165,-2.0537,-2.0781,-2.0781,-2.1592,-2.1953,-2.1609,-2.2324,-2.2578,-2.2295,-2.2158,-2.1787,-2.1231,-2.1085,-2.1026,-2.1026,-2.1299,-2.167,-2.207,-2.1777,-2.2315,-2.3514,-2.3168,-2.2963,-2.2879,-2.3126,-2.2947,-2.2595,-2.3753,-2.399,-2.3714,-2.45,-2.4296,-2.3594,0.0,0.0,0.0,0.0,0.0,0.0,0.0,0.0,0.0,0.0,0.0,0.0,0.0,0.0,0.0,0.0,0.0,0.0,0.0,0.0,0.0,0.0,0.0,0.0,0.0,-0.1547,-0.1641,-0.1347,0.0116,0.1349,0.2377,0.3474,0.4035,0.4088,0.3762,0.3541,0.0,0.0,0.0,0.0,0.0,0.0,0.5614,0.0,0.0,0.0,0.0,0.0,0.0,0.0,0.0,0.0,0.0,0.0,0.0,0.0,-0.561,-0.6819,0.0,-0.8493,-0.883,-0.8622,-0.8236,0.0,0.0,-0.7353,-0.6937,-0.6753,-0.6852,-0.7157,-0.7689,-0.8934,-1.0154,-1.0907,-1.1855,0.0,0.0,0.0,0.0,-1.6736,0.0,-2.0126,-2.0126,-2.041,-2.0605,-2.0605,-2.123,-2.1523,-2.121,-2.1894,-2.208,-2.165,-2.1641,-2.1377,-2.082,-2.0693,-2.0693,-2.082,-2.0928,-2.1299,-2.1865,-2.1395,-2.1838,-2.2941,-2.3103,-2.2934,0.0,-2.3313,-2.3177,-2.2552,-2.3272,-2.3376,-2.3178,-2.3887,-2.3714,-2.3091,0.0,0.0,0.0,0.0,0.0,0.0,0.0,0.0,0.0,0.0,0.0,0.0,0.0,0.0,0.0,0.0,0.0,0.0,0.0,0.0,0.0,0.0,0.0,0.0,0.0,-0.2492,-0.272,-0.2851,-0.1287,0.0516,0.2521,0.3233,0.4062,0.4942,0.4025,0.3778,0.4065,0.4454,0.5243,0.6188,0.58,0.5744,0.0,0.0,0.0,0.0,0.0,0.0,0.0,0.0,0.0,0.0,0.0,0.0,0.0,0.0,0.0,0.0,0.0,-0.7188,0.0,0.0,0.0,0.0,-0.7338,-0.7135,0.0,-0.6285,-0.6605,-0.6879,-0.6693,-0.8429,-0.9994,-1.0275,-1.1172,0.0,0.0,-1.3556,0.0,0.0,-1.8564,-1.9346,-1.9175,-2.0049,-2.0605,-2.0605,-2.0986,-2.1181,-2.1151,-2.1602,-2.1641,-2.1161,-2.1142,-2.1142,-2.1142,-2.0771,-2.0781,-2.1142,-2.0762,-2.1055,-2.1826,-2.1387,-2.1201,-2.1341,-2.2241,-2.2143,-2.1381,-2.2321,-2.2615,-2.251,-2.251,-2.2773,-2.3091,-2.3091,-2.3091,-2.3091,0.0,0.0,0.0,0.0,0.0,0.0,0.0,0.0,0.0,0.0,0.0,0.0,0.0,0.0,0.0,0.0,0.0,0.0,0.0,0.0,0.0,0.0,0.0,0.0,0.0,-0.2783,-0.298,-0.2362,-0.0663,0.0663,0.1644,0.3324,0.4029,0.3902,0.4478,0.4991,0.5439,0.5698,0.6077,0.6479,0.6174,0.6001,0.0,0.0,0.0,0.0,0.2671,0.2172,0.0,0.0,0.0,0.0,0.0,0.0,0.0,0.0,-0.4316,-0.484,-0.5407,0.0,-0.6812,-0.6812,-0.6424,-0.6123,0.0,0.0,-0.5803,0.0,0.0,0.0,-0.7186,-0.8708,-0.9833,-0.9657,0.0,0.0,-1.2531,0.0,0.0,-1.6543,-1.8764,-1.9685,-1.815,-1.959,-2.0605,-2.0605,-2.0986,-2.1084,-2.0781,-2.1143,-2.1182,-2.0732,-2.0723,-2.0723,-2.0723,-2.0654,-2.0654,-2.0723,-2.0654,-2.085,-2.1327,-2.0928,-2.1311,-2.234,-2.2199,-2.2213,-2.236,-2.2613,-2.2615,-2.251,-2.251,-2.2773,-2.3091,-2.3091,-2.3091,-2.3091,0.0,0.0,0.0,0.0,0.0,0.0,0.0,0.0,0.0,0.0,0.0,0.0,0.0,0.0,0.0,0.0,0.0,0.0,0.0,0.0,0.0,0.0,0.0,-0.1419,-0.2101,-0.2777,-0.2933,-0.2523,-0.1052,0.0302,0.1558,0.2921,0.3626,0.3781,0.4815,0.5444,0.5725,0.5728,0.5996,0.6385,0.6062,0.0,0.0,0.0,0.0,0.0,0.2423,0.1924,0.0,0.1209,0.0912,0.0592,0.0,0.0,0.0,0.0,-0.3743,-0.4324,-0.4747,-0.5423,-0.6064,-0.6338,-0.6173,-0.5987,-0.6149,0.0,0.0,0.0,0.0,0.0,0.0,0.0,0.0,0.0,-1.0873,0.0,0.0,0.0,-1.644,-1.6355,-1.8489,-1.9543,-1.8367,-1.9678,-2.0605,-2.0605,-2.0791,-2.082,-2.0615,-2.0605,-2.0605,-2.0605,-2.041,-2.0361,-2.0605,-2.0605,-2.0605,-2.0605,-2.0605,-2.0693,-2.0918,-2.0713,-2.1034,-2.1759,-2.1925,-2.1918,-2.18,-2.2413,-2.2503,-2.2246,-2.2441,-2.2773,-2.3091,-2.3091,-2.3091,-2.3091,0.0,0.0,0.0,0.0,0.0,0.0,0.0,0.0,0.0,0.0,0.0,0.0,0.0,0.0,0.0,0.0,0.0,0.0,0.0,0.0,0.0,0.0,0.0,-0.1258,-0.2507,-0.2724,-0.2815,-0.2788,-0.1689,-0.0219,0.1601,0.2385,0.326,0.4204,0.5001,0.5416,0.5489,0.5357,0.5634,0.613,0.5735,0.0,0.0,0.0,0.0,0.0,0.0,0.0,0.0,0.1252,0.0967,0.0564,0.0116,0.0,0.0,0.0,0.0,0.0,-0.4385,-0.489,-0.5418,-0.6052,-0.6154,-0.6132,-0.6194,0.0,0.0,0.0,0.0,0.0,0.0,0.0,0.0,0.0,0.0,0.0,-1.3939,-1.5162,-1.6033,-1.6457,-1.8275,-1.9305,-1.8836,-1.9887,-2.0605,-2.0605,-2.0605,-2.0576,-2.0507,-2.0117,-2.0049,-2.04,-2.001,-2.0029,-2.0498,-2.0566,-2.0605,-2.0605,-2.0605,-2.0605,-2.0605,-2.0605,-2.0605,-2.0644,-2.1441,-2.1377,-2.0771,-2.1971,-2.225,-2.1924,-2.2344,-2.2734,-2.3013,-2.3071,-2.3091,-2.3091,0.0,0.0,0.0,0.0,0.0,0.0,0.0,0.0,0.0,0.0,0.0,0.0,0.0,0.0,0.0,0.0,0.0,0.0,0.0,0.0,0.0,0.0,-0.1289,-0.2032,-0.2253,-0.3,-0.3028,-0.2308,-0.1394,-0.0409,0.0645,0.222,0.366,0.4932,0.4803,0.502,0.551,0.5714,0.585,0.5916,0.563,0.0,0.0,0.0,0.0,0.0,0.0,0.0,0.0,0.1385,0.1088,0.0736,0.0042,0.0,0.0,0.0,0.0,0.0,-0.4043,-0.4683,-0.5297,-0.6022,-0.5986,-0.5847,-0.6132,0.0,0.0,0.0,0.0,0.0,0.0,-0.8661,-0.9267,0.0,0.0,-1.3393,0.0,-1.7183,-1.7821,-1.6994,-1.898,-1.9716,-1.799,-1.9497,-2.0605,-2.0605,-2.0605,-2.0449,-2.0029,-1.9951,-1.9785,-1.9492,-1.9424,-1.959,-2.001,-2.0381,-2.0605,-2.0605,-2.0605,-2.0605,-2.0605,-2.0605,-2.0605,-2.0605,-2.075,-2.0928,-2.1133,-2.1361,-2.1606,-2.1924,-2.2344,-2.2549,-2.2646,-2.2964,-2.3091,-2.3091,0.0,0.0,0.0,0.0,0.0,0.0,0.0,0.0,0.0,0.0,0.0,0.0,0.0,0.0,0.0,0.0,0.0,0.0,0.0,0.0,0.0,0.0007,-0.0718,-0.1391,-0.1974,-0.2196,-0.2202,-0.1981,-0.0928,-0.0211,0.0234,0.2299,0.3498,0.393,0.4427,0.4893,0.5301,0.5565,0.5687,0.568,0.0,0.0,0.0,0.0,0.0,0.0,0.0,0.0,0.0,0.0,0.134,0.0964,0.0414,0.0,0.0,0.0,0.0,0.0,-0.3714,-0.4187,-0.4631,-0.5195,-0.5874,-0.6402,-0.6413,0.0,0.0,0.0,0.0,0.0,0.0,0.0,-0.9951,-1.1023,0.0,-1.4664,-1.6015,-1.679,-1.7005,-1.6369,-1.8197,-1.9045,-1.7798,-1.9193,-2.0117,-1.993,-1.9911,-1.9785,-1.959,-1.9355,-1.9248,-1.9287,-1.9053,-1.9141,-1.957,-2.0,-2.0332,-2.0605,-2.0605,-2.0605,-2.0605,-2.0605,-2.0605,-2.0605,-2.0605,-2.0684,-2.0869,-2.0869,-2.1133,-2.1582,-2.2002,-2.2314,-2.2539,-2.2734,-2.276,-2.276,0.0,0.0,0.0,0.0,0.0,0.0,0.0,0.0,0.0,0.0,0.0,0.0,0.0,0.0,0.0,0.0,0.0,0.0,0.0,0.0,0.0426,0.022,-0.0022,-0.0631,-0.1631,-0.1402,-0.1355,-0.1523,-0.0644,-0.0138,0.005,0.2275,0.3265,0.3222,0.4145,0.4688,0.4932,0.5194,0.5281,0.5233,0.0,0.0,0.0,0.0,0.0,0.0,0.0,0.0,0.0,0.0,0.0,0.0,0.0,0.0,0.0,-0.185,-0.2408,-0.3126,-0.3493,-0.3836,-0.4163,-0.4442,-0.5633,-0.6719,-0.6618,-0.7106,0.0,0.0,0.0,0.0,0.0,-0.9435,0.0,-1.273,-1.412,-1.5268,-1.6385,-1.6555,-1.6539,-1.6535,-1.7872,-1.8584,-1.8128,-1.9078,-1.9639,-1.9307,-1.9287,-1.9238,-1.9141,-1.8783,-1.8705,-1.8984,-1.8662,-1.8666,-1.9131,-1.9453,-1.9883,-2.0449,-2.0556,-2.0605,-2.0605,-2.0605,-2.0605,-2.0605,-2.0605,-2.0664,-2.0723,-2.0723,-2.0918,-2.1239,-2.1719,-2.209,-2.2363,-2.2363,-2.2432,-2.251,0.0,0.0,0.0,0.0,0.0,0.0,0.0,0.0,0.0,0.0,0.0,0.0,0.0,0.0,0.0,0.0,0.0,0.0,0.0,0.0,0.0853,0.0834,0.0292,-0.0402,-0.1225,-0.1216,-0.1036,-0.069,-0.0785,-0.055,0.0042,0.1895,0.3206,0.4015,0.4108,0.4222,0.4376,0.4646,0.4616,0.4406,0.4676,0.0,0.0,0.0,0.0,0.0,0.0,0.0,0.0,0.0,0.0,0.0,0.0,0.0,-0.1744,-0.2286,-0.2663,-0.3015,-0.3486,-0.3981,-0.4353,-0.4258,-0.5116,0.0,-0.6516,-0.708,0.0,-0.7862,0.0,0.0,0.0,-0.891,-1.0016,-1.2439,-1.3122,-1.4396,-1.7436,-1.7871,-1.8159,-1.8971,-1.9163,-1.9212,-1.9168,-1.928,-1.9316,-1.9287,-1.9287,-1.9111,-1.8666,-1.8617,-1.8432,-1.8115,-1.8076,-1.8252,-1.8646,-1.8676,-1.9104,-1.9971,-2.041,-2.0605,-2.0605,-2.0605,-2.0605,-2.0605,-2.0605,-2.0801,-2.1142,-2.1142,-2.1161,-2.1239,-2.1719,-2.1904,-2.1934,-2.1934,-2.2178,-2.251,0.0,0.0,0.0,0.0,0.0,0.0,0.0,0.0,0.0,0.0,0.0,0.0,0.0,0.0,0.0,0.0,0.0,0.0,0.0,0.0,0.1072,0.144,0.0683,0.003,-0.0443,-0.0823,-0.1121,-0.1347,-0.067,-0.0226,0.0018,0.0701,0.1724,0.2973,0.2943,0.3248,0.3805,0.3912,0.3984,0.4076,0.4345,0.4124,0.0,0.0,0.0,0.0,0.0,0.0,0.0,0.0,0.2027,0.1132,0.0912,-0.0282,-0.1641,-0.1877,-0.2448,-0.306,-0.3249,-0.3442,-0.3596,-0.3639,-0.4527,0.0,0.0,-0.7572,-0.8502,-0.8973,-0.9814,0.0,0.0,0.0,-1.1171,-1.2779,-1.3515,-1.448,-1.6192,-1.6011,-1.603,-1.6846,-1.7411,-1.7716,-1.7687,-1.8174,-1.8271,-1.7734,-1.7695,-1.7594,-1.7428,-1.7418,-1.7467,-1.7617,-1.7353,-1.7516,-1.8208,-1.8217,-1.851,-1.9095,-1.9824,-2.0156,-2.0166,-2.0478,-2.0605,-2.0605,-2.0605,-2.0703,-2.082,-2.082,-2.082,-2.0859,-2.1309,-2.1444,-2.1514,-2.1787,-2.1992,-2.2129,0.0,0.0,0.0,0.0,0.0,0.0,0.0,0.0,0.0,0.0,0.0,0.0,0.0,0.0,0.0,0.0,0.0,0.0,0.0,0.0387,0.0969,0.1768,0.1183,0.0755,0.0575,-0.0207,-0.0814,-0.1236,-0.0406,-0.0195,-0.0557,-0.0179,0.0628,0.1772,0.1981,0.2405,0.2963,0.3059,0.3195,0.3384,0.365,0.3491,0.0,0.0,0.0,0.0,0.0,0.0,0.0,0.0,0.219,0.12,0.1034,-0.0219,-0.1617,-0.176,-0.2552,-0.3363,-0.3237,-0.3388,-0.3579,-0.3572,0.0,0.0,-0.6564,-0.7802,-0.8919,-0.9506,-1.0295,-1.0768,-1.0306,0.0,-1.1344,-1.265,-1.3234,-1.3937,-1.5155,-1.4588,-1.4437,-1.54,-1.5815,-1.6184,-1.666,-1.7017,-1.7081,-1.6746,-1.6697,-1.6697,-1.6697,-1.6697,-1.6833,-1.7168,-1.7021,-1.7217,-1.7803,-1.7939,-1.8154,-1.8412,-1.9134,-1.958,-1.9736,-2.0166,-2.04,-2.041,-2.0546,-2.0683,-2.0781,-2.0781,-2.0781,-2.0791,-2.0957,-2.1025,-2.1055,-2.1357,-2.1553,-2.168,0.0,0.0,0.0,0.0,0.0,0.0,0.0,0.0,0.0,0.0,0.0,0.0,0.0,0.0,0.0,0.0,0.0,0.0,0.0,0.002,0.057,0.1762,0.1814,0.1814,0.1803,0.0615,0.0,0.0,-0.0011,-0.0624,-0.1763,-0.0558,0.0211,0.0633,0.1427,0.1785,0.1807,0.2074,0.2192,0.2216,0.2484,0.2429,0.2193,0.0,0.0,0.0,0.0,0.0,0.0,0.0,0.2378,0.1399,0.0868,-0.0347,-0.1669,-0.2082,-0.3047,-0.3908,-0.3511,-0.3985,-0.4543,0.0,0.0,0.0,-0.6637,-0.762,-0.8537,-0.9098,-0.9217,-0.9217,-0.9217,-0.9486,-1.0221,-1.1816,-1.1933,-1.2491,-1.4591,-1.4127,-1.4043,-1.529,-1.4761,-1.49,-1.6519,-1.595,-1.5812,-1.6624,-1.6687,-1.6687,-1.6687,-1.6687,-1.6687,-1.6697,-1.7139,-1.7363,-1.7373,-1.7783,-1.7988,-1.8008,-1.8393,-1.8857,-1.9297,-1.9717,-1.9902,-1.9932,-2.041,-2.081,-2.1181,-2.1181,-2.1181,-2.1142,-2.0781,-2.0605,-2.0605,-2.0605,-2.0859,-2.119,0.0,0.0,0.0,0.0,0.0,0.0,0.0,0.0,0.0,0.0,0.0,0.0,0.0,0.0,0.0,0.0,0.0,0.0,0.0,0.1542,0.2618,0.2975,0.2993,0.2627,0.1814,0.0614,0.0,0.0,-0.0851,-0.1011,-0.053,-0.0457,-0.0111,0.0465,0.0708,0.0942,0.1187,0.1457,0.1564,0.1611,0.2118,0.2014,0.1617,0.0,0.0,0.0,0.0,0.0,0.0,0.0,0.0,0.0,0.1149,-0.0034,-0.1406,-0.1526,-0.2349,-0.3224,-0.3186,-0.3747,0.0,-0.4329,0.0,0.0,0.0,-0.7541,0.0,0.0,-0.9552,-0.9613,-0.979,-0.976,-1.0089,-1.1333,-1.085,-1.0876,-1.2483,-1.1812,-1.1581,-1.2766,-1.294,-1.326,-1.4008,-1.4381,-1.4687,-1.4909,-1.5194,-1.5488,-1.5751,-1.5801,-1.5947,-1.6281,-1.6084,-1.6299,-1.6892,-1.6738,-1.6797,-1.7087,-1.7549,-1.8135,-1.8812,-1.9277,-1.9473,-1.9502,-1.9922,-2.0019,-1.9893,-2.0185,-2.0488,-2.0752,-2.0654,-2.0605,-2.0644,-2.0918,-2.1083,-2.119,0.0,0.0,0.0,0.0,0.0,0.0,0.0,0.0,0.0,0.0,0.0,0.0,0.0,0.0,0.0,0.0,0.0,0.0,0.0,0.1324,0.2522,0.3456,0.3495,0.2741,0.1119,0.0369,0.0,0.0,-0.1212,-0.1347,-0.0478,-0.0646,-0.0546,-0.0222,0.01,0.0358,0.055,0.0712,0.0844,0.0979,0.1337,0.1344,0.1178,0.0,0.0,0.0,0.0,0.0,0.0,0.0,0.0,0.0,0.1067,0.0,-0.1093,-0.1254,-0.2134,-0.3022,-0.2893,-0.3563,0.0,-0.448,-0.5487,-0.6637,-0.7443,0.0,0.0,0.0,-0.9593,-0.9559,-0.971,-0.9597,-0.9838,-1.0832,-1.0257,-1.0122,-1.1271,-1.058,-1.0299,-1.1331,-1.1357,-1.1676,-1.2575,-1.2806,-1.3119,-1.3715,-1.3979,-1.4428,-1.5108,-1.5156,-1.5361,-1.5821,-1.5723,-1.5928,-1.6465,-1.6377,-1.6465,-1.6707,-1.7178,-1.7646,-1.812,-1.876,-1.9023,-1.9053,-1.9482,-1.9521,-1.9307,-1.9561,-1.9922,-2.0303,-2.0303,-2.0449,-2.0635,-2.0869,-2.0967,-2.0967,0.0,0.0,0.0,0.0,0.0,0.0,0.0,0.0,0.0,0.0,0.0,0.0,0.0,0.0,0.0,0.0,0.0,0.0,0.0,0.0,0.0953,0.3085,0.3383,0.245,0.0214,0.0055,-0.0019,-0.0055,-0.1191,-0.1538,-0.1141,-0.0994,-0.1005,-0.1116,-0.0343,0.0,0.0,0.0,0.0137,0.0367,0.0395,0.0573,0.0823,0.0878,0.0,0.0,0.0,0.0,0.0,0.0,0.0,0.0,0.0821,0.0084,-0.0764,-0.1139,-0.2148,-0.3043,-0.255,0.0,0.0,-0.4536,-0.5434,0.0,-0.803,-0.8765,-0.9251,-0.9546,0.0,-0.9251,-0.9251,-0.9231,-0.946,-1.0297,-0.9981,-0.99,-1.0672,-1.0129,-0.9928,-1.0708,-1.0157,-1.0272,-1.1732,-1.1243,-1.1424,-1.2804,-1.2996,-1.3515,-1.4586,-1.4699,-1.4922,-1.5342,-1.5772,-1.5997,-1.6036,-1.6406,-1.658,-1.659,-1.7061,-1.7298,-1.7328,-1.8174,-1.8568,-1.8617,-1.9014,-1.9219,-1.9287,-1.9248,-1.9473,-1.9863,-1.9902,-2.0137,-2.0498,-2.0537,-2.0517,-2.0488,0.0,0.0,0.0,0.0,0.0,0.0,0.0,0.0,0.0,0.0,0.0,0.0,0.0,0.0,0.0,0.0,0.0,0.0,0.0,0.0,0.0225,0.0728,0.2516,0.2848,0.1443,0.0481,-0.0151,-0.0467,-0.1044,-0.1127,-0.0736,-0.1005,-0.0994,-0.071,-0.0214,0.0,0.0,0.0,0.0027,0.0108,0.0313,0.0312,0.0242,0.0723,0.1004,0.0,0.0,0.0,0.0,0.0,0.0,0.0,0.115,0.0318,-0.0724,-0.0801,-0.1368,-0.1939,0.0,-0.2727,0.0,0.0,-0.5338,-0.7071,-0.7692,-0.8374,-0.8918,-0.8985,-0.9312,-0.9586,-0.9586,-0.9371,-0.934,-0.9796,-0.939,-0.9213,-0.9871,-0.9593,-0.9475,-0.9906,-0.9795,-0.9824,-1.0193,-1.0353,-1.0682,-1.1327,-1.2143,-1.2859,-1.3442,-1.397,-1.4473,-1.4902,-1.5038,-1.5215,-1.5547,-1.5644,-1.5693,-1.5703,-1.6173,-1.6378,-1.6418,-1.7598,-1.8286,-1.8588,-1.8354,-1.8662,-1.9268,-1.888,-1.9033,-1.9453,-1.9785,-1.9766,-1.9637,-1.9932,-1.9844,-1.9597,0.0,0.0,0.0,0.0,0.0,0.0,0.0,0.0,0.0,0.0,0.0,0.0,0.0,0.0,0.0,0.0,0.0,0.0,0.0,0.0,0.0,0.0,0.1175,0.1547,0.0951,0.0321,-0.0169,-0.0501,-0.0941,-0.1123,-0.1086,-0.1462,-0.1412,-0.0998,-0.0306,-0.0161,-0.0413,-0.013,0.0,0.0014,0.0158,0.0131,0.0029,0.0354,0.0589,0.0824,0.1305,0.0,0.0,0.0,0.0,0.0,0.0,0.0,-0.0405,-0.0642,-0.0962,-0.1259,0.0,0.0,0.0,-0.3999,0.0,-0.6473,-0.6974,-0.7688,-0.8262,-0.8262,-0.88,-0.9265,-0.9265,-0.9138,-0.9058,-0.9239,-0.9005,-0.8911,-0.9218,-0.9132,-0.9064,-0.9245,-0.9265,-0.9265,-0.9265,-0.9466,-0.9936,-1.0786,-1.1375,-1.2173,-1.3221,-1.3619,-1.4007,-1.4463,-1.4473,-1.458,-1.4767,-1.4777,-1.4902,-1.5117,-1.5547,-1.5977,-1.6416,-1.7305,-1.7715,-1.7691,-1.7715,-1.7959,-1.8359,-1.8135,-1.8408,-1.8994,-1.9182,-1.9297,-1.9316,-1.9531,-1.9473,-1.9287,0.0,0.0,0.0,0.0,0.0,0.0,0.0,0.0,0.0,0.0,0.0,0.0,0.0,0.0,0.0,0.0,0.0,0.0,0.0,0.0,0.0,0.0584,0.0419,0.0215,0.0006,0.0068,-0.0122,-0.0584,-0.0928,-0.1382,0.0,-0.2087,-0.1969,-0.1615,-0.0753,-0.0559,-0.0873,-0.0365,-0.0095,0.0,0.0,0.0,0.0,0.0,0.0189,0.0491,0.0763,0.0908,0.1019,0.1357,0.0,0.0,0.0,0.0,-0.0085,-0.0461,-0.065,-0.0739,0.0,0.0,0.0,-0.4343,-0.5081,0.0,-0.6102,-0.698,-0.7696,-0.7696,-0.8289,-0.8804,-0.8804,-0.8804,-0.8804,-0.8804,-0.8804,-0.8804,-0.8804,-0.8804,-0.8804,-0.8804,-0.8804,-0.8804,-0.8804,-0.8804,-0.9263,-1.0364,-1.0568,-1.1336,-1.2953,-1.3151,-1.3455,-1.3987,-1.3997,-1.4065,-1.4221,-1.4221,-1.4434,-1.4785,-1.5137,-1.5693,-1.6492,-1.6953,-1.7002,-1.6716,-1.7119,-1.7275,-1.7275,-1.7353,-1.7793,-1.8403,-1.8549,-1.8783,-1.9072,-1.915,-1.9131,-1.9072,0.0,0.0,0.0,0.0,0.0,0.0,0.0,0.0,0.0,0.0,0.0,0.0,0.0,0.0,0.0,0.0,0.0,0.0,0.5472,0.0,0.0,0.2939,0.2089,0.1068,0.0022,0.0341,-0.01,-0.1357,-0.1177,0.0,0.0,0.0,0.0,-0.2262,-0.1958,-0.1478,-0.0889,-0.081,-0.048,0.0,0.0,0.0,0.0,0.0,0.0279,0.0673,0.0706,0.0951,0.1262,0.1303,0.1027,0.0,0.0,0.0,-0.0017,-0.0068,-0.0105,-0.0128,0.0,0.0,0.0,0.0,-0.4557,-0.5203,0.0,0.0,-0.7696,-0.7696,-0.8289,-0.8804,-0.8804,-0.8804,-0.8804,-0.8804,-0.8804,-0.8804,-0.8804,-0.8804,-0.8804,-0.8804,-0.8804,-0.8804,-0.8804,-0.8804,-0.8883,-0.9061,-0.9614,-1.0285,-1.1116,-1.1721,-1.2497,-1.3549,-1.3594,-1.3945,-1.4687,-1.4697,-1.4727,-1.4813,-1.4844,-1.5117,-1.5605,-1.6065,-1.6416,-1.6707,-1.6765,-1.6785,-1.6824,-1.7227,-1.7451,-1.7627,-1.8315,-1.8412,-1.8223,-1.8549,-1.8461,-1.8174,0.0,0.0,0.0,0.0,0.0,0.0,0.0,0.0,0.0,0.0,0.0,0.0,0.0,0.0,0.0,0.0,0.2713,0.3986,0.2964,0.1077,0.1046,0.3396,0.2737,0.1787,0.0698,0.0407,-0.0248,-0.128,0.0,0.0,0.0,-0.3968,-0.3878,0.0,0.0,-0.1963,-0.1614,-0.1383,-0.0786,-0.0052,-0.074,-0.0868,-0.066,-0.0546,-0.0385,-0.0202,-0.0202,0.0128,0.0514,0.0183,0.0183,0.0313,0.0313,0.0,0.0,0.0,0.0,0.0,-0.0411,0.0,0.0,0.0,-0.3334,-0.3977,-0.3957,-0.5509,-0.6979,-0.6979,-0.7623,-0.8271,-0.8513,-0.8697,-0.8751,-0.8591,-0.8704,-0.8804,-0.8804,-0.8664,-0.8624,-0.8791,-0.8664,-0.8624,-0.8791,-0.8804,-0.8956,-0.9335,-0.964,-1.009,-1.0762,-1.1441,-1.202,-1.2523,-1.2936,-1.334,-1.3737,-1.3747,-1.3838,-1.4072,-1.4561,-1.4883,-1.5078,-1.5508,-1.5811,-1.6006,-1.625,-1.6357,-1.6396,-1.6836,-1.7168,-1.7451,-1.8047,-1.8174,-1.7959,-1.7596,-1.7366,-1.7217,0.0,0.0,0.0,0.0,0.0,0.0,0.0,0.0,0.0,0.0,0.0,0.0,0.0,0.0,0.0,0.0,0.4637,0.5972,0.2199,0.1955,0.2557,0.3894,0.3217,0.2376,0.1479,0.0754,-0.0084,-0.1052,0.0,0.0,-0.3904,-0.5062,-0.5227,0.0,-0.3259,-0.2629,0.0,0.0,-0.1329,-0.0538,-0.1446,-0.1614,-0.1339,-0.1179,-0.1141,-0.1172,-0.1137,-0.0867,-0.0577,-0.0981,-0.0723,-0.0235,-0.0232,-0.0133,0.0,0.0,0.0,0.0,0.0,0.0,-0.097,-0.1647,-0.2309,-0.2827,0.0,0.0,-0.5898,-0.6083,-0.678,-0.7512,-0.8025,-0.819,-0.8227,-0.8183,-0.8378,-0.8593,-0.8778,-0.8617,-0.8564,-0.8784,-0.8617,-0.8571,-0.8784,-0.8804,-0.9008,-0.9517,-0.9536,-0.984,-1.0517,-1.1191,-1.1616,-1.1789,-1.2535,-1.2954,-1.3037,-1.3037,-1.3252,-1.3646,-1.4209,-1.4512,-1.4639,-1.5059,-1.5254,-1.5273,-1.5743,-1.5987,-1.6124,-1.6512,-1.6924,-1.7266,-1.7803,-1.776,-1.7392,-1.6817,-1.6463,-1.628,0.0,0.0,0.0,0.0,0.0,0.0,0.0,0.0,0.0,0.0,0.0,0.0,0.8883,0.3845,0.0,0.0,0.4087,0.6851,0.7267,0.7297,0.6675,0.5261,0.3837,0.0,0.2154,0.1675,0.0654,0.0,0.0,0.0,-0.4933,-0.5377,-0.5777,-0.6025,-0.4695,-0.378,-0.3212,0.0,0.0,0.0,0.0,-0.179,-0.1769,-0.1752,-0.1825,-0.1927,-0.1802,-0.1807,-0.1883,-0.178,-0.1347,-0.0853,-0.085,-0.0452,0.0,0.0,0.0,0.0,0.0,-0.0485,0.0,-0.1501,0.0,0.0,0.0,0.0,-0.4521,-0.5212,-0.5953,-0.6653,-0.724,-0.6997,-0.6887,-0.7447,-0.7657,-0.7996,-0.8699,-0.8791,-0.8791,-0.8804,-0.8791,-0.8791,-0.8804,-0.8804,-0.8804,-0.8857,-0.8857,-0.9133,-0.9814,-1.0491,-1.1141,-1.1789,-1.2535,-1.3076,-1.3477,-1.3477,-1.3656,-1.4075,-1.374,-1.3779,-1.4153,-1.4619,-1.4814,-1.4844,-1.5264,-1.5684,-1.6124,-1.6512,-1.6716,-1.6814,-1.7686,-1.7186,-1.6044,-1.6457,-1.6035,-1.5411,0.0,0.0,0.0,0.0,0.0,0.0,0.0,0.0,0.0,0.0,0.0,0.0,0.0,0.799,0.6271,0.5757,0.669,0.6982,0.6213,0.6152,0.5649,0.4505,0.3956,0.3099,0.1838,0.0674,-0.0602,0.0,0.0,-0.4373,-0.5711,-0.6244,-0.6577,-0.6649,-0.5359,-0.4441,-0.3869,-0.3733,0.0,0.0,-0.2769,-0.2727,-0.2386,-0.2478,-0.2531,-0.2592,-0.2624,-0.2363,-0.2063,-0.2388,-0.2049,-0.1404,-0.1027,-0.0745,-0.0425,0.0,0.0,0.0,0.0,0.0,0.0,-0.0535,-0.0976,-0.1362,-0.1567,-0.2895,-0.4149,-0.4405,-0.505,-0.5639,-0.5843,-0.6534,-0.7267,-0.7974,-0.812,-0.83,-0.8725,-0.8651,-0.8597,-0.8784,-0.8644,-0.8604,-0.8791,-0.8804,-0.8804,-0.8804,-0.8804,-0.891,-0.9133,-0.9788,-1.0466,-1.1141,-1.1832,-1.2493,-1.3105,-1.3105,-1.3184,-1.333,-1.3447,-1.3584,-1.3734,-1.4463,-1.4813,-1.4805,-1.5234,-1.5498,-1.5684,-1.6123,-1.6299,-1.6325,-1.6562,-1.6343,-1.5806,-1.5014,-1.4522,-1.4378,0.0,0.0,0.0,0.0,0.0,0.0,0.0,0.0,0.0,0.3384,0.0,0.0,0.0,0.0,1.0675,0.9344,0.8298,0.7235,0.6168,0.5252,0.4469,0.3894,0.3538,0.2791,0.1596,0.0032,-0.1553,0.0,0.0,0.0,0.0,-0.6848,-0.7,-0.6965,-0.6169,-0.535,0.0,0.0,-0.3923,-0.3202,-0.3896,-0.3843,-0.3386,-0.3481,-0.3441,-0.3336,-0.3376,-0.3117,-0.2781,-0.3158,-0.2741,-0.2014,-0.1439,-0.0968,-0.045,0.0,0.0,0.0,0.0541,0.0,0.0,0.0,0.0,-0.0645,-0.0863,-0.196,-0.3083,-0.3548,-0.402,-0.4504,-0.5004,-0.5834,-0.6608,-0.7195,-0.7373,-0.765,-0.8274,-0.8262,-0.8326,-0.8758,-0.8637,-0.8597,-0.8791,-0.8804,-0.8804,-0.8804,-0.8804,-0.8804,-0.8804,-0.9439,-1.021,-1.1116,-1.1566,-1.2153,-1.2881,-1.2905,-1.2905,-1.2905,-1.3164,-1.3369,-1.3525,-1.4092,-1.4512,-1.4805,-1.5078,-1.5361,-1.5654,-1.5977,-1.5933,-1.5685,-1.5748,-1.5367,-1.4698,-1.3782,-1.3278,-1.3244,0.0,0.0,0.0,0.0,0.0,0.0,0.0,0.0,0.0,1.0057,0.0,0.0,0.0,0.0,0.0,1.0097,0.8595,0.7764,0.7734,0.5198,0.3675,0.3627,0.266,0.1926,0.1464,-0.0118,-0.2066,0.0,0.0,0.0,0.0,0.0,-0.7021,-0.7015,-0.7146,-0.6519,-0.5315,0.0,-0.4747,-0.447,-0.507,-0.5067,-0.4699,-0.4707,-0.4502,-0.4177,-0.4058,-0.4099,-0.4174,-0.4051,-0.3437,-0.264,-0.216,-0.1077,0.0,0.0,0.0,0.0,0.0,0.0,0.0,0.0,0.0,0.0,-0.0738,-0.0895,-0.1266,-0.2607,-0.2887,-0.3348,-0.4804,-0.484,-0.4753,-0.5028,-0.531,-0.5966,-0.7294,-0.7579,-0.7931,-0.8672,-0.8778,-0.8778,-0.8804,-0.8804,-0.8804,-0.8804,-0.8804,-0.8804,-0.8804,-0.9439,-1.0415,-1.174,-1.1789,-1.2153,-1.2881,-1.2905,-1.2905,-1.2905,-1.2905,-1.3096,-1.3486,-1.3516,-1.3975,-1.4746,-1.4813,-1.5292,-1.6056,-1.6065,-1.56,-1.492,-1.5278,-1.4295,-1.2706,-1.2807,-1.2434,-1.2093,0.0,0.0,0.0,0.0,0.0,0.0,0.0,0.0,0.9233,0.0,0.0,0.0,1.2553,1.1523,1.0608,0.9957,0.9529,0.9094,0.8668,0.6651,0.5159,0.4423,0.3435,0.2166,0.0588,-0.1214,-0.3055,-0.4946,-0.6297,-0.7106,-0.7383,-0.7566,-0.7463,0.0,-0.7397,-0.6996,-0.6162,-0.5985,-0.5466,-0.4804,-0.537,-0.5239,-0.4728,-0.5022,-0.473,-0.4204,-0.4317,-0.43,-0.4187,-0.4147,-0.3845,-0.3313,-0.2195,-0.1011,0.0,0.0,0.0,0.0,-0.0596,0.0,0.0,0.0,0.0,0.0,-0.0216,-0.0592,-0.1121,-0.1947,-0.2449,-0.3052,-0.3988,-0.4098,-0.406,-0.4151,-0.4994,-0.5933,-0.6728,-0.6802,-0.7063,-0.7919,-0.7996,-0.8209,-0.8752,-0.8804,-0.8804,-0.8804,-0.8804,-0.8804,-0.8804,-0.9439,-1.0185,-1.104,-1.1541,-1.2153,-1.2881,-1.2905,-1.2905,-1.2905,-1.2905,-1.2964,-1.3101,-1.3656,-1.3899,-1.3916,-1.4834,-1.5195,-1.5195,-1.5459,-1.5133,-1.4381,-1.4082,-1.33,-1.2299,-1.1945,-1.1682,-1.1736,0.0,0.0,0.0,0.0,0.0,0.0,0.0,0.8377,0.8175,0.0,0.0,0.0,1.2774,1.2515,1.2361,1.2361,1.1694,1.0946,1.0139,0.8101,0.6354,0.5129,0.3488,0.1607,-0.055,-0.2327,-0.414,-0.6002,-0.6392,-0.7069,-0.798,-0.778,-0.7736,0.0,0.0,0.0,0.0,-0.6963,-0.6507,-0.574,-0.6246,-0.5999,-0.5357,-0.5594,-0.5113,-0.4348,-0.446,-0.4215,-0.3902,-0.4227,-0.3994,-0.3287,-0.159,-0.0989,-0.085,-0.0544,0.0,0.0,0.0,0.0,0.0,-0.1284,0.0,0.0,-0.038,-0.0452,-0.069,-0.1307,-0.1695,-0.2164,-0.284,-0.2979,-0.2978,-0.3052,-0.3617,-0.4512,-0.5789,-0.6013,-0.6433,-0.7566,-0.7696,-0.7996,-0.8725,-0.8804,-0.8804,-0.8804,-0.8804,-0.8804,-0.8804,-0.9159,-0.9684,-1.0364,-1.104,-1.1724,-1.2427,-1.2749,-1.2905,-1.2905,-1.2905,-1.2993,-1.3154,-1.3467,-1.3636,-1.3773,-1.4375,-1.4483,-1.4308,-1.4544,-1.4275,-1.3649,-1.3106,-1.247,-1.1836,-1.1526,-1.1503,-1.1756,0.0,0.0,0.0,0.0,0.0,0.0,0.0,0.6868,0.7018,0.0,1.0531,1.1805,1.1805,1.4182,1.5799,1.5799,1.4374,1.294,1.1678,0.9359,0.7224,0.5465,0.3086,0.0652,-0.1807,-0.3414,-0.5167,-0.7074,-0.668,-0.7215,-0.8594,-0.7829,-0.7878,-0.8621,0.0,0.0,0.0,-0.7725,-0.7437,-0.6862,-0.7255,-0.6877,-0.6088,-0.6113,-0.5456,-0.4491,-0.4405,-0.3959,-0.3483,-0.4027,-0.3692,-0.2718,-0.081,-0.108,-0.1974,-0.1463,-0.1701,0.0,0.0,0.0,0.0,-0.1961,-0.1578,0.0,-0.0957,-0.0504,-0.0264,-0.0786,-0.0906,-0.1089,-0.1686,-0.1795,-0.1832,-0.1947,-0.1891,-0.254,-0.4621,-0.5108,-0.5815,-0.7391,-0.7589,-0.7889,-0.8725,-0.8804,-0.8804,-0.8804,-0.8804,-0.8804,-0.8804,-0.8804,-0.9133,-0.9891,-1.0491,-1.1116,-1.1789,-1.2525,-1.2847,-1.2774,-1.2847,-1.3101,-1.3428,-1.3021,-1.3219,-1.3842,-1.3484,-1.3382,-1.3422,-1.3352,-1.3177,-1.2846,-1.2266,-1.1701,-1.1217,-1.1108,-1.127,-1.1607,0.9068,0.0,0.0,0.0,0.0,0.0,0.0,0.5034,0.6124,0.772,1.0187,1.1805,1.1805,1.4182,1.5799,1.5799,1.5477,1.4247,1.1756,0.9776,0.7315,0.4212,0.261,0.0342,-0.2768,-0.4347,-0.5713,-0.6863,-0.7402,-0.7607,-0.7509,-0.7719,-0.7923,-0.8141,0.0,0.0,0.0,-0.703,-0.6764,-0.696,-0.6935,-0.6272,-0.5332,-0.5561,-0.5163,-0.4405,-0.3763,-0.3456,-0.3247,-0.2678,-0.2053,-0.1529,-0.1587,-0.1468,-0.1488,-0.2434,-0.2785,-0.2995,-0.3481,-0.3182,-0.2742,-0.2835,-0.2343,0.0,-0.1188,-0.0973,-0.089,-0.0887,-0.091,-0.1093,-0.1685,-0.1795,-0.181,-0.1826,-0.1918,-0.2385,-0.3576,-0.3642,-0.4367,-0.6563,-0.6804,-0.7343,-0.8672,-0.8804,-0.8804,-0.8804,-0.8804,-0.8804,-0.8804,-0.8804,-0.9361,-1.0568,-1.0737,-1.1116,-1.1789,-1.2525,-1.2608,-1.203,-1.2608,-1.2954,-1.3008,-1.2697,-1.2468,-1.2262,-1.2351,-1.231,-1.2195,-1.189,-1.1989,-1.2257,-1.1365,-1.0648,-1.0089,-0.9278,-0.9025,-0.915,0.7757,0.0,0.0,0.0,0.0,0.0,0.0,0.0,0.461,0.6283,1.0,1.2498,1.2498,1.3709,1.4501,1.4501,1.4501,1.4096,1.3114,1.1785,0.9539,0.6188,0.2349,-0.0646,-0.2697,-0.4534,-0.5962,-0.6992,-0.6962,-0.7292,-0.794,-0.7741,-0.7908,-0.8344,0.0,0.0,0.0,-0.6858,-0.6415,-0.6583,-0.6449,-0.5961,-0.5309,-0.5454,-0.5081,-0.4405,-0.3594,-0.3065,-0.2585,-0.1398,-0.128,-0.1573,-0.1148,-0.1584,-0.2302,-0.2583,-0.3129,-0.3702,-0.4026,-0.3821,-0.3543,-0.3543,-0.2811,0.0,0.0,-0.1036,-0.0541,-0.0456,-0.046,-0.0538,-0.0837,-0.0894,-0.0906,-0.0906,-0.0961,-0.129,-0.2138,-0.2831,-0.3959,-0.5833,-0.6064,-0.6497,-0.7589,-0.8049,-0.8401,-0.8778,-0.8804,-0.8804,-0.8804,-0.8804,-0.9113,-0.9788,-1.0141,-1.0466,-1.0788,-1.1509,-1.1832,-1.1789,-1.2178,-1.2535,-1.2881,-1.2385,-1.2013,-1.1783,-1.1549,-1.1383,-1.1238,-1.0596,-1.0588,-1.0903,-1.0468,-0.9856,-0.9211,-0.8944,-0.8871,-0.8996,0.6749,0.0,0.0,0.0,0.0,0.0,0.0,0.0,0.3004,0.5326,0.9357,1.2021,1.2021,1.2207,1.244,1.2621,1.295,1.3228,1.3396,1.324,1.1632,0.8282,0.2294,-0.1488,-0.2582,-0.4295,-0.5685,-0.6706,-0.6383,-0.6933,-0.8242,-0.7591,-0.7756,0.0,0.0,0.0,0.0,0.0,-0.6006,-0.5966,-0.5733,-0.5508,-0.53,-0.53,-0.4976,-0.4377,-0.3428,-0.2619,-0.1786,-0.0448,-0.0783,-0.1619,-0.0699,-0.1675,-0.3093,-0.276,-0.342,-0.4264,-0.4264,-0.4217,-0.4174,-0.4102,-0.3232,-0.231,0.0,0.0,0.0,-0.0027,0.0,0.0,0.0,0.0,0.0,0.0,0.0,-0.0249,-0.0988,-0.2185,-0.3531,-0.5097,-0.5401,-0.5787,-0.6534,-0.7128,-0.7803,-0.8533,-0.8593,-0.8646,-0.8778,-0.8804,-0.8857,-0.8982,-0.951,-0.9788,-0.9788,-1.0466,-1.1015,-1.1416,-1.1541,-1.1931,-1.2461,-1.1749,-1.1408,-1.1391,-1.072,-1.0348,-1.0165,-0.9484,-0.9046,-0.8821,-0.9005,-0.8775,-0.8379,-0.8393,-0.8615,-0.8913,0.73,0.8625,0.0,0.0,0.0,0.0,0.0,0.0,0.1862,0.6245,0.7327,0.7708,0.7708,0.8661,0.9668,1.0547,1.2031,1.1948,0.9595,1.164,1.1204,0.7328,0.2481,-0.1151,-0.3328,-0.3832,-0.4361,-0.4896,-0.6591,-0.7159,-0.6659,-0.6811,-0.7403,0.0,-0.6731,0.0,0.0,0.0,-0.5131,-0.5189,-0.4636,-0.4478,-0.4625,-0.4625,-0.457,-0.4322,-0.2843,-0.1842,-0.109,-0.028,-0.0112,-0.0448,-0.1591,-0.212,-0.2593,-0.3873,-0.434,-0.4464,-0.4464,-0.4345,-0.4247,-0.4412,-0.3705,-0.2861,-0.2314,0.0,-0.0799,-0.0134,0.0,0.0,0.0,0.0,0.0,0.0,0.0,-0.0265,-0.1,-0.1238,-0.2143,-0.4262,-0.5093,-0.5787,-0.6534,-0.6669,-0.702,-0.7777,-0.783,-0.8103,-0.8752,-0.8804,-0.9087,-0.9666,-0.9762,-0.9788,-0.9788,-1.0466,-1.0542,-1.0038,-1.0644,-1.0965,-1.1023,-1.0346,-1.0038,-0.9994,-0.9309,-0.8816,-0.848,-0.8497,-0.737,-0.5634,-0.5907,-0.6681,-0.7446,-0.5822,-0.5898,-0.6849,0.6352,0.68,0.0,0.0,0.0,0.0,0.0,0.0,0.0698,0.2688,0.2931,0.2931,0.2931,0.3396,0.4574,0.6743,1.0579,1.1735,0.8989,0.8324,0.7133,0.5125,0.012,-0.308,-0.4066,-0.3343,-0.3435,-0.4361,-0.505,-0.563,-0.606,-0.616,-0.6652,0.0,-0.6381,0.0,-0.7333,-0.579,-0.5211,-0.5268,-0.4638,-0.4436,-0.4491,-0.4491,-0.4208,-0.3735,-0.3121,-0.212,-0.1062,-0.0755,-0.0643,-0.0755,-0.1369,-0.2147,-0.2982,-0.3649,-0.4153,-0.4491,-0.4491,-0.4447,-0.4389,-0.4474,-0.3531,-0.2522,-0.2253,-0.1284,-0.0363,-0.0055,0.0,0.0,0.0,0.0,0.0,0.0,0.0,-0.0109,-0.0431,-0.1208,-0.2089,-0.3,-0.3804,-0.4718,-0.5846,-0.5882,-0.6183,-0.7009,-0.7398,-0.7748,-0.815,-0.856,-0.8936,-0.9211,-0.9211,-0.9211,-0.9211,-0.9484,-0.9684,-0.9814,-1.009,-1.0415,-1.0788,-1.0115,-0.9788,-0.9762,-0.908,-0.856,-0.8179,-0.7726,-0.657,-0.4998,-0.4095,-0.4214,-0.4731,-0.4033,-0.4547,-0.5571,0.5617,0.0,0.0,0.0,0.0,0.0,0.0,0.0,0.0,0.0,0.0,0.0,0.0,0.0,0.0875,0.3067,0.8495,1.0585,0.7791,0.5655,0.4225,0.3628,-0.1593,-0.4491,-0.4491,-0.2636,-0.2327,-0.3658,-0.3872,-0.4422,-0.5329,-0.5792,-0.6236,0.0,0.0,-0.6218,-0.6738,0.0,-0.5134,-0.5191,-0.4704,-0.4515,-0.4549,-0.4505,-0.4125,-0.3594,-0.3428,-0.2649,-0.1675,-0.148,-0.1396,-0.1424,-0.1647,-0.2454,-0.3372,-0.3624,-0.407,-0.4491,-0.4491,-0.4491,-0.4491,-0.4491,-0.3345,-0.2202,-0.2202,-0.1062,-0.0056,-0.0252,-0.0308,0.0,0.0,0.0,-0.0223,-0.0028,0.0,-0.0307,-0.0304,-0.1387,-0.212,-0.1925,-0.2788,-0.3871,-0.5105,-0.5134,-0.5407,-0.6244,-0.6881,-0.7387,-0.7685,-0.8401,-0.8804,-0.8804,-0.8804,-0.8804,-0.8804,-0.8804,-0.9133,-0.9788,-0.9614,-0.9891,-1.0491,-0.984,-0.951,-0.9484,-0.9008,-0.8408,-0.7728,-0.7138,-0.5877,-0.419,-0.2969,-0.235,-0.217,-0.2542,-0.3639,-0.4901,0.5617,0.5293,0.0,0.0,0.0,0.0,0.0,0.0,0.0,0.0,0.0,0.0,0.0,0.0,0.0028,0.014,0.5541,0.7711,0.4818,0.4546,0.4225,0.3628,-0.1593,-0.4491,-0.4491,-0.1589,-0.0781,-0.2254,-0.3676,-0.4257,-0.4098,-0.5784,-0.6448,0.0,-0.5735,-0.5525,-0.5506,-0.4807,-0.4539,-0.4515,-0.4519,-0.458,-0.4667,-0.4545,-0.4491,-0.4349,-0.3594,-0.3259,-0.3121,-0.2397,-0.2174,-0.2286,-0.301,-0.3314,-0.3541,-0.4267,-0.4491,-0.4491,-0.4491,-0.4491,-0.4491,-0.4491,-0.3345,-0.2202,-0.2202,-0.1062,-0.0196,-0.0923,-0.1062,-0.1062,-0.1062,-0.1062,-0.083,-0.0107,-0.0602,0.0,0.0,-0.1722,-0.1924,-0.1229,-0.2482,-0.3707,-0.446,-0.4539,-0.4807,-0.5487,-0.6222,-0.6934,-0.767,-0.8401,-0.8804,-0.8804,-0.8804,-0.8804,-0.8804,-0.8804,-0.9133,-0.9788,-0.9133,-0.9185,-0.9814,-0.9133,-0.8831,-0.8831,-0.8811,-0.7969,-0.6668,-0.6824,-0.5088,-0.2305,-0.2453,-0.1515,-0.023,-0.1275,-0.3026,-0.4901,0.0,0.0,0.0,0.0,0.0,0.131,-0.1903,-0.103,0.0,0.0,-0.1739,-0.2966,-0.2968,-0.2982,-0.2176,-0.0168,0.1831,0.2575,0.1591,0.34,0.4399,0.4197,-0.1403,-0.4491,-0.4491,-0.251,-0.1229,-0.0755,-0.2227,-0.3427,0.0,0.0,0.0,0.0,0.0,-0.5515,0.0,0.0,-0.4615,-0.3771,-0.3855,-0.3937,-0.4018,-0.4575,-0.4701,-0.4584,-0.4324,-0.3834,-0.3259,-0.3065,-0.2982,-0.3037,-0.3289,-0.3707,-0.4181,-0.4436,-0.4491,-0.4491,-0.4491,-0.4491,-0.4491,-0.4491,-0.3735,-0.2982,-0.2926,-0.2174,-0.1535,-0.1786,-0.184,-0.184,-0.184,-0.184,-0.1752,-0.1484,-0.1662,-0.1833,0.0,-0.2049,-0.2482,-0.3262,-0.2899,-0.3093,-0.4377,-0.4375,-0.4439,-0.4807,-0.5863,-0.6618,-0.6956,-0.8129,-0.8804,-0.8804,-0.8804,-0.8804,-0.8804,-0.8804,-0.891,-0.9133,-0.891,-0.891,-0.914,-0.9086,-0.8958,-0.8818,-0.8984,-0.8127,-0.6593,-0.6663,-0.4935,-0.2207,-0.2271,-0.136,-0.0033,-0.0393,-0.1481,-0.293,0.2676,0.0,0.0,0.4159,0.2283,-0.0337,-0.3447,-0.1679,0.0,0.0,-0.2639,-0.4491,-0.4491,-0.4491,-0.3707,-0.1758,-0.1591,-0.1146,-0.0084,0.1814,0.2899,0.2899,-0.0833,-0.2899,-0.2899,-0.1925,-0.1202,-0.0783,-0.1564,-0.2454,0.0,0.0,0.0,0.0,0.0,-0.4988,-0.4745,-0.4718,-0.4055,-0.3019,-0.348,-0.3856,-0.4235,-0.5196,-0.5362,-0.5089,-0.5147,-0.4755,-0.416,-0.3941,-0.3892,-0.3929,-0.3929,-0.4213,-0.4573,-0.4573,-0.4532,-0.4491,-0.4491,-0.4532,-0.4573,-0.4573,-0.4039,-0.3514,-0.3414,-0.2864,-0.2449,-0.2647,-0.2697,-0.2705,-0.2766,-0.2691,-0.2547,-0.2352,-0.2473,-0.2704,0.0,-0.276,-0.3065,-0.4349,-0.3148,-0.2815,-0.4349,-0.4131,-0.4061,-0.4481,-0.5735,-0.6517,-0.6605,-0.7996,-0.8804,-0.8804,-0.8804,-0.8804,-0.8804,-0.8804,-0.891,-0.9159,-0.891,-0.899,-0.9333,-0.9234,-0.9164,-0.9125,-0.9178,-0.8288,-0.6764,-0.6731,-0.5108,-0.2677,-0.2395,-0.155,-0.0424,-0.0106,-0.0663,-0.1882,0.2495,0.3512,0.4284,0.649,0.0695,-0.4322,-0.4487,-0.2065,-0.0224,-0.0224,-0.2732,-0.4491,-0.4491,-0.4491,-0.4491,-0.4491,-0.4491,-0.3289,-0.042,-0.0084,0.0,0.0,0.0,0.0,0.0,0.0,-0.0699,-0.2091,-0.1648,-0.1426,0.0,0.0,0.0,0.0,-0.4076,0.0,-0.34,-0.3317,-0.2845,-0.2243,-0.3315,-0.4278,-0.5185,-0.6379,-0.6475,-0.597,-0.599,-0.5928,-0.5698,-0.4959,-0.4769,-0.4857,-0.4887,-0.479,-0.4643,-0.4704,-0.4627,-0.4511,-0.4511,-0.4621,-0.4701,-0.4701,-0.427,-0.3812,-0.3698,-0.3218,-0.2958,-0.3546,-0.3672,-0.3706,-0.382,-0.3651,-0.3276,-0.2712,-0.3022,-0.3622,-0.4405,-0.3846,-0.3649,-0.4405,-0.3178,-0.2843,-0.4349,-0.3763,-0.3649,-0.4487,-0.5823,-0.6615,-0.6642,-0.8017,-0.8804,-0.8804,-0.8804,-0.8804,-0.8804,-0.8804,-0.9106,-0.9736,-0.9113,-0.9292,-1.0233,-0.9522,-0.9391,-0.9666,-0.9371,-0.8443,-0.7146,-0.6966,-0.5616,-0.3565,-0.2789,-0.1965,-0.1146,-0.0319,-0.0639,-0.169,0.0335,0.2368,0.392,0.4962,0.1652,-0.1898,-0.4153,-0.3846,-0.3345,-0.3345,-0.4015,-0.4491,-0.4491,-0.4491,-0.4491,-0.4491,-0.4491,-0.4181,-0.34,-0.1257,0.0,0.0,0.0,0.0,0.0,0.0,-0.0196,-0.056,-0.0448,-0.0392,-0.042,0.0,0.0,0.0,0.0,-0.4036,-0.3317,-0.3314,-0.2565,-0.1491,-0.2564,-0.3498,-0.4602,-0.7458,-0.8346,-0.787,-0.6725,-0.6211,-0.5973,-0.5123,-0.4427,-0.4055,-0.4705,-0.443,-0.4005,-0.4646,-0.4833,-0.4802,-0.4802,-0.483,-0.486,-0.486,-0.4736,-0.4601,-0.4562,-0.443,-0.4385,-0.4532,-0.4556,-0.4566,-0.4604,-0.4493,-0.4324,-0.4155,-0.4163,-0.4267,-0.446,-0.4322,-0.4267,-0.446,-0.3622,-0.34,-0.4405,-0.3818,-0.3895,-0.516,-0.6091,-0.6831,-0.7396,-0.8295,-0.8804,-0.8804,-0.8804,-0.8804,-0.8804,-0.8804,-0.8883,-0.9061,-0.8883,-0.9038,-0.9487,-0.9551,-0.9613,-0.9722,-0.9826,-0.9111,-0.7886,-0.7288,-0.6017,-0.4274,-0.2842,-0.1477,-0.0319,-0.0072,-0.0188,-0.055,0.166,0.2008,0.2137,0.2477,0.1118,-0.056,-0.2259,-0.3652,-0.4015,-0.2704,-0.368,-0.3984,-0.2676,-0.3707,-0.4491,-0.4491,-0.4491,-0.4491,-0.4491,-0.1675,0.0,0.0,0.0,0.0,0.0,0.0,-0.0643,-0.1953,-0.1284,-0.0643,-0.0028,0.0,0.0,0.0,0.0,-0.3234,-0.279,-0.2124,-0.1195,-0.0272,-0.1956,-0.3395,0.0,-0.796,-0.9308,-0.9475,-0.8541,-0.7582,-0.6651,-0.5836,-0.4762,-0.3924,-0.4823,-0.4461,-0.3848,-0.4727,-0.4938,-0.4887,-0.4887,-0.4935,-0.4978,-0.4978,-0.5064,-0.5094,-0.4995,-0.5064,-0.5185,-0.5488,-0.5562,-0.5709,-0.6154,-0.6073,-0.5781,-0.5327,-0.4898,-0.4566,-0.4498,-0.4491,-0.4491,-0.4491,-0.379,-0.3622,-0.4436,-0.3818,-0.3843,-0.4972,-0.6014,-0.6777,-0.7208,-0.791,-0.8454,-0.8778,-0.863,-0.8636,-0.8804,-0.8904,-0.8904,-0.8804,-0.8804,-0.8931,-0.9224,-0.9546,-0.9753,-0.9873,-0.9913,-0.9323,-0.8333,-0.7868,-0.6726,-0.5111,-0.3571,-0.2242,-0.1179,-0.1179,-0.0968,-0.0784,0.3896,0.1476,-0.0588,-0.0588,-0.0252,-0.0169,-0.063,-0.2538,-0.3121,-0.0895,-0.2943,-0.3581,-0.0896,-0.2926,-0.4491,-0.4491,-0.4491,-0.4491,-0.4491,-0.2037,-0.0588,-0.0588,-0.0224,0.0,0.0,0.0,-0.148,-0.4491,-0.276,-0.1257,0.0,0.0,0.0,0.0,0.0,0.0,0.0,-0.0577,0.0322,0.0618,-0.169,-0.3791,-0.5798,-0.8337,-0.9857,-1.0628,-1.0656,-0.9325,-0.745,-0.6674,-0.5267,-0.3992,-0.5028,-0.4582,-0.3847,-0.4833,-0.5042,-0.4979,-0.4979,-0.5036,-0.5123,-0.5103,-0.5247,-0.5354,-0.5133,-0.525,-0.5585,-0.6296,-0.6453,-0.6754,-0.7797,-0.7747,-0.721,-0.6202,-0.5405,-0.4818,-0.4597,-0.4549,-0.4542,-0.4522,-0.39,0.0,-0.4436,-0.379,-0.3677,-0.457,-0.585,-0.6642,-0.675,-0.745,-0.8129,-0.8785,-0.8473,-0.8471,-0.8838,-0.9051,-0.9071,-0.8918,-0.8884,-0.9011,-0.9337,-0.9626,-0.99,-1.016,-0.9907,-0.9444,-0.8782,-0.8563,-0.7454,-0.578,-0.4614,-0.3571,-0.2686,-0.2686,-0.2488,-0.2141,0.1252,-0.1643,-0.3707,-0.3707,-0.1647,-0.1015,-0.4004,-0.2362,-0.148,-0.3456,-0.4618,-0.4858,-0.3837,-0.4181,-0.4491,-0.4491,-0.4491,-0.4491,-0.4491,-0.4015,-0.3707,-0.3707,-0.134,0.0,0.0,0.0,-0.148,-0.4491,-0.173,-0.0252,-0.0028,-0.0839,0.0,0.0,0.0,0.0,-0.1229,-0.0366,-0.0287,-0.088,-0.2611,-0.4689,-0.7002,-0.9821,-1.0814,-1.0748,-1.1305,-0.9957,-0.7747,-0.675,-0.4842,-0.3198,-0.4685,-0.4118,-0.3219,-0.4852,-0.5337,-0.5317,-0.5317,-0.5334,-0.5324,-0.513,-0.5247,-0.5354,-0.5133,-0.525,-0.5646,-0.6485,-0.664,-0.6941,-0.7822,-0.7802,-0.7334,-0.6318,-0.6024,-0.5692,-0.493,-0.484,-0.4792,-0.4667,-0.4535,-0.4457,-0.4501,-0.3818,-0.3923,-0.5214,-0.6122,-0.6858,-0.7477,-0.8209,-0.8672,-0.8804,-0.8718,-0.8837,-0.9138,-0.8951,-0.9105,-0.9526,-0.9257,-0.9417,-0.993,-0.999,-1.02,-1.0512,-1.0459,-1.0206,-0.9793,-0.9144,-0.7455,-0.5238,-0.5127,-0.4105,-0.2686,-0.2686,-0.3786,-0.5121,0.028,-0.2425,-0.4491,-0.4491,-0.3289,-0.3031,-0.5071,-0.3929,-0.3324,-0.4772,-0.5214,-0.5283,-0.4989,-0.4958,-0.4832,-0.4515,-0.4491,-0.4491,-0.4491,-0.4491,-0.3795,-0.2243,-0.0783,0.0,0.0,-0.1535,-0.3037,-0.4491,-0.3037,-0.2017,-0.1412,-0.1477,-0.2049,-0.3022,0.0,-0.1934,-0.114,-0.0341,-0.0259,-0.0809,-0.284,-0.4905,-0.7054,-0.9568,-1.0479,-1.0432,-1.0628,-0.9381,-0.752,-0.6693,-0.47,-0.2887,-0.4585,-0.3982,-0.3056,-0.4869,-0.5395,-0.5395,-0.5395,-0.5395,-0.5378,-0.527,-0.5341,-0.5375,-0.5267,-0.5341,-0.5653,-0.6527,-0.7046,-0.7795,-0.9096,-0.8902,-0.8206,-0.7284,-0.6764,-0.6107,-0.513,-0.4999,-0.4914,-0.4718,-0.4691,-0.4658,-0.4505,-0.4181,-0.426,-0.4921,-0.5628,-0.6362,-0.7101,-0.7477,-0.8023,-0.8778,-0.8602,-0.8709,-0.9183,-0.9252,-0.9406,-0.9686,-0.9539,-0.9619,-0.9893,-1.0047,-1.0431,-1.0953,-1.0953,-1.0868,-1.0629,-0.9413,-0.7917,-0.6406,-0.6148,-0.5163,-0.4015,-0.4568,-0.5585,-0.6538,0.0,-0.2425,-0.4491,-0.4491,-0.4702,-0.5037,-0.5515,-0.5586,-0.5539,-0.5412,-0.5395,-0.5395,-0.5395,-0.5395,-0.5204,-0.4723,-0.4682,-0.4368,-0.3602,-0.355,-0.2495,-0.0101,-0.0738,-0.0956,-0.0572,-0.3218,-0.4621,-0.4682,-0.4301,-0.3829,-0.3252,-0.2363,-0.253,-0.3531,-0.3024,-0.2329,-0.1511,-0.0843,-0.0702,-0.109,-0.3193,-0.5185,-0.7078,-0.903,-0.9867,-0.9982,-0.9653,-0.8491,-0.7042,-0.6293,-0.4553,-0.2996,-0.4534,-0.4046,-0.3259,-0.4871,-0.5368,-0.5395,-0.5395,-0.5395,-0.5388,-0.5354,-0.5371,-0.5385,-0.5354,-0.5371,-0.5653,-0.6527,-0.7535,-0.8742,-1.0301,-1.004,-0.93,-0.842,-0.7736,-0.6944,-0.5862,-0.5773,-0.5612,-0.5114,-0.5045,-0.4905,-0.458,-0.4508,-0.4491,-0.4491,-0.5277,-0.6028,-0.6681,-0.6939,-0.7663,-0.8964,-0.8566,-0.867,-0.9397,-0.9532,-0.9686,-0.9903,-0.9806,-0.9836,-0.9909,-1.0107,-1.0651,-1.1406,-1.1406,-1.1406,-1.1286,-0.9801,-0.8722,-0.7991,-0.7468,-0.663,-0.5826,-0.6664,-0.736,-0.7792,0.0,-0.2425,-0.4491,-0.4491,-0.5399,-0.6149,-0.6204,-0.6214,-0.6016,-0.5467,-0.5395,-0.5395,-0.5395,-0.5395,-0.5371,-0.5313,-0.531,-0.3909,-0.0649,-0.0406,-0.03,0.0,-0.3152,-0.4118,-0.2473,-0.4022,-0.5009,-0.531,-0.3659,-0.3643,-0.5114,-0.3951,-0.3199,-0.2828,-0.3402,-0.3197,-0.2387,-0.2446,-0.2767,-0.336,-0.4398,-0.5986,-0.7926,-0.9157,-0.9702,-0.9732,-0.8903,-0.7784,-0.6491,-0.5279,-0.4256,-0.3637,-0.4464,-0.4261,-0.3892,-0.4858,-0.525,-0.5395,-0.5395,-0.5395,-0.5361,-0.5186,-0.5257,-0.5358,-0.5182,-0.526,-0.5653,-0.6527,-0.8027,-0.9466,-1.0428,-1.053,-1.0206,-0.9338,-0.9298,-0.9019,-0.7897,-0.7933,-0.7635,-0.6375,-0.6124,-0.5681,-0.4771,-0.4573,-0.4491,-0.4491,-0.5741,-0.6646,-0.7048,-0.8042,-0.8909,-0.9586,-0.9057,-0.9142,-0.9997,-0.9504,-0.9686,-1.0506,-1.0207,-1.0214,-1.0512,-1.0539,-1.1003,-1.1751,-1.1751,-1.1751,-1.1689,-1.0815,-0.9939,-0.9137,-0.9064,-0.8501,-0.7737,-0.7854,-0.8714,-0.9823,-0.2343,-0.395,-0.5033,-0.5033,-0.5736,-0.63,-0.63,-0.5992,-0.5668,-0.5426,-0.5395,-0.5395,-0.5395,-0.5395,-0.5395,-0.5395,-0.3424,-0.1555,-0.0094,0.0,0.0,0.0,-0.2414,-0.3612,-0.3243,-0.4686,-0.6109,-0.7434,-0.6722,-0.6726,-0.743,-0.6776,-0.5635,-0.4128,-0.3994,-0.3731,-0.3366,-0.2888,-0.3146,-0.3909,-0.4781,-0.5896,-0.7096,-0.7911,-0.8242,-0.8186,-0.7229,-0.6601,-0.6104,-0.5129,-0.4228,-0.3632,-0.4455,-0.4276,-0.3979,-0.4858,-0.524,-0.5395,-0.5395,-0.5395,-0.5382,-0.5284,-0.5347,-0.5378,-0.5284,-0.5351,-0.5491,-0.5848,-0.7312,-0.8935,-1.0333,-1.0593,-1.0321,-0.9566,-0.9507,-0.9236,-0.8241,-0.8206,-0.7996,-0.7267,-0.7142,-0.669,-0.5595,-0.5446,-0.5184,-0.4656,-0.5448,-0.6182,-0.6769,-0.7846,-0.8724,-0.9377,-0.9359,-0.9586,-1.0114,-0.985,-1.0033,-1.0593,-1.0472,-1.0479,-1.0593,-1.0593,-1.1045,-1.1803,-1.1803,-1.1877,-1.1968,-1.1157,-1.0386,-0.9673,-0.9734,-0.9192,-0.8445,-0.9024,-0.9742,-1.0479,-0.4372,-0.5102,-0.545,-0.5627,-0.6016,-0.6238,-0.6061,-0.4786,-0.4187,-0.5259,-0.5395,-0.499,-0.392,-0.3818,-0.3818,-0.3818,-0.1463,0.0,0.0,0.0,0.0,0.0,-0.156,-0.2719,-0.3394,-0.4991,-0.669,-0.8573,-0.9333,-1.0038,-1.0653,-0.9779,-0.7882,-0.5152,-0.463,-0.4401,-0.4373,-0.3754,-0.3823,-0.4388,-0.5042,-0.5728,-0.6398,-0.6808,-0.708,-0.7126,-0.6191,-0.591,-0.5872,-0.5157,-0.442,-0.3945,-0.4526,-0.4463,-0.4287,-0.4857,-0.5206,-0.5395,-0.5395,-0.5395,-0.5395,-0.5395,-0.5395,-0.5395,-0.5395,-0.5395,-0.5557,-0.6046,-0.7149,-0.8544,-1.0269,-1.0593,-1.043,-0.9896,-0.9889,-0.9714,-0.9009,-0.8964,-0.8816,-0.8243,-0.813,-0.7623,-0.6479,-0.6423,-0.614,-0.5468,-0.6036,-0.6575,-0.6897,-0.7919,-0.8846,-0.959,-0.9666,-0.9866,-1.0241,-1.016,-1.0307,-1.072,-1.0633,-1.0633,-1.0713,-1.0873,-1.1307,-1.1914,-1.1914,-1.2069,-1.2276,-1.1441,-1.0815,-1.0358,-1.0569,-1.0205,-0.9651,-1.0357,-1.0896,-1.1327,-0.5501,-0.5388,-0.5583,-0.6184,-0.6293,-0.6098,-0.5498,-0.2383,-0.1344,-0.4924,-0.5395,-0.4054,-0.0471,-0.0067,-0.0067,-0.0067,-0.0034,0.0,0.0,0.0,0.0,0.0,-0.1147,-0.2147,-0.2894,-0.4809,-0.6535,-0.8006,-1.0601,-1.2985,-1.5059,-1.2733,-0.9404,-0.5392,-0.5392,-0.5392,-0.5395,-0.5359,-0.527,-0.5113,-0.533,-0.5715,-0.6186,-0.6218,-0.6599,-0.7002,-0.6259,-0.5992,-0.5872,-0.5157,-0.4887,-0.4857,-0.4738,-0.4864,-0.5069,-0.4931,-0.5128,-0.5395,-0.5395,-0.5395,-0.5395,-0.5395,-0.5395,-0.5395,-0.5395,-0.5395,-0.5885,-0.7605,-0.7994,-0.8544,-1.0269,-1.0593,-1.0593,-1.06,-1.0808,-1.0895,-1.0608,-1.0815,-1.0555,-0.9426,-0.9095,-0.855,-0.7399,-0.7413,-0.7355,-0.7076,-0.7993,-0.8319,-0.7716,-0.8635,-0.961,-1.0546,-1.0017,-0.9997,-1.0579,-1.0267,-1.0408,-1.0982,-1.0727,-1.0747,-1.1008,-1.1551,-1.1944,-1.2218,-1.2218,-1.2379,-1.2646,-1.1758,-1.1389,-1.1415,-1.175,-1.1864,-1.1857,-1.1864,-1.2268,-1.269,-0.5515,-0.573,-0.6071,-0.6265,-0.63,-0.6095,-0.5487,-0.442,-0.3215,-0.1879,-0.1712,-0.1276,-0.0135,0.0,0.0,0.0,0.2248,0.3685,0.3685,0.1377,0.0,0.0,-0.1154,-0.213,-0.2894,-0.5483,-0.7766,-0.9694,-1.1024,-1.2515,-1.405,-1.184,-0.952,-0.712,-0.5918,-0.5395,-0.5395,-0.5395,-0.5365,-0.5324,-0.5375,-0.543,-0.5441,-0.5441,-0.5566,-0.5709,-0.5463,-0.5473,-0.5571,-0.5316,-0.5252,-0.5192,-0.504,-0.5022,-0.509,-0.5046,-0.5206,-0.5395,-0.5395,-0.5395,-0.5395,-0.5395,-0.5395,-0.5395,-0.5395,-0.5848,-0.6625,-0.7767,-0.8614,-0.9468,-1.0429,-1.0754,-1.0821,-1.0626,-1.0667,-1.07,-1.0606,-1.0673,-1.0597,-1.0219,-1.0122,-0.9668,-0.8556,-0.7944,-0.737,-0.6667,-0.731,-0.789,-0.83,-0.9252,-0.9937,-1.0247,-1.0468,-1.0606,-1.0593,-1.0855,-1.1002,-1.0995,-1.1102,-1.1096,-1.1022,-1.1182,-1.1312,-1.1383,-1.1591,-1.1853,-1.2165,-1.2051,-1.2024,-1.2078,-1.2585,-1.2652,-1.2529,-1.2705,-1.2906,-1.3033,-0.5808,-0.604,-0.6795,-0.8309,-0.7288,-0.6095,-0.5487,-0.5395,-0.4087,-0.0471,0.0,0.0,0.0,0.0,0.0,0.0,0.3301,0.5395,0.5395,0.3284,0.1411,0.0067,-0.1142,-0.2307,-0.3375,-0.6361,-0.8898,-1.0985,-1.2473,-1.37,-1.4568,-1.239,-1.0506,-0.8903,-0.692,-0.5818,-0.5395,-0.5395,-0.5395,-0.5395,-0.5395,-0.5337,-0.5216,-0.5216,-0.5216,-0.5216,-0.5216,-0.5281,-0.5395,-0.5395,-0.5395,-0.5378,-0.5247,-0.5216,-0.5206,-0.5117,-0.524,-0.5395,-0.5395,-0.5395,-0.5395,-0.5395,-0.5395,-0.5491,-0.5815,-0.656,-0.7437,-0.8323,-0.9066,-0.9756,-1.0461,-1.074,-1.0801,-1.062,-1.0593,-1.0553,-1.0439,-1.0519,-1.0553,-1.0439,-1.0526,-1.0152,-0.9046,-0.8594,-0.7927,-0.6894,-0.7729,-0.8478,-0.8995,-0.9834,-1.0334,-1.0441,-1.0909,-1.1069,-1.0889,-1.1243,-1.139,-1.1323,-1.1503,-1.1383,-1.0995,-1.1102,-1.1216,-1.1363,-1.1516,-1.1824,-1.2248,-1.2429,-1.2538,-1.273,-1.3639,-1.3905,-1.3829,-1.4374,-1.4645,-1.4718,-0.63,-0.6265,-0.7415,-1.123,-0.8799,-0.6095,-0.5487,-0.5395,-0.4187,-0.0807,-0.0371,-0.0388,-0.0374,-0.0158,0.0,0.0,0.3304,0.5395,0.5395,0.5395,0.3885,0.0539,-0.1074,-0.2637,-0.4349,-0.7429,-1.0006,-1.2045,-1.4739,-1.6081,-1.6098,-1.4035,-1.2121,-1.0396,-0.8146,-0.6498,-0.5395,-0.5395,-0.5395,-0.5395,-0.5395,-0.5395,-0.5395,-0.5395,-0.5395,-0.5395,-0.5395,-0.5395,-0.5395,-0.5395,-0.5395,-0.5395,-0.5395,-0.5395,-0.5365,-0.5189,-0.5247,-0.5395,-0.5395,-0.5395,-0.5395,-0.5395,-0.5462,-0.5719,-0.6593,-0.747,-0.8323,-0.9139,-0.935,-0.965,-1.0434,-1.0613,-1.062,-1.0593,-1.0573,-1.0472,-1.018,-1.0367,-1.0466,-1.018,-1.0439,-1.0153,-0.8964,-0.9188,-0.8881,-0.7572,-0.8925,-0.9759,-0.9624,-1.0315,-1.0827,-1.1042,-1.1356,-1.1462,-1.1456,-1.1496,-1.1643,-1.1933,-1.1913,-1.1618,-1.1062,-1.1329,-1.1603,-1.1906,-1.1926,-1.2248,-1.2757,-1.2797,-1.2965,-1.3298,-1.4747,-1.5305,-1.5387,-1.6522,-1.7077,-1.7235,-0.63,-0.5928,-0.6068,-0.7492,-0.6945,-0.6095,-0.5487,-0.5395,-0.5093,-0.422,-0.412,-0.4111,-0.4129,-0.1651,0.0,0.0,0.3298,0.5395,0.5395,0.5395,0.5027,0.4154,-0.0133,-0.3664,-0.6213,-0.8711,-1.1437,-1.447,-1.6491,-1.6541,-1.4673,-1.3961,-1.2034,-0.9198,-0.8221,-0.6892,-0.5395,-0.5395,-0.5395,-0.5395,-0.5395,-0.5395,-0.5395,-0.5395,-0.5395,-0.5395,-0.5395,-0.5395,-0.5395,-0.5395,-0.5395,-0.5395,-0.5395,-0.5395,-0.5388,-0.5351,-0.5365,-0.5395,-0.5395,-0.5395,-0.5395,-0.5395,-0.5914,-0.6625,-0.7502,-0.8355,-0.9043,-0.9274,-0.9985,-1.0588,-1.0601,-1.0774,-1.0847,-1.0626,-1.0399,-1.0274,-1.0466,-1.0321,-1.0281,-1.0472,-1.0747,-1.049,-0.9423,-0.8931,-0.8248,-0.7259,-0.8171,-0.8793,-0.8856,-1.0791,-1.1817,-1.1705,-1.2201,-1.2254,-1.1806,-1.2248,-1.2395,-1.2198,-1.2013,-1.1832,-1.1698,-1.173,-1.1839,-1.1913,-1.2104,-1.2278,-1.2438,-1.2906,-1.2872,-1.2725,-1.4805,-1.5318,-1.5092,-1.6637,-1.726,-1.7236,-0.63,-0.6037,-0.5914,-0.6242,-0.63,-0.6095,-0.5487,-0.5395,-0.5395,-0.5395,-0.5395,-0.5395,-0.5395,-0.3651,-0.1812,-0.0135,0.3316,0.5395,0.5395,0.5395,0.5269,0.4993,-0.0708,-0.4846,-0.6866,-1.0068,-1.3259,-1.643,-1.6908,-1.6234,-1.4505,-1.3783,-1.2043,-0.9476,-0.8468,-0.7022,-0.5395,-0.5395,-0.5395,-0.5395,-0.5395,-0.5395,-0.5395,-0.5395,-0.5395,-0.5395,-0.5395,-0.5395,-0.5395,-0.5395,-0.5395,-0.5395,-0.5395,-0.5395,-0.5395,-0.5395,-0.5395,-0.5395,-0.5395,-0.5395,-0.5491,-0.5881,-0.6658,-0.7535,-0.8388,-0.9262,-0.9888,-0.9888,-1.0393,-1.078,-1.062,-1.072,-1.0774,-1.062,-1.0452,-1.0327,-1.0385,-1.0334,-1.0412,-1.0573,-1.0847,-1.0516,-0.9299,-0.8891,-0.8148,-0.6699,-0.802,-0.8898,-0.8816,-1.1175,-1.2409,-1.2078,-1.2683,-1.2844,-1.2485,-1.2697,-1.2569,-1.2104,-1.2078,-1.2033,-1.1906,-1.204,-1.2181,-1.2308,-1.2291,-1.2458,-1.2746,-1.3073,-1.3013,-1.2959,-1.5468,-1.6148,-1.6014,-1.8035,-1.8829,-1.8802,-0.63,-0.63,-0.63,-0.63,-0.63,-0.6126,-0.561,-0.5532,-0.5498,-0.5405,-0.5395,-0.5395,-0.5395,-0.5395,-0.4154,-0.1076,0.2509,0.4821,0.5362,0.5395,0.5122,0.4515,-0.1805,-0.6081,-0.7795,-1.1885,-1.5158,-1.7544,-1.6719,-1.5763,-1.4771,-1.3417,-1.1881,-1.0159,-0.8581,-0.6957,-0.5395,-0.5395,-0.5395,-0.5395,-0.5395,-0.5395,-0.5395,-0.5395,-0.5395,-0.5395,-0.5395,-0.5395,-0.5395,-0.5395,-0.5395,-0.5395,-0.5395,-0.5395,-0.5395,-0.5395,-0.5395,-0.5395,-0.5395,-0.5395,-0.5624,-0.6494,-0.734,-0.8231,-0.9154,-1.0008,-1.062,-1.0707,-1.0687,-1.0673,-1.0713,-1.0687,-1.0673,-1.0713,-1.0613,-1.0472,-1.0267,-1.0459,-1.0613,-1.0653,-1.0995,-1.0576,-0.8994,-0.905,-0.8315,-0.6218,-0.8189,-0.9379,-0.919,-1.152,-1.2757,-1.2512,-1.3006,-1.3293,-1.3404,-1.3015,-1.2604,-1.2249,-1.2278,-1.2198,-1.2047,-1.2211,-1.2465,-1.277,-1.2516,-1.2685,-1.3213,-1.3213,-1.3259,-1.362,-1.6213,-1.714,-1.7333,-1.9733,-2.0605,-2.0595,-0.63,-0.63,-0.63,-0.63,-0.63,-0.6269,-0.6173,-0.616,-0.5975,-0.5463,-0.5395,-0.5395,-0.5395,-0.5395,-0.516,-0.4622,-0.124,0.2147,0.5193,0.5395,0.5122,0.4515,-0.1792,-0.7411,-1.1936,-1.5157,-1.6627,-1.6365,-1.6907,-1.6217,-1.4264,-1.2663,-1.1002,-0.9338,-0.7867,-0.6564,-0.5395,-0.5395,-0.5395,-0.5395,-0.5395,-0.5395,-0.5395,-0.5395,-0.5395,-0.5395,-0.5395,-0.5395,-0.5395,-0.5395,-0.5395,-0.5395,-0.5395,-0.5395,-0.5395,-0.5395,-0.5395,-0.5395,-0.5395,-0.5395,-0.5624,-0.6494,-0.734,-0.8273,-0.9373,-1.0147,-1.0734,-1.1189,-1.1096,-1.1002,-1.1243,-1.1089,-1.1009,-1.1249,-1.0668,-1.0341,-1.0795,-1.072,-1.068,-1.0895,-1.1617,-1.1315,-0.9263,-0.9399,-0.8739,-0.6601,-0.8219,-0.9397,-0.9591,-1.1835,-1.3227,-1.3387,-1.3487,-1.3802,-1.4389,-1.3348,-1.3147,-1.3829,-1.2799,-1.2449,-1.2643,-1.2398,-1.2465,-1.2784,-1.2737,-1.2918,-1.3213,-1.3213,-1.3514,-1.4236,-1.6194,-1.7269,-1.7993,-1.988,-2.0605,-2.0546,-0.6732,-0.6478,-0.63,-0.63,-0.63,-0.63,-0.63,-0.63,-0.6197,-0.5917,-0.5597,-0.5395,-0.5395,-0.5395,-0.5395,-0.5395,-0.208,0.0706,0.2382,0.4013,0.4069,0.2165,-0.2392,-0.7563,-1.3309,-1.533,-1.6312,-1.6322,-1.5881,-1.4699,-1.2821,-1.1612,-0.9914,-0.7829,-0.7163,-0.6334,-0.5395,-0.5395,-0.5395,-0.5395,-0.5395,-0.5395,-0.5395,-0.5395,-0.5395,-0.5395,-0.5395,-0.5395,-0.5395,-0.5395,-0.5395,-0.5395,-0.5395,-0.5395,-0.5395,-0.5395,-0.5395,-0.5395,-0.5395,-0.5395,-0.5624,-0.6494,-0.734,-0.8247,-0.9252,-1.0185,-1.0901,-1.1136,-1.1209,-1.1269,-1.1369,-1.1189,-1.1089,-1.1342,-1.0822,-1.0561,-1.1142,-1.0975,-1.0995,-1.1444,-1.1964,-1.1546,-0.962,-0.9767,-0.9327,-0.7818,-0.8995,-1.0062,-1.0722,-1.2324,-1.3307,-1.3593,-1.4351,-1.4803,-1.4993,-1.4413,-1.4253,-1.4493,-1.3202,-1.2914,-1.3523,-1.2863,-1.2914,-1.3544,-1.319,-1.308,-1.322,-1.334,-1.3498,-1.3895,-1.6206,-1.7209,-1.7602,-1.9812,-2.0605,-2.0576,-0.8532,-0.7518,-0.6463,-0.6323,-0.63,-0.63,-0.63,-0.63,-0.63,-0.63,-0.5893,-0.5552,-0.5412,-0.5395,-0.5395,-0.5395,-0.285,-0.0908,-0.0067,0.1382,0.1152,-0.1138,-0.4248,-0.8381,-1.367,-1.4835,-1.5575,-1.5958,-1.4591,-1.3064,-1.1381,-1.0367,-0.8756,-0.6687,-0.6494,-0.6009,-0.5395,-0.5395,-0.5395,-0.5395,-0.5395,-0.5395,-0.5395,-0.5395,-0.5395,-0.5395,-0.5395,-0.5395,-0.5395,-0.5395,-0.5395,-0.5395,-0.5395,-0.5395,-0.5395,-0.5395,-0.5557,-0.5653,-0.5458,-0.5423,-0.561,-0.6266,-0.7286,-0.8327,-0.9091,-1.0209,-1.1136,-1.1269,-1.1423,-1.155,-1.1617,-1.139,-1.1289,-1.1583,-1.1142,-1.0975,-1.1456,-1.1396,-1.1443,-1.1859,-1.2251,-1.1764,-0.9842,-0.9997,-0.976,-0.8711,-0.9587,-1.0668,-1.1722,-1.2734,-1.3373,-1.3593,-1.4731,-1.5424,-1.561,-1.5418,-1.54,-1.5599,-1.4271,-1.4046,-1.4797,-1.3741,-1.3717,-1.4409,-1.3634,-1.3353,-1.3427,-1.354,-1.3628,-1.3858,-1.6003,-1.6989,-1.7497,-1.9582,-2.0517,-2.0723,-1.2735,-1.0038,-0.6902,-0.6395,-0.63,-0.63,-0.63,-0.63,-0.63,-0.63,-0.6262,-0.602,-0.5457,-0.5395,-0.5395,-0.5395,-0.516,-0.3585,-0.0236,-0.2922,-0.4776,-0.4987,-0.8308,-1.1305,-1.3756,-1.4835,-1.505,-1.4382,-1.3468,-1.2165,-1.0544,-0.8867,-0.7598,-0.6654,-0.5848,-0.5458,-0.5395,-0.5395,-0.5395,-0.5395,-0.5395,-0.5395,-0.5395,-0.5395,-0.5395,-0.5395,-0.5395,-0.5395,-0.5395,-0.5395,-0.5395,-0.5395,-0.5395,-0.5395,-0.5395,-0.5395,-0.5976,-0.6429,-0.562,-0.5498,-0.5607,-0.5676,-0.7125,-0.8669,-0.9021,-1.0295,-1.155,-1.2091,-1.2011,-1.1953,-1.2191,-1.2004,-1.194,-1.2191,-1.1744,-1.147,-1.1826,-1.2051,-1.2124,-1.1933,-1.2625,-1.2164,-0.9734,-0.9948,-0.9697,-0.8518,-0.9544,-1.0736,-1.2017,-1.3022,-1.358,-1.36,-1.4011,-1.4986,-1.6584,-1.5722,-1.6221,-1.8038,-1.6742,-1.6322,-1.6643,-1.5281,-1.4851,-1.5143,-1.4034,-1.3768,-1.4001,-1.3706,-1.4143,-1.4995,-1.5313,-1.6578,-1.8336,-1.9299,-2.0289,-2.1142,-1.3737,-1.2068,-0.9478,-0.6758,-0.63,-0.63,-0.63,-0.63,-0.63,-0.63,-0.63,-0.6214,-0.5979,-0.5955,-0.5805,-0.5429,-0.5395,-0.3851,-0.0236,-0.3384,-0.6018,-0.7459,-0.9481,-1.0989,-1.181,-1.3183,-1.3489,-1.2661,-1.182,-1.0535,-0.8867,-0.7695,-0.6711,-0.5881,-0.5557,-0.5395,-0.5395,-0.5395,-0.5395,-0.5395,-0.5395,-0.5395,-0.5395,-0.5395,-0.5395,-0.5395,-0.5395,-0.5395,-0.5395,-0.5395,-0.5395,-0.5395,-0.5395,-0.5785,-0.6301,-0.6859,-0.7246,-0.7307,-0.6433,-0.6299,-0.6264,-0.5724,-0.712,-0.8649,-0.8771,-1.029,-1.1764,-1.1984,-1.2091,-1.2225,-1.2563,-1.2228,-1.212,-1.2759,-1.2211,-1.1937,-1.2605,-1.267,-1.2576,-1.2462,-1.2886,-1.2554,-1.0908,-1.0429,-1.0386,-1.081,-1.0603,-1.1298,-1.3233,-1.3706,-1.3793,-1.3613,-1.4573,-1.5662,-1.6812,-1.733,-1.7964,-1.8731,-1.7372,-1.7068,-1.7717,-1.6593,-1.6021,-1.581,-1.5175,-1.4475,-1.3814,-1.3888,-1.4225,-1.4783,-1.5318,-1.6705,-1.8468,-1.9311,-2.0464,-2.1641,-1.4015,-1.312,-1.1019,-0.7022,-0.63,-0.63,-0.63,-0.63,-0.63,-0.63,-0.63,-0.63,-0.63,-0.63,-0.6132,-0.5716,-0.5678,-0.4067,-0.0236,-0.3565,-0.6782,-0.9264,-1.0157,-1.0593,-1.0593,-1.1694,-1.1935,-1.1312,-1.0492,-0.9197,-0.7496,-0.6682,-0.5976,-0.5395,-0.5395,-0.5395,-0.5395,-0.5395,-0.5395,-0.5395,-0.5395,-0.5395,-0.5395,-0.5395,-0.5426,-0.5467,-0.5467,-0.5494,-0.5535,-0.5535,-0.5535,-0.5566,-0.5902,-0.6559,-0.7381,-0.8044,-0.8151,-0.7885,-0.7111,-0.6967,-0.6818,-0.5874,-0.7247,-0.88,-0.88,-1.0479,-1.2067,-1.2161,-1.2342,-1.2532,-1.2878,-1.2603,-1.2492,-1.3106,-1.2692,-1.2505,-1.3126,-1.3106,-1.3032,-1.2945,-1.316,-1.2854,-1.1662,-1.0991,-1.1031,-1.2039,-1.144,-1.1878,-1.3858,-1.3948,-1.3768,-1.3373,-1.4811,-1.594,-1.6754,-1.8245,-1.9164,-1.9481,-1.8503,-1.8416,-1.8977,-1.8018,-1.7206,-1.6522,-1.5942,-1.4973,-1.376,-1.4001,-1.4208,-1.4448,-1.5342,-1.6643,-1.8204,-1.9351,-2.0669,-2.1904,-1.3841,-1.312,-1.1019,-0.7022,-0.63,-0.63,-0.63,-0.63,-0.63,-0.63,-0.63,-0.63,-0.63,-0.63,-0.63,-0.63,-0.6261,-0.4502,-0.0305,-0.4036,-0.7673,-1.0526,-1.0631,-1.0593,-1.0593,-1.0593,-1.0559,-1.0486,-0.9592,-0.8329,-0.6687,-0.5818,-0.5395,-0.5395,-0.5395,-0.5395,-0.5395,-0.5395,-0.5395,-0.5395,-0.5395,-0.5395,-0.5395,-0.5395,-0.5491,-0.5589,-0.5593,-0.5681,-0.58,-0.58,-0.58,-0.5979,-0.6999,-0.781,-0.8471,-0.8722,-0.8536,-0.8079,-0.7482,-0.7311,-0.7078,-0.6053,-0.7573,-0.9301,-0.9296,-1.0875,-1.2392,-1.2723,-1.279,-1.2884,-1.316,-1.3213,-1.3213,-1.322,-1.3213,-1.3213,-1.322,-1.3427,-1.35,-1.3253,-1.3427,-1.3114,-1.1852,-1.1576,-1.1576,-1.1708,-1.1852,-1.2418,-1.3518,-1.3606,-1.3373,-1.2811,-1.441,-1.5638,-1.6417,-1.8113,-1.952,-2.0605,-2.0605,-2.0605,-2.0566,-1.9481,-1.839,-1.7253,-1.6191,-1.5095,-1.413,-1.4088,-1.4088,-1.4215,-1.5296,-1.6355,-1.7555,-1.949,-2.0903,-2.1953,-1.2766,-1.2545,-1.1019,-0.7022,-0.63,-0.63,-0.63,-0.63,-0.63,-0.63,-0.63,-0.63,-0.63,-0.63,-0.63,-0.63,-0.3597,-0.2439,-0.371,-1.1648,-1.6162,-1.5811,-1.2466,-1.0593,-1.0593,-0.9384,-0.8763,-0.8741,-0.7867,-0.6874,-0.5782,-0.5524,-0.5395,-0.5395,-0.5395,-0.5395,-0.5395,-0.5395,-0.5395,-0.5395,-0.5395,-0.5395,-0.5405,-0.5515,-0.5549,-0.5603,-0.5701,-0.5766,-0.58,-0.58,-0.58,-0.6083,-0.7708,-0.8369,-0.8677,-0.9366,-0.9565,-0.9381,-0.8728,-0.8577,-0.8309,-0.7273,-0.8294,-0.9715,-1.0229,-1.1701,-1.2906,-1.2811,-1.2958,-1.316,-1.342,-1.3347,-1.3347,-1.3761,-1.3647,-1.3547,-1.3794,-1.3901,-1.3841,-1.3507,-1.3547,-1.3444,-1.3067,-1.2255,-1.2246,-1.3297,-1.3429,-1.3607,-1.3913,-1.3955,-1.3774,-1.3387,-1.4818,-1.5947,-1.6724,-1.8254,-1.952,-2.0605,-2.0605,-2.0605,-2.0605,-2.0284,-1.952,-1.843,-1.7293,-1.6329,-1.5447,-1.4501,-1.4329,-1.4788,-1.5429,-1.6685,-1.8212,-1.9351,-2.0847,-2.2344,-1.2305,-1.1019,-0.9173,-0.6718,-0.63,-0.63,-0.63,-0.63,-0.63,-0.63,-0.63,-0.63,-0.63,-0.63,-0.63,-0.63,-0.3734,-0.3855,-0.7864,-1.5294,-1.8447,-1.5868,-1.3614,-1.1837,-1.0631,-0.8903,-0.767,-0.6957,-0.6785,-0.6268,-0.5395,-0.5395,-0.5395,-0.5395,-0.5395,-0.5395,-0.5395,-0.5395,-0.5395,-0.5395,-0.5395,-0.5433,-0.5494,-0.5555,-0.5661,-0.5776,-0.5861,-0.5932,-0.5993,-0.6047,-0.6365,-0.7006,-0.8569,-0.9275,-0.9694,-1.0338,-1.0222,-0.9793,-0.9511,-0.9135,-0.8892,-0.9115,-0.972,-1.0429,-1.1035,-1.2226,-1.3186,-1.3113,-1.3253,-1.3433,-1.3726,-1.3674,-1.3674,-1.4028,-1.3935,-1.3881,-1.4062,-1.4088,-1.4021,-1.3841,-1.3814,-1.3814,-1.3814,-1.307,-1.2997,-1.4019,-1.3981,-1.3961,-1.4082,-1.3975,-1.3774,-1.344,-1.4391,-1.5526,-1.689,-1.7871,-1.9076,-2.0605,-2.0605,-2.0605,-2.0605,-2.0605,-2.0087,-1.9182,-1.8331,-1.754,-1.6753,-1.5309,-1.5205,-1.5935,-1.6236,-1.7268,-1.8799,-2.0049,-2.125,-2.2314,-1.1774,-0.8799,-0.63,-0.63,-0.63,-0.63,-0.63,-0.63,-0.63,-0.63,-0.63,-0.63,-0.63,-0.63,-0.63,-0.63,-0.5743,-0.7352,-1.1998,-1.572,-1.6158,-1.2629,-1.4086,-1.3658,-1.0825,-0.8988,-0.725,-0.5557,-0.6235,-0.6181,-0.5423,-0.5402,-0.5409,-0.5433,-0.5423,-0.5423,-0.5433,-0.5433,-0.5426,-0.5416,-0.5329,-0.5372,-0.5451,-0.5373,-0.5587,-0.5897,-0.5897,-0.608,-0.6358,-0.6474,-0.7215,-0.8257,-0.9221,-1.0099,-1.0824,-1.1135,-1.0415,-0.9637,-0.9873,-0.9373,-0.9274,-1.1427,-1.171,-1.1534,-1.1786,-1.2597,-1.3353,-1.3553,-1.3626,-1.3726,-1.4035,-1.4088,-1.4088,-1.4088,-1.4088,-1.4088,-1.4088,-1.4108,-1.4128,-1.4128,-1.4128,-1.4128,-1.4128,-1.3881,-1.3806,-1.4142,-1.3915,-1.3881,-1.4155,-1.384,-1.3573,-1.3373,-1.356,-1.4722,-1.6834,-1.7219,-1.8491,-2.0605,-2.0644,-2.0664,-2.0664,-2.0703,-2.0364,-1.9784,-1.9299,-1.8795,-1.8112,-1.6589,-1.6531,-1.7392,-1.7481,-1.8135,-1.9216,-2.1137,-2.1846,-2.2012,-0.7587,-0.6907,-0.63,-0.63,-0.63,-0.63,-0.63,-0.63,-0.63,-0.63,-0.63,-0.63,-0.63,-0.63,-0.63,-0.63,-0.5743,-0.7352,-1.1998,-1.4486,-1.5199,-1.3854,-1.3652,-1.3035,-1.1886,-0.9753,-0.7996,-0.6724,-0.6042,-0.5672,-0.5627,-0.547,-0.5518,-0.5701,-0.5589,-0.5603,-0.5705,-0.5705,-0.564,-0.548,-0.4745,-0.442,-0.4274,-0.3689,-0.4119,-0.4999,-0.4999,-0.5698,-0.659,-0.6542,-0.6735,-0.72,-0.8068,-0.8586,-0.8837,-0.8882,-0.9466,-1.0063,-1.0232,-1.0873,-1.1872,-1.3474,-1.3841,-1.3633,-1.302,-1.3398,-1.3848,-1.3633,-1.3828,-1.4008,-1.4075,-1.4088,-1.4088,-1.4088,-1.4088,-1.4088,-1.4088,-1.4282,-1.4429,-1.4429,-1.4429,-1.4429,-1.4429,-1.4369,-1.4449,-1.4794,-1.476,-1.4754,-1.4814,-1.4496,-1.4409,-1.4583,-1.4422,-1.5062,-1.6655,-1.7675,-1.8976,-2.0605,-2.0918,-2.1094,-2.1064,-2.1445,-2.1518,-2.1348,-2.038,-2.0009,-1.9998,-1.8538,-1.8056,-1.8236,-1.8868,-1.9057,-1.9179,-2.0761,-2.1592,-2.2012,-0.6354,-0.63,-0.63,-0.63,-0.63,-0.63,-0.63,-0.63,-0.63,-0.63,-0.63,-0.63,-0.63,-0.8003,-0.9173,-0.9173,-0.8369,-0.9147,-1.2115,-1.323,-1.3665,-1.331,-1.2878,-1.2061,-1.0754,-0.9312,-0.7897,-0.6572,-0.5904,-0.5661,-0.576,-0.5655,-0.5654,-0.5796,-0.5725,-0.6012,-0.6472,-0.6015,-0.6037,-0.632,-0.5373,-0.4673,-0.421,-0.3804,-0.3776,-0.4011,-0.4609,-0.565,-0.6787,-0.663,-0.6725,-0.7052,-0.8044,-0.8442,-0.8636,-0.9181,-0.9956,-1.0768,-1.1364,-1.2108,-1.3053,-1.4418,-1.473,-1.4576,-1.3968,-1.4075,-1.4208,-1.3915,-1.4088,-1.4255,-1.4115,-1.4202,-1.4295,-1.4295,-1.4295,-1.4342,-1.4526,-1.4636,-1.473,-1.473,-1.473,-1.473,-1.473,-1.473,-1.4856,-1.515,-1.5089,-1.5068,-1.5164,-1.489,-1.4803,-1.5001,-1.481,-1.5364,-1.6587,-1.7244,-1.8472,-2.0339,-2.1132,-2.1543,-2.1553,-2.1777,-2.1992,-2.2126,-2.1351,-2.1231,-2.145,-1.9985,-1.9664,-2.0036,-1.9937,-2.0076,-2.0504,-2.1475,-2.2119,-2.2549,-0.6488,-0.645,-0.645,-0.645,-0.6368,-0.63,-0.63,-0.63,-0.63,-0.63,-0.63,-0.6567,-0.7249,-1.0303,-1.2305,-1.2305,-1.145,-1.1303,-1.2238,-1.2305,-1.2224,-1.204,-1.181,-1.0807,-0.8908,-0.8256,-0.7316,-0.5999,-0.5871,-0.5847,-0.5878,-0.5827,-0.583,-0.5878,-0.5854,-0.6317,-0.7057,-0.6237,-0.6364,-0.6976,-0.5821,-0.4896,-0.4183,-0.3875,-0.337,-0.3011,-0.3991,-0.5311,-0.6603,-0.6696,-0.6919,-0.7244,-0.8115,-0.8484,-0.8798,-0.9966,-1.068,-1.1345,-1.2495,-1.3174,-1.3835,-1.4805,-1.5251,-1.539,-1.5031,-1.4754,-1.4553,-1.4506,-1.4511,-1.4509,-1.4215,-1.4396,-1.4596,-1.4596,-1.4596,-1.4683,-1.4975,-1.5055,-1.5082,-1.5082,-1.5082,-1.5082,-1.5082,-1.5082,-1.5157,-1.5444,-1.5251,-1.5217,-1.5458,-1.5197,-1.5109,-1.5156,-1.5109,-1.5538,-1.6454,-1.6891,-1.8021,-1.9926,-2.1212,-2.1884,-2.1992,-2.207,-2.2295,-2.2598,-2.2246,-2.2295,-2.2502,-2.1207,-2.1207,-2.1909,-2.0964,-2.1146,-2.1934,-2.2353,-2.274,-2.3091,-0.6936,-0.6977,-0.6977,-0.6977,-0.66,-0.63,-0.63,-0.63,-0.63,-0.63,-0.63,-0.7625,-1.1093,-1.1959,-1.2305,-1.2305,-1.2158,-1.2138,-1.2291,-1.2305,-1.1922,-1.105,-1.0153,-0.9163,-0.8011,-0.7049,-0.6388,-0.5999,-0.5982,-0.6064,-0.6231,-0.5925,-0.5942,-0.6231,-0.6057,-0.6146,-0.6426,-0.6273,-0.6194,-0.6003,-0.4215,-0.333,-0.2917,-0.1267,-0.1185,-0.2002,-0.2044,-0.3472,-0.5489,-0.6514,-0.6964,-0.7115,-0.7142,-0.7241,-0.7577,-0.8798,-1.0074,-1.1345,-1.2495,-1.3943,-1.5147,-1.5291,-1.6345,-1.7237,-1.6928,-1.5859,-1.5164,-1.5848,-1.5414,-1.481,-1.4516,-1.4703,-1.4948,-1.4948,-1.4948,-1.4961,-1.5001,-1.5177,-1.5337,-1.5337,-1.5337,-1.5337,-1.5337,-1.5337,-1.5458,-1.5752,-1.5684,-1.5732,-1.5718,-1.5491,-1.5451,-1.5705,-1.5471,-1.555,-1.5886,-1.8034,-1.9249,-1.9566,-2.0784,-2.1739,-2.2441,-2.276,-2.2955,-2.3013,-2.2955,-2.2955,-2.3003,-2.2805,-2.2572,-2.2389,-2.2242,-2.2071,-2.1934,-2.2353,-2.274,-2.3091,-0.7045,-0.7095,-0.7095,-0.7095,-0.6883,-0.6641,-0.6351,-0.63,-0.63,-0.63,-0.63,-0.7817,-1.1848,-1.2305,-1.2305,-1.2305,-1.2305,-1.2305,-1.2305,-1.1248,-1.0683,-1.0783,-0.9286,-0.8237,-0.7821,-0.6834,-0.6255,-0.6166,-0.6166,-0.6214,-0.6296,-0.616,-0.6166,-0.6296,-0.619,-0.6537,-0.7138,-0.7138,-0.7091,-0.687,-0.5422,-0.4096,-0.2873,-0.145,-0.0872,-0.0943,-0.225,-0.38,-0.5457,-0.6605,-0.7045,-0.7085,-0.7021,-0.7045,-0.7445,-0.9314,-1.0548,-1.1714,-1.3531,-1.4813,-1.5638,-1.5638,-1.6657,-1.7825,-1.8338,-1.7962,-1.7356,-1.6694,-1.6374,-1.5939,-1.495,-1.501,-1.5204,-1.5204,-1.5204,-1.5264,-1.5424,-1.5558,-1.5638,-1.5638,-1.5638,-1.5638,-1.5638,-1.5638,-1.5691,-1.5771,-1.5784,-1.5784,-1.5784,-1.5705,-1.5698,-1.5778,-1.5705,-1.5698,-1.5784,-1.7576,-1.8503,-1.8503,-1.9716,-2.0846,-2.1823,-2.2001,-2.2076,-2.212,-2.2818,-2.3091,-2.3091,-2.3091,-2.2984,-2.2818,-2.2818,-2.2711,-2.2607,-2.275,-2.2935,-2.3091]}]]